[[{"header":{"parameterUnit":"m.s-1","parameterCategory":1,"la1":31.0,"la2":29.5877,"lo1":-88.7671,"lo2":-86.6584,"dy":0.0162,"dx":0.0185,"nx":115,"ny":88,"refTime":"2023-04-12T18:00:00:Z","depth":0,"parameterNumber":2,"parameterNumberName":"U-component_of_WINDS"},"data":[0.0,0.0,0.0,0.0,0.0,0.0,0.0,0.0,0.0,0.0,0.0,0.0,0.0,0.0,0.0,0.0,0.0,0.0,0.0,0.0,0.0,0.0,0.0,0.0,0.0,0.0,0.0,0.0,0.0,0.0,0.0,0.0,0.0,0.0,0.0,0.0,0.0,0.0,0.0,0.0,0.0,0.0,0.0,0.0,0.0,0.0,0.0,0.0,0.0,0.0,0.0,0.0,0.0,0.0,0.0,0.0,0.0,0.0,0.0,0.0,0.0,0.0,0.0,0.0,0.0,0.0,0.0,0.0,0.0,0.0,0.0,0.0,0.0,0.0,0.0,0.0,0.0,0.0,0.0,0.0,0.0,0.0,0.0,0.0,0.0,0.0,0.0,0.0,0.0,0.0,0.0,0.0,0.0,0.0,0.0,0.0,0.0,0.0,0.0,0.0,0.0,0.0,0.0,0.0,0.0,0.0,0.0,0.0,0.0,0.0,0.0,0.0,0.0,0.0,0.0,0.0,0.0,0.0,0.0,0.0,0.0,0.0,0.0,0.0,0.0,0.0,0.0,0.0,0.0,0.0,0.0,0.0,0.0,0.0,0.0,0.0,0.0,0.0,0.0,0.0,0.0,0.0,0.0,0.0,0.0,0.0,0.0,0.0,0.0,0.0,0.0,0.0,0.0,0.0,0.0,0.0,0.0,0.0,0.0,0.0,0.0,0.0,0.0,0.0,0.0,0.0,0.0,0.0,0.0,0.0,0.0,0.0,0.0,0.0,0.0,0.0,0.0,0.0,0.0,0.0,0.0,0.0,0.0,0.0,0.0,0.0,0.0,0.0,0.0,0.0,0.0,0.0,0.0,0.0,0.0,0.0,0.0,0.0,0.0,0.0,0.0,0.0,0.0,0.0,0.0,0.0,0.0,0.0,0.0,0.0,0.0,0.0,0.0,0.0,0.0,0.0,0.0,0.0,0.0,0.0,0.0,0.0,0.0,0.0,0.0,0.0,0.0,0.0,0.0,0.0,0.0,0.0,0.0,0.0,0.0,0.0,0.0,0.0,0.0,0.0,0.0,0.0,0.0,0.0,0.0,0.0,0.0,0.0,0.0,0.0,0.0,0.0,0.0,0.0,0.0,0.0,0.0,0.0,0.0,0.0,0.0,0.0,0.0,0.0,0.0,0.0,0.0,0.0,0.0,0.0,0.0,0.0,0.0,0.0,0.0,0.0,0.0,0.0,0.0,0.0,0.0,0.0,0.0,0.0,0.0,0.0,0.0,0.0,0.0,0.0,0.0,0.0,0.0,0.0,0.0,0.0,0.0,0.0,0.0,0.0,0.0,0.0,0.0,0.0,0.0,0.0,0.0,0.0,0.0,0.0,0.0,0.0,0.0,0.0,0.0,0.0,0.0,0.0,0.0,0.0,0.0,0.0,0.0,0.0,0.0,0.0,0.0,0.0,0.0,0.0,0.0,0.0,0.0,0.0,0.0,0.0,0.0,0.0,0.0,0.0,0.0,0.0,0.0,0.0,0.0,0.0,0.0,0.0,0.0,0.0,0.0,0.0,0.0,0.0,0.0,0.0,0.0,0.0,0.0,0.0,0.0,0.0,0.0,0.0,0.0,0.0,0.0,0.0,0.0,0.0,0.0,0.0,0.0,0.0,0.0,0.0,0.0,0.0,0.0,0.0,0.0,0.0,0.0,0.0,0.0,0.0,0.0,0.0,0.0,0.0,0.0,0.0,0.0,0.0,0.0,0.0,0.0,0.0,0.0,0.0,0.0,0.0,0.0,0.0,0.0,0.0,0.0,0.0,0.0,0.0,0.0,0.0,0.0,0.0,0.0,0.0,0.0,0.0,0.0,0.0,0.0,0.0,0.0,0.0,0.0,0.0,0.0,0.0,0.0,0.0,0.0,0.0,0.0,0.0,0.0,0.0,0.0,0.0,0.0,0.0,0.0,0.0,0.0,0.0,0.0,0.0,0.0,0.0,0.0,0.0,0.0,0.0,0.0,0.0,0.0,0.0,0.0,0.0,0.0,0.0,0.0,0.0,0.0,0.0,0.0,0.0,0.0,0.0,0.0,0.0,0.0,0.0,0.0,0.0,0.0,0.0,0.0,0.0,0.0,0.0,0.0,0.0,0.0,0.0,0.0,0.0,0.0,0.0,0.0,0.0,0.0,0.0,0.0,0.0,0.0,0.0,0.0,0.0,0.0,0.0,0.0,0.0,0.0,0.0,0.0,0.0,0.0,0.0,0.0,0.0,0.0,0.0,0.0,0.0,0.0,0.0,0.0,0.0,0.0,0.0,0.0,0.0,0.0,0.0,0.0,0.0,0.0,0.0,0.0,0.0,0.0,0.0,0.0,0.0,0.0,0.0,0.0,0.0,0.0,0.0,0.0,0.0,0.0,0.0,0.0,0.0,0.0,0.0,0.0,0.0,0.0,0.0,0.0,0.0,0.0,0.0,0.0,0.0,0.0,0.0,0.0,0.0,0.0,0.0,0.0,0.0,0.0,0.0,0.0,0.0,0.0,0.0,0.0,0.0,0.0,0.0,0.0,0.0,0.0,0.0,0.0,0.0,0.0,0.0,0.0,0.0,0.0,0.0,0.0,0.0,0.0,0.0,0.0,0.0,0.0,0.0,0.0,0.0,0.0,0.0,0.0,0.0,0.0,0.0,0.0,0.0,0.0,0.0,0.0,0.0,0.0,0.0,0.0,0.0,0.0,0.0,0.0,0.0,0.0,0.0,0.0,0.0,0.0,0.0,0.0,0.0,0.0,0.0,0.0,0.0,0.0,0.0,0.0,0.0,0.0,0.0,0.0,0.0,0.0,0.0,0.0,0.0,0.0,0.0,0.0,0.0,0.0,0.0,0.0,0.0,0.0,0.0,0.0,0.0,0.0,0.0,0.0,0.0,0.0,0.0,0.0,0.0,0.0,0.0,0.0,0.0,0.0,0.0,0.0,0.0,0.0,0.0,0.0,0.0,0.0,0.0,0.0,0.0,0.0,0.0,0.0,0.0,0.0,0.0,0.0,0.0,0.0,0.0,0.0,0.0,0.0,0.0,0.0,0.0,0.0,0.0,0.0,0.0,0.0,0.0,0.0,0.0,0.0,0.0,0.0,0.0,0.0,0.0,0.0,0.0,0.0,0.0,0.0,0.0,0.0,0.0,0.0,0.0,0.0,0.0,0.0,0.0,0.0,0.0,0.0,0.0,0.0,0.0,0.0,0.0,0.0,0.0,0.0,0.0,0.0,0.0,0.0,0.0,0.0,0.0,0.0,0.0,0.0,0.0,0.0,0.0,0.0,0.0,0.0,0.0,0.0,0.0,0.0,0.0,0.0,0.0,0.0,0.0,0.0,0.0,0.0,0.0,0.0,0.0,0.0,0.0,0.0,0.0,0.0,0.0,0.0,0.0,0.0,0.0,0.0,0.0,0.0,0.0,0.0,0.0,0.0,0.0,0.0,0.0,0.0,0.0,0.0,0.0,0.0,0.0,0.0,0.0,0.0,0.0,0.0,0.0,0.0,0.0,0.0,0.0,0.0,0.0,0.0,0.0,0.0,0.0,0.0,0.0,0.0,0.0,0.0,0.0,0.0,0.0,0.0,0.0,0.0,0.0,0.0,0.0,0.0,0.0,0.0,0.0,0.0,0.0,0.0,0.0,0.0,0.0,0.0,0.0,0.0,0.0,0.0,0.0,0.0,0.0,0.0,0.0,0.0,0.0,0.0,0.0,0.0,0.0,0.0,0.0,0.0,0.0,0.0,0.0,0.0,0.0,0.0,0.0,0.0,0.0,0.0,0.0,0.0,0.0,0.0,0.0,0.0,0.0,0.0,0.0,0.0,0.0,0.0,0.0,0.0,0.0,0.0,0.0,0.0,0.0,0.0,0.0,0.0,0.0,0.0,0.0,0.0,0.0,0.0,0.0,0.0,0.0,0.0,0.0,0.0,0.0,0.0,0.0,0.0,0.0,0.0,0.0,0.0,0.0,0.0,0.0,0.0,0.0,0.0,0.0,0.0,0.0,0.0,0.0,0.0,0.0,0.0,0.0,0.0,0.0,0.0,0.0,0.0,0.0,0.0,0.0,0.0,0.0,0.0,0.0,0.0,0.0,0.0,0.0,0.0,0.0,0.0,0.0,0.0,0.0,0.0,0.0,0.0,0.0,0.0,0.0,0.0,0.0,0.0,0.0,0.0,0.0,0.0,0.0,0.0,0.0,0.0,0.0,0.0,0.0,0.0,0.0,0.0,0.0,0.0,0.0,0.0,0.0,-0.0269,0.0,0.0,0.0,0.0,0.0,0.0,0.0,0.0,0.0,0.0,0.0,0.0,0.0,0.0,0.0,0.0,0.0,0.0,0.0,0.0,0.0,0.0,0.0,0.0,0.0,0.0,0.0,0.0,0.0,0.0,0.0,0.0,0.0,0.0,0.0,0.0,0.0,0.0,0.0,0.0,0.0,0.0,0.0,0.0,0.0,0.0,0.0,0.0,0.0,0.0,0.0,0.0,0.0,0.0,0.0,0.0,0.0,0.0,0.0,0.0,0.0,0.0,0.0,0.0,0.0,0.0,0.0,0.0,0.0,0.0,0.0,0.0,0.0,0.0,0.0,0.0,0.0,0.0,0.0,0.0,0.0,0.0,0.0,0.0,0.0,0.0,0.0,0.0,0.0,0.0,0.0,0.0,0.0,0.0,0.0,0.0,0.0,0.0,0.0,0.0,0.0,0.0,0.0,0.0,0.0,0.0,0.0,0.0,0.0,0.0,0.0505,0.0403,0.0303,0.0303,0.0403,0.0,0.0,0.0,0.0,0.0,0.0,0.0,0.0,0.0,0.0,0.0,0.0,0.0,0.0,0.0,0.0,0.0,0.0,0.0,0.0,0.0,0.0,0.0,0.0,0.0,0.0,0.0,0.0,0.0,0.0,0.0,0.0,0.0,0.0,0.0,0.0,0.0,0.0,0.0,0.0,0.0,0.0,0.0,0.0,0.0,0.0,0.0,0.0,0.0,0.0,0.0,0.0,0.0,0.0,0.0,0.0,0.0,0.0,0.0,0.0,0.0,0.0,0.0,0.0,0.0,0.0,0.0,0.0,0.0,0.0,0.0,0.0,0.0,0.0,0.0,0.0,0.0,0.0,0.0,0.0,0.0,0.0,0.0,0.0,0.0,0.0,0.0,0.0,0.0,0.0,0.0,0.0,0.0,0.0,0.0,0.0,0.0,0.0,0.0,0.0,0.0,0.0,0.0,0.0,0.0,0.0,0.0,0.0,0.0,0.0,0.0,0.0,0.1041,0.1075,0.1075,0.0,0.0,0.0,0.0,0.0,0.0,0.0,0.0,0.0,0.0,0.0,0.0,0.0,0.0,0.0,0.0,0.0,0.0,0.0,0.0,0.0,0.0,0.0,0.0,0.0,0.0,0.0,0.0,0.0,0.0,0.0,0.0,0.0,0.0,0.0,0.0,0.0,0.0,0.0,0.0,0.0,0.0,0.0,0.0,0.0,0.0,0.0,0.0,0.0,0.0,0.0,0.0,0.0,0.0,0.0,0.0,0.0,0.0,0.0,0.0,0.0,0.0,0.0,0.0,0.0,0.0,0.0,0.0,0.0,0.0,0.0,0.0,0.0,0.0,0.0,0.0,0.0,0.0,0.0,0.0,0.0,0.0,0.0,0.0,0.0,0.0,0.0,0.0,0.0,0.0,0.0,0.0,0.0,0.0,0.0,0.0,0.0,0.0,0.0,0.0,0.0,0.0,0.0,0.0,0.0,0.0,0.0,0.0,0.0,0.0,0.1744,0.1878,0.1847,0.0,0.1878,0.0,0.0,0.0,0.0,0.0,0.0,0.0,0.0,0.0,0.0,0.0,0.0,0.0,0.0,0.0,0.0,0.0,0.0,0.0,0.0,0.0,0.0,0.0,0.0,0.0,0.0,0.0,0.0,0.0,0.0,0.0,0.0,0.0,0.0,0.0,0.0,0.0,0.0,0.0,0.0,0.0,0.0,0.0,0.0,0.0,0.0,0.0,0.0,0.0,0.0,0.0,0.0,0.0,0.0,0.0,0.0,0.0,0.0,0.0,0.0,0.0,0.0,0.0,0.0,0.0,0.0,0.0,0.0,0.0,0.0,0.0,0.0,0.0,0.0,0.0,0.0,0.0,0.0,0.0,0.0,0.0,0.0,0.0,0.0,0.0,0.0,0.0,0.0,0.0,0.0,0.0,0.0,0.0,0.0,0.0,0.0,0.0,0.0,0.0,0.0,0.0,0.0,0.0,0.0,0.0,0.0,0.0,0.0,0.0,0.0,0.2175,0.2311,0.2344,0.2344,0.0,0.0,0.0,0.0,0.0,0.0,0.0,0.0,0.0,0.0,0.0,0.0,0.0,0.0,0.0,0.0,0.0,0.0,0.0,0.0,0.0,0.0,0.0,0.0,0.0,0.0,0.0,0.0,0.0,0.0,0.0,0.0,0.0,0.0,0.0,0.0,0.0,0.0,0.0,0.0,0.0,0.0,0.0,0.0,0.0,0.0,0.0,0.0,0.0,0.0,0.0,0.0,0.0,0.0,0.0,0.0,0.0,0.0,0.0,0.0,0.0,0.0,0.0,0.0,0.0,0.0,0.0,0.0,0.0,0.0,0.0,0.0,0.0,0.0,0.0,0.0,0.0,0.0,0.0,0.0,0.0,0.0,0.0,0.0,0.0,0.0,0.0,0.0,0.0,0.0,0.0,0.0,0.0,0.0,0.0,0.0,0.0,0.0,0.0,0.0,0.0,0.0,0.0,0.0,0.0,0.0,0.0,0.0,0.0,0.0,0.2573,0.2573,0.2606,0.2742,0.2742,0.2606,0.0,0.0,0.0,0.0,0.0,0.0,0.0,0.0,0.0,0.0,0.0,0.0,0.0,0.0,0.0,0.0,0.0,0.0,0.0,0.0,0.0,0.0,0.0,0.0,0.0,0.0,0.0,0.0,0.0,0.0,0.0,0.0,0.0,0.0,0.0,0.0,0.0,0.0,0.0,0.0,0.0,0.0,0.0,0.0,0.0,0.0,0.0,0.0,0.0,0.0,0.0,0.0,0.0,0.0,0.0,0.0,0.0,0.0,0.0,0.0,0.0,0.0,0.0,0.0,0.0,0.0,0.0,0.0,0.0,0.0,0.0,0.0,0.0,0.0,0.0,0.0,0.0,0.0,0.0,0.0,0.0,0.0,0.0,0.0,0.0,0.0,0.0,0.0,0.0,0.0,0.0,0.0,0.0,0.0,0.0,0.0,0.0,0.0,0.0,0.0,0.0,0.0,0.0,0.0,0.0,0.0,0.0,0.0,0.3072,0.2937,0.2867,0.2867,0.3006,0.3039,0.0,0.0,0.0,0.0,0.0,0.0,0.0,0.0,0.0,0.0,0.0,0.0,0.0,0.0,0.0,0.0,0.0,0.0,0.0,0.0,0.0,0.0,0.0,0.0,0.0,0.0,0.0,0.0,0.0,0.0,0.0,0.0,0.0,0.0,0.0,0.0,0.0,0.0,0.0,0.0,0.0,0.0,0.0,0.0,0.0,0.0,0.0,0.0,0.0,0.0,0.0,0.0,0.0,0.0,0.0,0.0,0.0,0.0,0.0,0.0,0.0,0.0,0.0,0.0,0.0,0.0,0.0,0.0,0.0,0.0,0.0,0.0,0.0,0.0,0.0,0.0,0.0,0.0,0.0,0.0,0.0,0.0,0.0,0.0,0.0,0.0,0.0,0.0,0.0,0.0,0.0,0.0,0.0,0.0,0.0,0.0,0.0,0.0,0.0,0.0,0.0,0.0,0.0,0.0,0.0,0.0,0.0,0.0,0.0,0.3245,0.3179,0.3175,0.3175,0.3303,0.3303,0.0,0.0,0.0,0.0,0.0,0.0,0.0,0.0,0.0,0.0,0.0,0.0,0.0,0.0,0.0,0.0,0.0,0.0,0.0,0.0,0.0,0.0,0.0,0.0,0.0,0.0,0.0,0.0,0.0,0.0,0.0,0.0,0.0,0.0,0.0,0.0,0.0,0.0,0.0,0.0,0.0,0.0,0.0,0.0,0.0,0.0,0.0,0.0,0.0,0.0,0.0,0.0,0.0,0.0,0.0,0.0,0.0,0.0,0.0,0.0,0.0,0.0,0.0,0.0,0.0,0.0,0.0,0.0,0.0,0.0,0.0,0.0,0.0,0.0,0.0,0.0,0.0,0.0,0.0,0.0,0.0,0.0,0.0,0.0,0.0,0.0,0.0,0.0,0.0,0.0,0.0,0.0,0.0,0.0,0.0,0.0,0.0,0.0,0.0,0.0,0.0,0.0,0.0,0.0,0.0,0.0,0.0,0.0,0.0,0.341,0.0,0.3377,0.3372,0.3467,0.3499,0.0,0.0,0.0,0.0,0.0,0.0,0.0,0.0,0.0,0.0,0.0,0.0,0.0,0.0,0.0,0.0,0.0,0.0,0.0,0.0,0.0,0.0,0.0,0.0,0.0,0.0,0.0,0.0,0.0,0.0,0.0,0.0,0.0,0.0,0.0,0.0,0.0,0.0,0.0,0.0,0.0,0.0,0.0,0.0,0.0,0.0,0.0,0.0,0.0,0.0,0.0,0.0,0.0,0.0,0.0,0.0,0.0,0.0,0.0,0.0,0.0,0.0,0.0,0.0,0.0,0.0,0.0,0.0,0.0,0.0,0.0,0.0,0.0,0.0,0.0,0.0,0.0,0.0,0.0,0.0,0.0,0.0,0.0,0.0,0.0,0.0,0.0,0.0,0.0,0.0,0.0,0.0,0.0,0.0,0.0,0.0,0.0,0.0,0.0,0.0,0.0,0.0,0.0,0.0,0.0,0.0,0.0,0.0,0.3868,0.3639,0.3616,0.3629,0.3541,0.3625,0.3616,0.0,0.0,0.0,0.0,0.0,0.0,0.0,0.0,0.0,0.0,0.0,0.0,0.0,0.0,0.0,0.0,0.0,0.0,0.0,0.0,0.0,0.0,0.0,0.0,0.0,0.0,0.0,0.0,0.0,0.0,0.0,0.0,0.0,0.0,0.0,0.0,0.0,0.0,0.0,0.0,0.0,0.0,0.0,0.0,0.0,0.0,0.0,0.0,0.0,0.0,0.0,0.0,0.0,0.0,0.0,0.0,0.0,0.0,0.0,0.0,0.0,0.0,0.0,0.0,0.0,0.0,0.0,0.0,0.0,0.0,0.0,0.0,0.0,0.0,0.0,0.0,0.0,0.0,0.0,0.0,0.0,0.0,0.0,0.0,0.0,0.0,0.0,0.0,0.0,0.0,0.0,0.0,0.0,0.0,0.0,0.0,0.0,0.0,0.0,0.0,0.0,0.0,0.0,0.0,0.0,0.0,0.0,0.0,0.0,0.4226,0.4408,0.4485,0.4448,0.4521,0.4562,0.0,0.0,0.0,0.0,0.0,0.0,0.0,0.0,0.0,0.0,0.0,0.0,0.0,0.0,0.0,0.0,0.0,0.0,0.0,0.0,0.0,0.0,0.0,0.0,0.0,0.0,0.0,0.0,0.0,0.0,0.0,0.0,0.0,0.0,0.0,0.0,0.0,0.0,0.0,0.0,0.0,0.0,0.0,0.0,0.0,0.0,0.0,0.0,0.0,0.0,0.0,0.0,0.0,0.0,0.0,0.0,0.0,0.0,0.0,0.0,0.0,0.0,0.0,0.0,0.0,0.0,0.0,0.0,0.0,0.0,0.0,0.0,0.0,0.0,0.0,0.0,0.0,0.0,0.0,0.0,0.0,0.0,0.0,0.0,0.0,0.0,0.0,0.0,0.0,0.0,0.0,0.0,0.0,0.0,0.0,0.0,0.0,0.0,0.0,0.0,0.0,0.0,0.0,0.0,0.0,0.0,0.0,0.0,0.0,0.5159,0.5176,0.5165,0.5093,0.5209,0.5203,0.5039,0.0,0.0,0.0,0.0,0.0,0.0,0.0,0.0,0.0,0.0,0.0,0.0,0.0,0.0,0.0,0.0,0.0,0.0,0.0,0.0,0.0,0.0,0.0,0.0,0.0,0.0,0.0,0.0,0.0,0.0,0.0,0.0,0.0,0.0,0.0,0.0,0.0,0.0,0.0,0.0,0.0,0.0,0.0,0.0,0.0,0.0,0.0,0.0,0.0,0.0,0.0,0.0,0.0,0.0,0.0,0.0,0.0,0.0,0.0,0.0,0.0,0.0,0.0,0.0,0.0,0.0,0.0,0.0,0.0,0.0,0.0,0.0,0.0,0.0,0.0,0.0,0.0,0.0,0.0,0.0,0.0,0.0,0.0,0.0,0.0,0.0,0.0,0.0,0.0,0.0,0.0,0.0,0.0,0.0,0.0,0.0,0.0,0.0,0.0,0.0,0.0,0.0,0.0,0.0,0.0,0.0,0.0,0.0,0.6269,0.5955,0.5722,0.5506,0.5688,0.5607,0.0,0.0,0.0,0.0,0.0,0.0,0.0,0.0,0.0,0.0,0.0,0.0,0.0,0.0,0.0,0.0,0.0,0.0,0.0,0.0,0.0,0.0,0.0,0.0,0.0,0.0,0.0,0.0,0.0,0.0,0.0,0.0,0.0,0.0,0.0,0.0,0.0,0.0,0.0,0.0,0.0,0.0,0.0,0.0,0.0,0.0,0.0,0.0,0.0,0.0,0.0,0.0,0.0,0.0,0.0,0.0,0.0,0.0,0.0,0.0,0.0,0.0,0.0,0.0,0.0,0.0,0.0,0.0,0.0,0.0,0.0,0.0,0.0,0.0,0.0,0.0,0.0,0.0,0.0,0.0,0.0,0.0,0.0,0.0,0.0,0.0,0.0,0.0,0.0,0.0,0.0,0.0,0.0,0.0,0.0,0.0,0.0,0.0,0.0,0.0,0.0,0.0,0.0,0.0,0.0,0.0,0.0,0.0,0.0,0.7056,0.7109,0.6943,0.662,0.6523,0.6469,0.0,0.0,0.0,0.0,0.0,0.0,0.0,0.0,0.0,0.0,0.0,0.0,0.0,0.0,0.0,0.0,0.0,0.0,0.0,0.0,0.0,0.0,0.0,0.0,0.0,0.0,0.0,0.0,0.0,0.0,0.0,0.0,0.0,0.0,0.0,0.0,0.0,0.0,0.0,0.0,0.0,0.0,0.0,0.0,0.0,0.0,0.0,0.0,0.0,0.0,0.0,0.0,0.0,0.0,0.0,0.0,0.0,0.0,0.0,0.0,0.0,0.0,0.0,0.0,0.0,0.0,0.0,0.0,0.0,0.0,0.0,0.0,0.0,0.0,0.0,0.0,0.0,0.0,0.0,0.0,0.0,0.0,0.0,0.0,0.0,0.0,0.0,0.0,0.0,0.0,0.0,0.0,0.0,0.0,0.0,0.0,0.0,0.0,0.0,0.0,0.0,0.0,0.0,0.0,0.0,0.0,0.0,0.0,0.7031,0.745,0.7631,0.7596,0.7401,0.7128,0.6914,0.0,0.0,0.0,0.0,0.0,0.0,0.0,0.0,0.0,0.0,0.0,0.0,0.0,0.0,0.0,0.0,0.0,0.0,0.0,0.0,0.0,0.0,0.0,0.0,0.0,0.0,0.0,0.0,0.0,0.0,0.0,0.0,0.0,0.0,0.0,0.0,0.0,0.0,0.0,0.0,0.0,0.0,0.0,0.0,0.0,0.0,0.0,0.0,0.0,0.0,0.0,0.0,0.0,0.0,0.0,0.0,0.0,0.0,0.0,0.0,0.0,0.0,0.0,0.0,0.0,0.0,0.0,0.0,0.0,0.0,0.0,0.0,0.0,0.0,0.0,0.0,0.0,0.0,0.0,0.0,0.0,0.0,0.0,0.0,0.0,0.0,0.0,0.0,0.0,0.0,0.0,0.0,0.0,0.0,0.0,0.0,0.0,0.0,0.0,0.0,0.0,0.0,0.0,0.0,0.0,0.0,0.0,0.0,0.7407,0.7674,0.787,0.7943,0.7979,0.7498,0.7091,0.0,0.0,0.0,0.0,0.0,0.0,0.0,0.0,0.0,0.0,0.0,0.0,0.0,0.0,0.0,0.0,0.0,0.0,0.0,0.0,0.0,0.0,0.0,0.0,0.0,0.0,0.0,0.0,0.0,0.0,0.0,0.0,0.0,0.0,0.0,0.0,0.0,0.0,0.0,0.0,0.0,0.0,0.0,0.0,0.0,0.0,0.0,0.0,0.0,0.0,0.0,0.0,0.0,0.0,0.0,0.0,0.0,0.0,0.0,0.0,0.0,0.0,0.0,0.0,0.0,0.0,0.0,0.0,0.0,0.0,0.0,0.0,0.0,0.0,0.0,0.0,0.0,0.0,0.0,0.0,0.0,0.0,0.0,0.0,0.0,0.0,0.0,0.0,0.0,0.0,0.0,0.0,0.0,0.0,0.0,0.0,0.0,0.0,0.0,0.0,0.0,0.0,0.0,0.0,0.0,0.0,0.0,0.0,0.8125,0.8385,0.8282,0.8263,0.8429,0.7646,0.7224,0.0,0.0,0.0,0.0,0.0,0.0,0.0,0.0,0.0,0.0,0.0,0.0,0.0,0.0,0.0,0.0,0.0,0.0,0.0,0.0,0.0,0.0,0.0,0.0,0.0,0.0,0.0,0.0,0.0,0.0,0.0,0.0,0.0,0.0,0.0,0.0,0.0,0.0,0.0,0.0,0.0,0.0,0.0,0.0,0.0,0.0,0.0,0.0,1.6204,0.0,0.0,0.0,0.0,0.0,0.0,0.0,0.0,0.0,0.0,0.0,0.0,0.0,0.0,0.0,0.0,0.0,0.0,0.0,0.0,0.0,0.0,0.0,0.0,0.0,0.0,0.0,0.0,0.0,0.0,0.0,0.0,0.0,0.0,0.0,0.0,0.0,0.0,0.0,0.0,0.0,0.0,0.0,0.0,0.0,0.0,0.0,0.0,0.0,0.0,0.0,0.0,0.0,0.0,0.0,0.0,0.0,0.0,0.0,0.8626,0.9073,0.8808,0.8643,0.8618,0.8051,0.7639,0.0,0.0,0.0,0.0,0.0,0.0,0.0,0.0,0.0,0.0,0.0,0.0,0.0,0.0,0.0,0.0,0.0,0.0,0.0,0.0,0.0,0.0,0.0,0.0,0.0,0.0,0.0,0.0,0.0,0.0,0.0,0.0,0.0,0.0,0.0,0.0,0.0,0.0,0.0,0.0,0.0,0.0,0.0,0.0,0.0,0.0,0.0,0.0,0.0,0.0,0.0,0.0,0.0,0.0,0.0,0.0,0.0,0.0,0.0,0.0,0.0,0.0,0.0,0.0,0.0,0.0,0.0,0.0,0.0,0.0,0.0,0.0,0.0,0.0,0.0,0.0,0.0,0.0,0.0,0.0,0.0,0.0,0.0,0.0,0.0,0.0,0.0,0.0,0.0,0.0,0.0,0.0,0.0,0.0,0.0,0.0,0.0,0.0,0.0,0.0,0.0,0.0,0.0,0.0,0.0,0.0,0.0,0.8903,0.9309,0.9986,0.9577,0.92,0.8906,0.8669,0.8199,0.7588,0.0,0.0,0.0,0.0,0.0,0.0,0.0,0.0,0.0,0.0,0.0,0.0,0.0,0.0,0.0,0.0,0.0,0.0,0.0,0.0,0.0,0.0,0.0,0.0,0.0,0.0,0.0,0.0,0.0,0.0,0.0,0.0,0.0,0.0,0.0,0.0,0.0,0.0,1.3496,1.398,0.0,0.0,0.0,0.0,0.0,0.0,0.0,0.0,1.6383,0.0,0.0,0.0,0.0,0.0,0.0,0.0,0.0,0.0,0.0,0.0,0.0,0.0,0.0,0.0,0.0,0.0,0.0,0.0,0.0,0.0,0.0,0.0,0.0,0.0,0.0,0.0,0.0,0.0,0.0,0.0,0.0,0.0,0.0,0.0,0.0,0.0,0.0,0.0,0.0,0.0,0.0,0.0,0.0,0.0,0.0,0.0,0.0,0.0,0.0,0.0,0.0,0.0,0.0,0.0,0.0,1.0068,1.0339,1.0784,1.1394,1.1166,1.0611,0.988,0.9563,0.8931,0.808,0.0,0.0,0.0,0.0,0.0,0.0,0.0,0.0,0.0,0.0,0.0,0.0,0.0,0.0,0.0,0.0,0.0,0.0,0.0,0.0,0.0,0.0,0.0,0.0,0.0,0.0,0.0,0.0,0.0,0.0,0.0,0.0,0.0,0.0,0.0,0.0,0.0,0.0,0.0,1.4705,1.4998,0.0,0.0,0.0,0.0,0.0,0.0,0.0,0.0,1.7106,0.0,0.0,0.0,0.0,0.0,0.0,0.0,0.0,0.0,0.0,0.0,0.0,0.0,0.0,0.0,0.0,0.0,0.0,0.0,0.0,0.0,0.0,0.0,0.0,0.0,0.0,0.0,0.0,0.0,0.0,0.0,0.0,0.0,0.0,0.0,0.0,0.0,0.0,0.0,0.0,0.0,0.0,0.0,0.0,0.0,0.0,0.0,0.0,0.0,0.0,0.0,0.0,0.0,0.0,0.0,1.0609,1.0782,1.1055,1.1618,1.1261,1.0814,1.0321,1.0203,0.966,0.0,0.0,0.0,0.0,0.0,0.0,0.0,0.0,0.0,0.0,0.0,0.0,0.0,0.0,0.0,0.0,0.0,0.0,0.0,0.0,0.0,0.0,0.0,0.0,0.0,0.0,0.0,0.0,0.0,0.0,0.0,0.0,0.0,0.0,0.0,0.0,0.0,0.0,0.0,0.0,1.5206,1.5543,1.6874,0.0,0.0,0.0,0.0,0.0,0.0,1.7332,1.7349,0.0,0.0,0.0,0.0,0.0,0.0,0.0,0.0,0.0,0.0,0.0,0.0,0.0,0.0,0.0,0.0,0.0,0.0,0.0,0.0,0.0,0.0,0.0,0.0,0.0,0.0,0.0,0.0,0.0,0.0,0.0,0.0,0.0,0.0,0.0,0.0,0.0,0.0,0.0,0.0,0.0,0.0,0.0,0.0,0.0,0.0,0.0,0.0,0.0,0.0,0.0,0.0,0.0,0.0,0.0,1.1207,1.1259,1.1518,1.1935,1.16,1.1233,1.0912,1.0816,1.0228,0.0,0.0,0.0,0.0,0.0,0.0,0.0,0.0,0.0,0.0,0.0,0.0,0.0,0.0,0.0,0.0,0.0,0.0,0.0,0.0,0.0,0.0,0.0,0.0,0.0,0.0,0.0,0.0,0.0,0.0,0.0,0.0,0.0,0.0,0.0,0.0,0.0,0.0,0.0,0.0,0.0,1.6066,1.7228,1.684,0.0,0.0,0.0,0.0,1.7623,1.7544,0.0,0.0,0.0,0.0,0.0,0.0,0.0,0.0,0.0,0.0,0.0,0.0,0.0,0.0,0.0,0.0,0.0,0.0,0.0,0.0,0.0,0.0,0.0,0.0,0.0,0.0,0.0,0.0,0.0,0.0,0.0,0.0,0.0,0.0,0.0,0.0,0.0,0.0,0.0,0.0,0.0,0.0,0.0,0.0,0.0,0.0,0.0,0.0,0.0,0.0,0.0,0.0,0.0,0.0,0.0,0.0,1.2146,1.2552,1.3033,1.3494,1.3467,1.3078,1.232,1.1783,1.0779,0.0,0.0,0.0,0.0,0.0,0.0,0.0,0.0,0.0,0.0,0.0,0.0,0.0,0.0,0.0,0.0,0.0,0.0,0.0,0.0,0.0,0.0,0.0,0.0,0.0,0.0,0.0,0.0,0.0,0.0,0.0,0.0,0.0,0.0,0.0,0.0,0.0,0.0,0.0,0.0,0.0,1.6293,1.7194,1.684,1.6509,0.0,0.0,1.7608,1.7682,1.8215,0.0,0.0,0.0,0.0,0.0,0.0,0.0,0.0,0.0,0.0,0.0,0.0,0.0,0.0,0.0,0.0,0.0,0.0,0.0,0.0,0.0,0.0,0.0,0.0,0.0,0.0,0.0,0.0,0.0,0.0,0.0,0.0,0.0,0.0,0.0,0.0,0.0,0.0,0.0,0.0,0.0,0.0,0.0,0.0,0.0,0.0,0.0,0.0,0.0,0.0,0.0,0.0,0.0,0.0,0.0,1.0615,1.2338,1.2622,1.28,1.307,1.3078,1.2887,1.2512,1.2084,1.1315,0.0,0.0,0.0,0.0,0.0,0.0,0.0,0.0,0.0,0.0,0.0,0.0,0.0,0.0,0.0,0.0,0.0,0.0,0.0,0.0,0.0,0.0,0.0,0.0,0.0,0.0,0.0,0.0,0.0,0.0,0.0,0.0,0.0,0.0,0.0,0.0,0.0,0.0,0.0,0.0,0.0,0.0,1.7353,1.7166,0.0,0.0,0.0,1.773,1.7794,0.0,0.0,0.0,0.0,0.0,0.0,0.0,0.0,0.0,0.0,0.0,0.0,0.0,0.0,0.0,0.0,0.0,0.0,0.0,0.0,0.0,0.0,0.0,0.0,0.0,0.0,0.0,0.0,0.0,0.0,0.0,0.0,0.0,0.0,0.0,0.0,0.0,0.0,0.0,0.0,0.0,0.0,0.0,0.0,0.0,0.0,0.0,0.0,0.0,0.0,0.0,0.0,0.0,0.0,0.0,0.0,0.0,1.2372,1.2646,1.2757,1.2757,1.2757,1.2757,1.2749,1.2406,0.0,0.0,0.0,0.0,0.0,0.0,0.0,0.0,0.0,0.0,0.0,0.0,0.0,0.0,0.0,0.0,0.0,0.0,0.0,0.0,0.0,0.0,0.0,0.0,0.0,0.0,0.0,1.1693,0.0,0.0,0.0,0.0,0.0,0.0,0.0,0.0,0.0,0.0,0.0,0.0,0.0,0.0,1.7292,1.7636,1.7718,1.7755,0.0,0.0,1.7969,1.8067,1.8743,1.9045,0.0,0.0,0.0,0.0,0.0,0.0,0.0,0.0,0.0,0.0,0.0,0.0,0.0,0.0,0.0,0.0,0.0,0.0,0.0,0.0,0.0,0.0,0.0,0.0,0.0,0.0,0.0,0.0,0.0,0.0,0.0,0.0,0.0,0.0,0.0,0.0,0.0,0.0,0.0,0.0,0.0,0.0,0.0,0.0,0.0,0.0,0.0,0.0,0.0,0.0,0.0,0.0,0.0,0.0,0.0,1.2346,1.3067,1.3459,1.345,1.3442,1.3442,1.3433,1.2957,1.2265,0.0,0.0,0.0,0.0,0.0,0.0,0.0,0.0,0.0,0.0,0.0,0.0,0.0,0.0,0.0,0.0,0.0,0.0,0.0,0.0,0.0,0.0,0.0,0.0,0.0,0.0,0.0,0.0,0.0,0.0,0.0,0.0,0.0,0.0,0.0,0.0,0.0,0.0,0.0,0.0,0.0,1.7602,1.8168,1.8381,1.8535,0.0,0.0,1.8642,1.8642,1.9478,1.9716,1.8516,0.0,0.0,0.0,0.0,0.0,0.0,0.0,0.0,0.0,0.0,0.0,0.0,0.0,0.0,0.0,0.0,0.0,0.0,0.0,0.0,0.0,0.0,0.0,0.0,0.0,0.0,0.0,0.0,0.0,0.0,0.0,0.0,0.0,0.0,0.0,0.0,0.0,0.0,0.0,0.0,0.0,0.0,0.0,0.0,0.0,0.0,0.0,0.0,0.0,0.0,0.0,0.0,0.0,1.1242,1.2732,1.3733,1.4238,1.423,1.423,1.423,1.423,1.3862,1.3288,0.0,0.0,0.0,0.0,0.0,0.0,0.0,0.0,0.0,0.0,0.0,0.0,0.0,0.0,0.0,0.0,0.0,0.0,0.0,0.0,0.0,0.0,0.0,0.0,0.0,0.0,0.0,0.0,1.3855,1.3881,1.3791,0.0,0.0,0.0,0.0,0.0,0.0,0.0,0.0,0.0,0.0,1.8571,1.8913,1.9369,0.0,0.0,1.9907,1.9831,1.9567,2.0213,2.0428,1.939,1.8636,0.0,0.0,0.0,0.0,0.0,0.0,0.0,0.0,0.0,0.0,0.0,0.0,0.0,0.0,0.0,0.0,0.0,0.0,0.0,0.0,0.0,0.0,0.0,0.0,0.0,0.0,0.0,0.0,0.0,0.0,0.0,0.0,0.0,0.0,0.0,0.0,0.0,0.0,0.0,0.0,0.0,0.0,0.0,0.0,0.0,0.0,0.0,0.0,0.0,0.0,0.0,0.0,1.1584,1.2963,1.4101,1.4684,1.4684,1.4684,1.4684,1.4675,1.4418,1.4093,0.0,0.0,0.0,0.0,0.0,0.0,0.0,0.0,0.0,0.0,0.0,0.0,0.0,0.0,0.0,0.0,0.0,0.0,0.0,0.0,0.0,0.0,0.0,0.0,0.0,0.0,0.0,0.0,1.4422,1.4312,1.4072,0.0,0.0,0.0,0.0,0.0,0.0,0.0,0.0,0.0,0.0,1.9491,1.9678,2.0152,2.048,2.0438,2.0317,2.0104,1.9778,2.0108,2.0273,1.9909,0.0,0.0,0.0,0.0,0.0,0.0,0.0,0.0,0.0,0.0,0.0,0.0,0.0,0.0,0.0,0.0,0.0,0.0,0.0,0.0,0.0,0.0,0.0,0.0,0.0,0.0,0.0,0.0,0.0,0.0,0.5354,0.0,0.0,0.0,0.0,0.0,0.0,0.0,0.0,0.0,0.0,0.0,0.0,0.0,0.0,0.0,0.0,0.0,0.0,0.0,0.0,0.0,0.0,1.1833,1.298,1.4136,1.4701,1.4701,1.4692,1.4709,1.4709,1.4684,1.4495,1.4093,0.0,0.0,0.0,0.0,0.0,0.0,0.0,0.0,0.0,0.0,0.0,0.0,0.0,0.0,0.0,0.0,0.0,0.0,0.0,0.0,0.0,0.0,0.0,0.0,0.0,0.0,1.4547,1.4351,1.4098,0.0,0.0,0.0,0.0,0.0,0.0,0.0,0.0,0.0,0.0,1.9686,2.0226,2.0342,2.0525,2.0468,1.9978,1.9485,1.9147,1.9198,1.903,1.9081,0.0,0.0,0.0,0.0,0.0,0.0,0.0,0.0,0.0,0.0,0.0,0.0,0.0,0.0,0.0,0.0,0.0,0.0,0.0,0.0,0.0,0.0,0.0,0.0,0.0,0.0,0.0,0.5478,0.5355,0.0,0.0,0.0,0.0,0.0,0.0,0.0,0.0,0.0,0.0,0.0,1.1612,1.1429,0.0,0.0,0.0,0.0,0.0,0.0,0.0,0.0,0.0,0.0,0.0,0.0,1.2209,1.3331,1.4718,1.5429,1.542,1.5429,1.5429,1.542,1.5429,1.5137,1.4504,0.0,0.0,0.0,0.0,0.0,0.0,0.0,0.0,0.0,0.0,0.0,0.0,0.0,0.0,0.0,0.0,0.0,0.0,0.0,0.0,0.0,0.0,0.0,0.0,0.0,1.5872,0.0,0.0,0.0,0.0,0.0,0.0,0.0,0.0,0.0,0.0,0.0,1.8832,1.9072,1.9351,1.9572,1.9737,1.9872,2.0317,0.0,0.0,0.0,0.0,0.0,0.0,0.0,0.0,0.0,0.0,0.0,0.0,0.0,0.0,1.8949,1.8041,1.8495,1.9104,1.9468,0.0,0.0,0.0,0.0,0.0,0.0,0.0,0.0,0.0,0.0,0.0,0.0,0.0,0.0,0.5866,0.0,0.5771,0.0,0.0,0.0,0.0,0.0,0.0,0.0,0.0,1.1265,1.2142,1.298,1.2865,1.293,0.0,1.2603,1.1728,0.0,0.0,0.0,0.0,0.0,0.0,0.0,0.0,1.2595,1.3716,1.5095,1.5805,1.5805,1.5805,1.5805,1.5805,1.5805,1.5574,1.5086,1.4333,1.3468,0.0,0.0,0.0,0.0,0.0,0.0,0.0,0.0,0.0,0.0,0.0,0.0,0.0,0.0,0.0,0.0,0.0,0.0,0.0,0.0,0.0,0.0,0.0,1.6867,0.0,0.0,0.0,0.0,0.0,0.0,0.0,0.0,0.0,1.8035,1.8916,1.9449,1.9449,1.9715,1.9689,1.9111,0.0,0.0,0.0,0.0,0.0,0.0,0.0,1.9823,2.0668,2.1732,2.2498,2.2621,2.2124,2.1782,2.2004,0.0,0.0,2.0683,2.0999,2.1603,2.1666,2.1515,2.1396,2.1435,2.1041,2.068,0.0,0.0,0.0,0.0,0.0,0.0,0.0,0.0,0.6152,0.6235,0.0,0.6502,0.0,0.0,0.0,0.0,0.0,0.932,0.0,0.0,1.2563,1.3517,1.3412,1.3865,1.4136,1.4127,1.3768,1.3571,1.3468,1.2169,0.0,0.0,0.0,0.0,0.0,0.0,1.298,1.411,1.5232,1.5805,1.5805,1.5805,1.5805,1.5805,1.5805,1.5797,1.5771,1.5095,1.4586,1.4345,1.295,0.0,0.0,0.0,0.0,0.0,0.0,0.0,0.0,0.0,0.0,0.0,0.0,0.0,0.0,0.0,0.0,0.0,0.0,0.0,0.0,1.7754,0.0,0.0,0.0,0.0,0.0,0.0,0.0,0.0,0.0,0.0,1.8622,1.9536,2.0074,2.0016,0.0,0.0,0.0,0.0,2.0104,1.857,1.7897,1.7754,1.8063,1.874,1.9841,2.1374,0.0,0.0,2.4131,2.3581,2.3268,2.3647,2.494,2.539,2.338,2.3351,2.3631,2.3759,2.3813,2.3847,2.3873,2.381,2.3741,0.3227,0.0,0.0,0.0,0.0,0.5253,0.5918,0.6476,0.6913,0.7116,0.7226,0.7191,0.0,0.0,0.0,0.0,0.0,0.0,1.1171,1.2289,1.3044,1.3811,1.4672,1.4823,1.5043,1.53,1.5197,1.534,1.5699,1.4906,1.3519,1.1627,0.0,0.0,0.0,0.0,1.3631,1.4512,1.536,1.5805,1.5805,1.5805,1.5805,1.5805,1.5805,1.5805,1.5805,1.5591,1.5443,1.5286,1.4911,0.0,0.0,0.0,0.0,0.0,0.0,0.0,0.0,0.0,0.0,0.0,0.0,0.0,0.0,0.0,0.0,0.0,0.0,0.0,1.8439,1.8948,1.8588,0.0,0.0,0.0,0.0,0.0,0.0,0.0,0.0,0.0,1.9372,1.946,1.9232,0.0,0.0,1.7939,1.8396,1.854,1.917,2.085,2.0338,0.0,0.0,2.1228,2.1201,2.2289,2.3736,2.4962,2.5614,2.5713,2.5773,2.5958,2.6784,2.7219,2.671,2.6632,2.6764,2.679,2.6572,2.6374,2.6343,2.5932,2.5516,0.3328,0.3394,0.3758,0.4149,0.457,0.5412,0.6164,0.6772,0.7466,0.7911,0.8104,0.8106,0.7962,0.7708,0.8062,0.0,0.0,0.0,1.1918,1.2736,1.3475,1.425,1.4935,1.5307,1.5574,1.5788,1.6008,1.6263,1.6603,1.6113,1.5345,1.4189,0.0,0.0,1.3195,1.3554,1.4127,1.4881,1.5687,1.614,1.614,1.6342,1.6421,1.6412,1.6421,1.6421,1.6421,1.6211,1.6258,1.6572,1.6296,1.5792,0.0,0.0,0.0,0.0,0.0,0.0,0.0,0.0,0.0,0.0,0.0,1.465,0.0,0.0,0.0,0.0,1.8439,1.9045,1.9572,1.96,0.0,0.0,0.0,0.0,0.0,0.0,0.0,1.6944,1.7784,1.8711,1.9742,1.9889,1.9711,1.9362,1.871,1.8423,1.8723,0.0,1.9908,2.1728,2.1518,2.172,2.3236,2.3406,2.372,2.486,2.5737,2.6443,2.6774,2.7283,2.7657,2.7858,2.8398,2.8894,2.9084,2.9168,2.8954,2.8425,2.8088,2.7899,2.7863,2.7508,2.7164,0.3445,0.3422,0.368,0.3988,0.4429,0.5497,0.6388,0.7095,0.7923,0.8544,0.891,0.9114,0.898,0.8663,0.9615,0.0,1.0233,1.1777,1.2401,1.226,1.3848,1.4641,1.4713,1.5443,1.5805,1.5797,1.6342,1.6603,1.6585,1.6251,1.6407,1.6921,1.5212,1.4471,1.455,1.4391,1.4603,1.5376,1.6216,1.6673,1.6682,1.7166,1.7373,1.7373,1.7442,1.7442,1.7442,1.7019,1.7148,1.7997,1.7327,1.7051,1.7419,0.0,0.0,0.0,0.0,0.0,0.0,0.0,0.0,0.0,0.0,0.0,0.0,0.0,0.0,0.0,1.9921,0.0,2.047,1.9936,0.0,0.0,0.0,1.7632,1.7148,1.7178,1.7689,1.8811,0.0,0.0,2.0085,2.0744,2.1218,2.132,2.1257,2.0772,1.9704,2.0857,2.1792,2.2117,2.224,2.2815,2.4156,2.5316,2.6545,2.781,2.8428,2.8139,2.7794,2.833,2.8921,2.9452,2.98,3.0229,3.0693,3.07,3.0441,2.9086,2.8822,2.883,2.884,2.8786,2.8793,0.3467,0.3462,0.3538,0.3855,0.4407,0.5825,0.6724,0.7227,0.8149,0.8783,0.913,0.9179,0.9249,0.9395,1.0096,1.0444,1.0688,1.1985,1.2704,1.2984,1.4083,1.4776,1.5062,1.5584,1.5805,1.5867,1.6333,1.6603,1.6603,1.6936,1.7368,1.7899,1.7101,1.6523,1.6271,1.5824,1.599,1.688,1.712,1.7235,1.7235,1.7304,1.7373,1.7373,1.7706,1.7833,1.7833,1.8017,1.8345,1.8967,1.9002,1.8892,1.8654,1.7418,0.0,0.0,0.0,0.0,0.0,0.0,0.0,0.0,0.0,1.514,1.5968,0.0,1.9459,0.0,2.1013,2.1552,2.1117,2.0978,0.0,0.0,1.9824,1.9894,2.0316,2.0755,2.1069,2.1069,2.1528,2.1975,2.2149,2.2337,2.2965,2.4253,2.2525,2.1427,2.2547,2.3062,2.3884,2.5258,2.5879,2.6389,2.672,2.735,2.7976,2.8362,2.8445,2.8365,2.8233,2.8853,2.9884,3.1466,3.116,3.0713,3.0754,3.0787,3.0754,3.0423,3.0414,3.0423,3.0441,3.0405,3.0405,0.3556,0.3558,0.3601,0.3841,0.4201,0.5847,0.669,0.7049,0.8509,0.9288,0.9523,0.9523,0.9745,1.0166,1.046,1.0831,1.126,1.215,1.2746,1.2952,1.4049,1.4713,1.4999,1.5505,1.5805,1.5805,1.6551,1.6811,1.6673,1.7442,1.8086,1.8547,1.7995,1.7956,1.8399,1.7451,1.7288,1.7981,1.8273,1.8484,1.8695,1.8765,1.8587,1.8269,1.8251,1.8001,1.7551,1.7448,1.7668,1.8173,1.8588,1.8884,1.8913,1.8244,1.7178,0.0,0.0,0.0,0.0,0.0,0.0,0.0,0.0,0.0,0.0,0.0,2.0935,2.0993,2.1983,2.2339,2.1766,2.1724,2.165,2.1608,2.164,2.1985,2.2686,2.315,2.3331,2.3126,2.3447,2.3725,2.3743,2.4209,2.4902,2.5914,2.5032,2.4416,2.4859,2.5065,2.5694,2.7273,2.7806,2.8288,2.8813,2.9156,2.9397,2.9538,2.9616,2.9534,2.9385,3.011,3.1215,3.2501,3.2222,3.1678,3.1709,3.1769,3.181,3.1946,3.1986,3.1771,3.1148,3.1003,3.1003,0.3569,0.365,0.373,0.3841,0.3906,0.5731,0.6569,0.6849,0.8798,0.9733,0.9922,0.9922,1.0218,1.0669,1.0812,1.1111,1.1632,1.2305,1.2599,1.2673,1.3985,1.4569,1.4641,1.5434,1.5797,1.5938,1.7014,1.7241,1.6824,1.7988,1.8695,1.8983,1.8621,1.912,2.0401,1.9179,1.8639,1.9029,1.9426,1.9848,2.0338,2.0224,1.9858,1.9288,1.8817,1.8086,1.7127,1.6654,1.6613,1.7033,1.7586,1.8217,1.8931,1.8629,1.8172,0.0,1.7315,0.0,0.0,0.0,0.0,0.0,0.0,0.0,0.0,2.1611,2.2197,2.2267,2.2867,2.2999,2.2513,2.2423,2.2634,2.3154,2.3307,2.3674,2.4333,2.4647,2.484,2.4997,2.5081,2.5165,2.5326,2.6188,2.6808,2.7016,2.7592,2.7705,2.7067,2.6878,2.7334,2.8419,2.8726,2.9219,3.0079,3.0402,3.0551,3.0914,3.0982,3.1028,3.0664,3.1498,3.2385,3.2802,3.2844,3.2844,3.2979,3.2943,3.3006,3.3075,3.3087,3.2751,3.1753,3.1455,3.1292,0.3115,0.374,0.3754,0.3841,0.3992,0.594,0.6768,0.6946,0.8934,0.9884,0.9922,0.9922,0.9997,1.0143,1.0594,1.0887,1.1031,1.2077,1.2599,1.268,1.3985,1.4569,1.4641,1.5443,1.6,1.6491,1.7483,1.7925,1.7854,1.9273,1.9859,1.9511,1.9788,2.0309,2.0948,0.0,0.0,0.0,1.9858,1.9882,2.008,1.9291,1.8952,1.8956,1.8384,0.0,1.7972,1.81,1.8104,1.7907,1.8748,0.0,0.0,0.0,0.0,0.0,0.0,0.0,0.0,0.0,0.0,0.0,2.156,2.1633,2.1038,2.2141,2.3091,2.3645,2.38,2.3878,2.3766,2.3766,2.3794,2.3906,2.3935,2.4225,2.4921,2.5189,2.5654,2.668,2.6891,2.7126,2.7488,2.7834,2.8136,2.8498,2.8794,2.9041,2.9239,2.8844,2.8907,2.9702,2.995,3.0126,3.0384,3.0509,3.0784,3.0965,3.1083,3.1257,3.1515,3.1986,3.2456,3.2923,3.2916,3.2952,3.2952,3.2916,3.3055,3.3078,3.3096,3.3032,3.2936,3.294,3.294,0.2979,0.0,0.3841,0.3841,0.0,0.5922,0.6839,0.6919,0.8993,1.0067,1.0368,1.0368,1.0513,1.0818,1.1111,1.1409,1.1706,1.2298,1.2753,1.3119,1.4137,1.4569,1.4649,1.5897,1.6697,1.6981,1.8223,1.8711,1.8505,1.9798,2.0247,1.9959,2.0471,2.1,2.1435,2.1455,2.1342,2.1104,2.0886,2.0845,2.0907,2.06,2.0345,2.009,1.9704,0.0,0.0,0.0,0.0,0.0,0.0,0.0,0.0,0.0,0.0,1.9444,2.0209,2.0913,2.1488,2.2396,2.3146,2.3654,2.41,2.3928,2.3056,2.3904,2.4615,2.4938,2.4966,2.4966,2.4966,2.4966,2.4966,2.4966,2.5019,2.5265,2.5639,2.6035,2.6616,2.7157,2.765,2.7997,2.824,2.8543,2.8936,2.9501,2.9828,3.0202,3.072,3.01,2.979,3.0549,3.1134,3.1402,3.1457,3.1715,3.2017,3.2423,3.2737,3.2921,3.3055,3.344,3.3878,3.4276,3.422,3.4026,3.4026,3.4044,3.4077,3.416,3.4193,3.4225,3.4362,3.3815,3.3274,0.2779,0.3572,0.373,0.3803,0.3942,0.596,0.7022,0.7456,0.0,0.0,0.0,1.0812,1.1111,1.1706,1.1855,1.215,1.2599,1.2813,1.3119,1.3637,1.4423,1.4808,1.4897,1.6613,1.7461,1.7614,1.9025,1.9531,1.9228,2.0183,2.0636,2.0612,2.1015,2.1424,2.1776,2.1807,2.1807,2.1807,2.1725,2.1759,2.1824,2.1966,2.1814,2.1333,2.1017,2.047,1.9587,1.9602,1.9445,1.908,1.9749,2.0132,2.0132,2.0393,2.033,1.9872,2.136,2.2612,2.3294,2.4254,2.5131,2.5865,2.5893,2.5683,2.5177,2.5598,2.5893,2.5893,2.5893,2.5893,2.5893,2.5893,2.5893,2.5893,2.6002,2.6042,2.6204,2.6759,2.7181,2.7464,2.8069,2.8585,2.8776,2.9234,2.9737,3.0323,3.0796,3.1299,3.1704,3.1024,3.0599,3.1193,3.1785,3.2331,3.2529,3.2844,3.3505,3.383,3.4324,3.4711,3.48,3.5009,3.5398,3.5735,3.5558,3.5186,3.5168,3.5096,3.5256,3.5359,3.5359,3.5375,3.5334,3.4419,3.3593,0.1995,0.2827,0.3662,0.3952,0.404,0.6105,0.7914,0.9458,0.9771,1.0218,1.0812,1.0812,1.1111,1.1706,1.2224,1.2526,1.2673,1.3477,1.3912,1.408,1.5105,1.5618,1.5716,1.7098,1.8101,1.8561,1.9619,2.043,2.0767,2.1329,2.1576,2.1618,2.1638,2.1735,2.1797,2.1807,2.1807,2.1797,2.1424,2.1429,2.1932,2.1231,2.1032,2.133,2.0646,2.0166,2.0125,2.0125,1.9947,1.9631,2.0946,2.1711,2.1699,2.2055,2.288,2.4027,2.404,2.4426,2.5354,2.5656,2.5741,2.5879,2.5893,2.5851,2.5781,2.5851,2.5893,2.5893,2.5893,2.5893,2.5893,2.5893,2.5893,2.5893,2.5893,2.6056,2.6447,2.6698,2.7233,2.797,2.871,2.9557,3.0164,3.0736,3.1246,3.1613,3.182,3.1947,3.2124,3.1943,3.1892,3.188,3.2071,3.2367,3.2755,3.2911,3.3566,3.415,3.4611,3.51,3.5668,3.5543,3.5595,3.5932,3.5684,3.5382,3.5311,3.5204,3.5346,3.5452,3.547,3.5398,3.5486,3.513,3.4932,0.21,0.336,0.3781,0.4014,0.4138,0.6247,0.8306,1.0231,1.0309,1.0693,1.1273,1.126,1.1632,1.2224,1.282,1.2893,1.268,1.3807,1.4332,1.4436,1.5575,1.6263,1.6745,1.8013,1.9033,1.9584,2.0587,2.1261,2.1507,2.1714,2.1807,2.1807,2.1807,2.1807,2.1807,2.1807,2.1807,2.1797,2.16,2.1711,2.2221,2.2031,2.2149,2.2585,2.2343,2.2332,2.2388,2.2388,2.2285,2.2145,2.2827,2.3263,2.3251,2.3725,2.4126,2.4318,2.4872,2.5374,2.5853,2.5893,2.5893,2.5893,2.5893,2.5893,2.5893,2.5893,2.5893,2.5893,2.5893,2.5893,2.5893,2.5893,2.5893,2.5893,2.6096,2.644,2.6996,2.7638,2.8306,2.9129,3.0021,3.0733,3.1102,3.1534,3.1951,3.2289,3.2594,3.3064,3.3453,3.3565,3.3272,3.2804,3.319,3.3703,3.3872,3.4425,3.4924,3.5353,3.5805,3.6213,3.6666,3.6506,3.6595,3.6791,3.6649,3.6524,3.647,3.6506,3.6506,3.6506,3.6506,3.6506,3.6506,3.6506,3.6467,0.2301,0.3755,0.401,0.4335,0.4898,0.6605,0.8651,1.0557,1.0552,1.105,1.1847,1.1827,1.2175,1.2924,1.3381,1.3417,1.3347,1.4328,1.4901,1.5083,1.6084,1.6936,1.7654,1.887,1.9831,2.0486,2.1339,2.1807,2.1807,2.1807,2.1807,2.1807,2.1807,2.1883,2.2014,2.2101,2.2101,2.2176,2.2176,2.2327,2.2553,2.2927,2.3372,2.3886,2.4227,2.4467,2.4539,2.4611,2.4622,2.4599,2.4718,2.486,2.4961,2.5378,2.529,2.4836,2.5633,2.6153,2.6105,2.5964,2.5893,2.5893,2.5893,2.5893,2.5907,2.602,2.6034,2.5921,2.5988,2.6056,2.6125,2.6321,2.6418,2.6432,2.6924,2.7535,2.8106,2.8921,2.9684,3.0392,3.12,3.1772,3.1886,3.2144,3.2579,3.3095,3.3561,3.4216,3.4792,3.4871,3.4444,3.4037,3.4409,3.4925,3.5118,3.5654,3.6113,3.6343,3.6781,3.7041,3.7208,3.7394,3.7522,3.7487,3.7559,3.7434,3.7541,3.7523,3.747,3.7416,3.7398,3.7487,3.7434,3.7613,3.7629,0.2045,0.3029,0.3911,0.5444,0.7123,0.7492,0.8837,1.0486,1.0562,1.133,1.2346,1.219,1.2705,1.378,1.3938,1.4229,1.4781,1.538,1.5779,1.6193,1.6995,1.7717,1.8362,1.9425,2.0246,2.0874,2.1471,2.1807,2.1807,2.1807,2.1807,2.1807,2.1807,2.2166,2.2777,2.2852,2.3075,2.3446,2.3446,2.3298,2.3001,2.3298,2.3948,2.4874,2.4945,2.5146,2.5652,2.5721,2.5721,2.5791,2.6171,2.6625,2.6886,2.6935,2.7229,2.7653,2.7382,2.702,2.6708,2.6202,2.595,2.5893,2.5964,2.5964,2.6046,2.6427,2.6483,2.6214,2.6286,2.6504,2.65,2.738,2.7915,2.7959,2.8664,2.9485,2.9863,3.0228,3.0616,3.1045,3.1823,3.2323,3.2606,3.309,3.3709,3.4251,3.4366,3.4676,3.5171,3.5198,3.5161,3.5015,3.5161,3.5299,3.5588,3.5898,3.6259,3.6585,3.6829,3.7066,3.722,3.7334,3.7354,3.7577,3.7577,3.7577,3.7577,3.7577,3.7577,3.7631,3.7631,3.7631,3.7649,3.7949,3.8077,0.2326,0.376,0.4119,0.5596,0.7534,0.7912,0.9172,1.0974,1.0974,1.1638,1.2632,1.2586,1.3173,1.4282,1.4267,1.4572,1.5157,1.574,1.6452,1.7175,1.8013,1.8906,1.9841,2.0294,2.0857,2.1415,2.1721,2.1807,2.1873,2.2262,2.2478,2.2467,2.2553,2.2916,2.3559,2.3327,2.3401,2.4082,2.4432,2.4492,2.4348,2.4143,2.4576,2.5429,2.5511,2.5652,2.5861,2.5931,2.5931,2.5931,2.662,2.7027,2.7229,2.7929,2.831,2.8215,2.7801,2.7519,2.7411,2.713,2.7017,2.7003,2.7017,2.7117,2.7384,2.7683,2.7795,2.7885,2.7758,2.7758,2.8086,2.8645,2.9009,2.9131,2.9697,3.0422,3.0994,3.1353,3.1817,3.2361,3.2831,3.316,3.3345,3.3705,3.4218,3.4675,3.4802,3.5058,3.5648,3.5667,3.565,3.581,3.5854,3.581,3.5871,3.6028,3.6259,3.6485,3.6771,3.7066,3.7105,3.7354,3.7521,3.7594,3.7594,3.7577,3.7577,3.7577,3.7577,3.7631,3.7757,3.7845,3.7863,3.8153,3.8249,0.2506,0.4208,0.4652,0.6236,0.8257,0.8528,0.9676,1.1176,1.1267,1.1929,1.3016,1.3003,1.3641,1.4663,1.4648,1.487,1.5456,1.623,1.7058,1.7944,1.8858,1.9844,2.0867,2.0944,2.1252,2.1731,2.1807,2.1959,2.2176,2.2703,2.3075,2.3287,2.3276,2.3706,2.4397,2.4024,2.4241,2.4909,2.5405,2.5615,2.5627,2.5276,2.5346,2.607,2.6139,2.6208,2.6346,2.6346,2.6414,2.6552,2.7108,2.751,2.7762,2.8638,2.8969,2.8588,2.8246,2.8029,2.8029,2.7874,2.7776,2.7776,2.7879,2.8111,2.8469,2.8755,2.9181,2.9625,2.9566,2.9581,2.9347,2.99,3.019,3.0259,3.0944,3.1679,3.2134,3.2554,3.2981,3.3459,3.3598,3.3848,3.4,3.4333,3.4723,3.5055,3.5115,3.5321,3.6034,3.6059,3.6028,3.6259,3.6301,3.6216,3.6002,3.6131,3.6284,3.6343,3.6609,3.6771,3.6908,3.722,3.7484,3.741,3.7521,3.7594,3.7577,3.7577,3.7577,3.7649,3.7774,3.7984,3.7949,3.8252,3.841,0.2506,0.4387,0.5711,0.7467,0.9492,0.9676,1.0386,1.1267,1.1267,1.2106,1.3275,1.336,1.4119,1.5321,1.5124,1.5331,1.607,1.7066,1.7874,1.8435,1.9413,2.0226,2.0867,2.0944,2.1252,2.1807,2.1883,2.2252,2.2927,2.3075,2.3361,2.4047,2.4047,2.4552,2.5346,2.5405,2.5709,2.6208,2.6346,2.6414,2.6577,2.6577,2.6564,2.6645,2.6645,2.6918,2.7323,2.7403,2.7536,2.7947,2.8,2.8327,2.8894,2.9035,2.9261,2.9414,2.8984,2.8647,2.8591,2.8183,2.7933,2.7963,2.8383,2.8554,2.8869,2.9562,3.0376,3.1036,3.1525,3.1293,3.0303,3.099,3.1653,3.1753,3.2756,3.3383,3.3531,3.3687,3.3986,3.405,3.405,3.43,3.4594,3.4944,3.5241,3.5515,3.5694,3.5861,3.6114,3.6268,3.6259,3.6259,3.6284,3.6284,3.6259,3.6259,3.6284,3.6343,3.6444,3.6485,3.6667,3.6886,3.7122,3.7297,3.7484,3.7577,3.7577,3.7577,3.7577,3.7685,3.7845,3.7984,3.8086,3.8496,3.8646,0.3576,0.5536,0.6688,0.8093,0.9579,0.985,1.0472,1.1267,1.1267,1.2118,1.3228,1.3398,1.4328,1.5839,1.609,1.6343,1.6566,1.7619,1.8487,1.9353,2.0148,2.0857,2.1415,2.1492,2.1568,2.1807,2.2327,2.2979,2.3694,2.4215,2.4587,2.4862,2.4981,2.5487,2.6139,2.6057,2.6264,2.6905,2.7053,2.7121,2.7188,2.7188,2.7188,2.7188,2.7201,2.7323,2.7469,2.7469,2.7669,2.8079,2.8341,2.8587,2.9035,2.9289,2.9477,2.9588,2.9406,2.9279,2.9251,2.9069,2.9124,2.9411,2.9531,3.0002,3.0678,3.1196,3.1683,3.2346,3.2701,3.2522,3.2335,3.251,3.2756,3.284,3.3328,3.3761,3.3899,3.405,3.4101,3.4151,3.43,3.4723,3.5224,3.5498,3.5739,3.6002,3.6088,3.6131,3.6233,3.6301,3.6284,3.6284,3.6284,3.6284,3.6284,3.6284,3.6284,3.6343,3.6444,3.6667,3.6846,3.7005,3.722,3.7372,3.7521,3.7577,3.7577,3.7577,3.7577,3.7667,3.7828,3.8002,3.8238,3.8528,3.8773,0.4823,0.6681,0.757,0.8798,1.0111,1.0549,1.1073,1.1688,1.186,1.2625,1.3646,1.3893,1.4741,1.6079,1.7033,1.735,1.7375,1.8399,1.9344,2.0051,2.0857,2.1415,2.1807,2.2035,2.2176,2.2327,2.2979,2.3694,2.4492,2.5004,2.5453,2.5721,2.5861,2.6289,2.6769,2.662,2.6769,2.7255,2.7469,2.7469,2.7469,2.7469,2.7536,2.7669,2.7669,2.7683,2.7669,2.7789,2.8,2.8406,2.8651,2.8908,2.9226,2.9477,2.9602,2.9602,2.9602,2.9602,2.9602,2.9602,2.9775,3.0266,3.0524,3.1116,3.2018,3.2296,3.2765,3.3224,3.3346,3.3309,3.3414,3.3346,3.3346,3.345,3.3642,3.3899,3.4034,3.4101,3.4134,3.4333,3.4754,3.527,3.5677,3.5854,3.6045,3.6259,3.6259,3.6301,3.6259,3.6301,3.6284,3.6284,3.6284,3.6284,3.6284,3.6284,3.6284,3.6343,3.636,3.6626,3.6869,3.7066,3.7259,3.741,3.7521,3.7577,3.7577,3.7577,3.7631,3.7631,3.7721,3.7898,3.8186,3.8496,3.8725,0.6334,0.7727,0.8619,0.9767,1.117,1.1854,1.2277,1.2363,1.2966,1.3561,1.423,1.481,1.5401,1.6319,1.761,1.8256,1.8567,1.958,2.0207,2.0362,2.1242,2.1731,2.1807,2.2553,2.299,2.3213,2.3768,2.4564,2.53,2.5453,2.5873,2.6508,2.6645,2.685,2.7281,2.7201,2.7323,2.7456,2.7469,2.7469,2.7536,2.7536,2.7736,2.8013,2.8079,2.8145,2.8131,2.8406,2.8651,2.8986,2.9035,2.9226,2.9477,2.9602,2.9602,2.9602,2.9602,2.9602,2.9602,2.9665,2.9898,3.0372,3.0984,3.1607,3.2185,3.2819,3.3346,3.3591,3.3503,3.345,3.3591,3.3503,3.345,3.3658,3.3864,3.4,3.4101,3.4084,3.4234,3.4691,3.5224,3.5739,3.5871,3.6088,3.6233,3.6233,3.6276,3.6259,3.6233,3.6276,3.6284,3.6284,3.6284,3.6284,3.6284,3.6284,3.6284,3.6284,3.6301,3.6444,3.6609,3.6811,3.7105,3.7259,3.7521,3.7594,3.7577,3.7577,3.7577,3.7613,3.7721,3.7863,3.8186,3.851,3.8725,0.7054,0.7994,0.9419,1.0477,1.1348,1.2112,1.2357,1.2443,1.3137,1.3808,1.4391,1.4887,1.5643,1.6722,1.8238,1.9107,1.9511,2.0692,2.1088,2.0924,2.1492,2.1807,2.1959,2.2628,2.3644,2.4636,2.5122,2.5697,2.6302,2.6452,2.6658,2.6875,2.7066,2.7201,2.7268,2.7403,2.7469,2.7469,2.7469,2.7469,2.7523,2.7802,2.7947,2.8145,2.8522,2.878,2.878,2.8651,2.878,2.9113,2.9113,2.9226,2.954,2.9602,2.9602,2.9602,2.9602,2.9602,2.9665,2.9898,3.0251,3.0777,3.145,3.2201,3.2834,3.333,3.3694,3.3899,3.3899,3.3899,3.3949,3.3899,3.3797,3.371,3.3797,3.3965,3.4151,3.4333,3.4675,3.4991,3.5498,3.5854,3.6071,3.6259,3.6301,3.6259,3.6301,3.6301,3.6259,3.6259,3.6301,3.6284,3.6284,3.6284,3.6284,3.6284,3.6284,3.6284,3.6301,3.6343,3.6485,3.6731,3.697,3.7203,3.7447,3.7558,3.7577,3.7577,3.7577,3.7685,3.7792,3.8018,3.8318,3.8572,3.8785,0.7492,0.8352,0.9941,1.1079,1.1774,1.2448,1.296,1.3215,1.3808,1.4482,1.5068,1.5477,1.6296,1.7448,1.8877,1.9737,2.0372,2.1328,2.1797,2.1711,2.2014,2.2101,2.2035,2.2979,2.442,2.5849,2.6208,2.6496,2.6943,2.7024,2.7024,2.7146,2.7281,2.7335,2.7403,2.7469,2.7469,2.7536,2.7656,2.7736,2.7802,2.8079,2.8341,2.8522,2.8908,2.9162,2.9226,2.9099,2.9035,2.9226,2.9289,2.9415,2.9602,2.9727,2.9851,2.9913,3.0021,3.0144,3.0144,3.0433,3.0837,3.1364,3.1977,3.2586,3.3277,3.3694,3.3949,3.405,3.4,3.3984,3.405,3.4,3.3899,3.3899,3.3848,3.4,3.43,3.4675,3.5055,3.5407,3.5783,3.6045,3.6199,3.6284,3.6284,3.6284,3.6284,3.6284,3.6284,3.6284,3.6284,3.6284,3.6284,3.6284,3.6284,3.6284,3.6284,3.6284,3.6284,3.6343,3.6426,3.6771,3.7048,3.7317,3.7558,3.7594,3.7577,3.7577,3.7613,3.7721,3.7845,3.8086,3.8368,3.8621,3.8833,0.7918,0.9061,1.0202,1.1332,1.2363,1.3052,1.3639,1.4398,1.5006,1.5506,1.6004,1.6484,1.7212,1.8327,1.9432,2.0372,2.1011,2.1645,2.2392,2.2841,2.3139,2.2979,2.267,2.3829,2.5346,2.6726,2.6943,2.7011,2.7079,2.7079,2.7134,2.7268,2.7335,2.7335,2.7456,2.7469,2.7536,2.7603,2.7947,2.8145,2.821,2.8587,2.8894,2.9212,2.9212,2.9401,2.9602,2.954,2.954,2.9602,2.954,2.9602,2.9713,3.0068,3.0266,3.0312,3.0777,3.0896,3.0955,3.1131,3.1422,3.2018,3.2477,3.2926,3.3591,3.3899,3.405,3.4101,3.3899,3.3848,3.4,3.3949,3.3899,3.4101,3.4151,3.43,3.4643,3.5008,3.5362,3.5722,3.6071,3.6284,3.6301,3.6284,3.6284,3.6284,3.6284,3.6284,3.6284,3.6284,3.6284,3.6284,3.6284,3.6284,3.6284,3.6284,3.6284,3.6284,3.6284,3.6385,3.6509,3.6851,3.7126,3.741,3.7594,3.7577,3.7577,3.7577,3.7649,3.7739,3.7915,3.8138,3.8401,3.8683,3.8892,0.8803,0.9497,1.0641,1.1596,1.2448,1.3137,1.3808,1.4482,1.5166,1.5756,1.6252,1.7057,1.7772,1.8416,1.9913,2.0991,2.1756,2.2381,2.3054,2.3841,2.4636,2.4779,2.4684,2.511,2.6045,2.7134,2.7268,2.739,2.7335,2.7335,2.7403,2.7456,2.7403,2.7469,2.7469,2.7536,2.7683,2.7934,2.8365,2.8739,2.9058,2.9608,3.004,3.0115,3.0007,3.0007,3.0068,2.9789,2.9602,2.9602,2.9602,2.9789,3.0083,3.0251,3.0493,3.0851,3.1116,3.1334,3.1435,3.1849,3.2256,3.2461,3.3033,3.3487,3.3658,3.3965,3.405,3.4101,3.405,3.4066,3.4101,3.405,3.4201,3.4464,3.4546,3.4643,3.4818,3.5224,3.5677,3.581,3.6114,3.6241,3.6284,3.6284,3.6284,3.6284,3.6284,3.6284,3.6284,3.6284,3.6284,3.6284,3.6284,3.6284,3.6284,3.6284,3.6284,3.6284,3.6343,3.6444,3.665,3.6987,3.7259,3.7558,3.7594,3.7577,3.7577,3.7577,3.7685,3.7774,3.8052,3.8336,3.8603,3.8892,3.9007,0.9506,1.0111,1.0911,1.186,1.279,1.3222,1.3984,1.4908,1.5726,1.6312,1.6968,1.7925,1.8718,1.9441,2.0469,2.1461,2.236,2.283,2.3559,2.4707,2.5569,2.6057,2.6195,2.6114,2.6471,2.7323,2.7469,2.7469,2.7469,2.7469,2.7469,2.7469,2.7469,2.759,2.7736,2.7749,2.7934,2.8314,2.8881,2.9296,2.9546,3.0283,3.0658,3.0718,3.0613,3.0613,3.0553,3.0312,3.0021,2.9789,2.9789,3.0021,3.0312,3.0673,3.097,3.1321,3.1766,3.2033,3.2104,3.2617,3.2942,3.3102,3.3539,3.3694,3.3848,3.4,3.4101,3.4101,3.425,3.4349,3.4399,3.448,3.4675,3.4883,3.5055,3.5148,3.5148,3.5543,3.581,3.5985,3.6174,3.6284,3.6284,3.6284,3.6284,3.6284,3.6284,3.6284,3.6284,3.6284,3.6284,3.6284,3.6284,3.6284,3.6284,3.6284,3.6343,3.6343,3.655,3.6609,3.6811,3.7105,3.7334,3.7521,3.7594,3.7577,3.7577,3.7613,3.7721,3.788,3.8219,3.8478,3.8743,3.8979,3.9073,1.0193,1.0809,1.1343,1.2283,1.3392,1.3646,1.4475,1.565,1.669,1.7423,1.7997,1.9018,2.0041,2.1011,2.1375,2.2069,2.3287,2.3434,2.4299,2.537,2.6358,2.685,2.7053,2.6552,2.6756,2.739,2.7469,2.7469,2.7469,2.7469,2.7469,2.7536,2.7536,2.7736,2.8,2.821,2.8392,2.8881,2.9608,3.004,3.0283,3.0881,3.1248,3.1248,3.1146,3.1029,3.097,3.0896,3.0658,2.9837,3.0205,3.0433,3.0613,3.1364,3.1781,3.2023,3.2539,3.2935,3.3005,3.3187,3.345,3.3642,3.3694,3.3848,3.4,3.4101,3.4101,3.4101,3.4448,3.4643,3.4771,3.5038,3.5224,3.5316,3.5605,3.5827,3.5871,3.5871,3.5958,3.6216,3.6301,3.6284,3.6284,3.6284,3.6284,3.6284,3.6284,3.6284,3.6284,3.6284,3.6284,3.6284,3.6284,3.6284,3.6284,3.6284,3.6343,3.6402,3.6713,3.6891,3.6992,3.7203,3.741,3.7521,3.7577,3.7577,3.7577,3.7649,3.7757,3.7984,3.8285,3.8559,3.8773,3.896,3.9101,1.1585,1.21,1.2711,1.3392,1.423,1.488,1.5696,1.6683,1.7649,1.8452,1.9177,2.0324,2.1247,2.1886,2.2776,2.3975,2.4659,2.4802,2.5523,2.6521,2.6918,2.7255,2.739,2.7108,2.7255,2.7536,2.7536,2.7536,2.7536,2.7656,2.7536,2.759,2.7987,2.8013,2.821,2.8817,2.9184,2.9608,3.0421,3.0925,3.1248,3.1694,3.2007,3.1992,3.1724,3.1394,3.1131,3.1218,3.1203,3.1043,3.0999,3.119,3.1564,3.1864,3.2272,3.278,3.3224,3.3503,3.3555,3.371,3.3949,3.3949,3.3949,3.405,3.405,3.4101,3.4101,3.4134,3.4431,3.4818,3.5131,3.5453,3.5633,3.5722,3.5941,3.6174,3.6216,3.6156,3.6199,3.6241,3.6284,3.6284,3.6284,3.6284,3.6284,3.6284,3.6284,3.6284,3.6284,3.6284,3.6284,3.6284,3.6284,3.6284,3.6301,3.6343,3.6444,3.6568,3.6851,3.7013,3.7111,3.7299,3.7466,3.7558,3.7577,3.7577,3.7577,3.7613,3.7721,3.8052,3.8382,3.8603,3.8844,3.9017,3.9165,1.2192,1.2534,1.3535,1.4126,1.4552,1.5779,1.6593,1.7317,1.8903,1.9856,2.0546,2.191,2.2754,2.2999,2.3891,2.4636,2.5441,2.5943,2.644,2.7066,2.7268,2.7335,2.759,2.7709,2.7842,2.7855,2.8039,2.8105,2.83,2.8468,2.8698,2.8583,2.8853,2.898,2.9008,2.956,2.987,3.0176,3.0925,3.1537,3.1724,3.2176,3.2398,3.2398,3.2176,3.1951,3.1966,3.2007,3.216,3.2201,3.2145,3.2089,3.2312,3.2547,3.2888,3.3224,3.3539,3.3694,3.3745,3.3949,3.4101,3.4101,3.4101,3.4101,3.4101,3.4101,3.4201,3.4399,3.4723,3.5131,3.5616,3.5854,3.6002,3.6045,3.6156,3.6284,3.6284,3.6284,3.6284,3.6284,3.6284,3.6284,3.6284,3.6284,3.6284,3.6284,3.6284,3.6284,3.6284,3.6284,3.6284,3.6284,3.6284,3.6284,3.6343,3.6402,3.6544,3.6708,3.6948,3.7034,3.7061,3.7321,3.7577,3.7577,3.7577,3.7577,3.7613,3.7649,3.7757,3.8153,3.8446,3.8695,3.8913,3.9082,3.9245,1.2619,1.2869,1.435,1.4859,1.5054,1.6675,1.7479,1.7874,2.0227,2.14,2.1931,2.3514,2.4181,2.4337,2.4684,2.5193,2.6032,2.6756,2.739,2.7776,2.7643,2.7723,2.7842,2.8157,2.8417,2.8314,2.8739,2.8994,2.931,2.967,2.9642,2.9766,2.9964,2.9903,2.9979,3.0404,3.0644,3.0718,3.1422,3.1838,3.1894,3.2231,3.2398,3.2523,3.2468,3.2594,3.2718,3.2866,3.3027,3.3346,3.3398,3.3208,3.3033,3.3118,3.3414,3.3398,3.3694,3.3797,3.3848,3.3949,3.4101,3.4101,3.4101,3.4101,3.4101,3.4201,3.4399,3.4691,3.5055,3.5543,3.6216,3.6241,3.6241,3.6284,3.6284,3.6284,3.6284,3.6284,3.6284,3.6284,3.6284,3.6284,3.6284,3.6284,3.6284,3.6284,3.6284,3.6284,3.6284,3.6284,3.6284,3.6284,3.6284,3.6402,3.6461,3.6591,3.6748,3.6908,3.7122,3.7167,3.7137,3.7358,3.7577,3.7577,3.7577,3.7577,3.7577,3.7613,3.7845,3.8252,3.8478,3.8615,3.8865,3.9173,3.9331,1.3555,1.4223,1.5703,1.6363,1.6609,1.8381,1.9256,1.9728,2.1562,2.251,2.2968,2.436,2.5087,2.53,2.6,2.6744,2.7404,2.7829,2.8287,2.8661,2.8468,2.8352,2.8403,2.8776,2.898,2.917,2.9532,2.9842,2.9842,2.995,3.0254,3.0133,3.0375,3.0464,3.0644,3.1073,3.1437,3.1364,3.1894,3.2176,3.2231,3.2342,3.2563,3.2757,3.2827,3.2989,3.3134,3.3256,3.3346,3.3607,3.3848,3.3899,3.3781,3.3694,3.3761,3.3848,3.3949,3.4,3.4,3.405,3.4101,3.4101,3.4151,3.4151,3.4201,3.4399,3.4643,3.4913,3.5316,3.5854,3.6241,3.6284,3.6284,3.6284,3.6284,3.6284,3.6284,3.6284,3.6284,3.6284,3.6284,3.6284,3.6284,3.6284,3.6284,3.6284,3.6284,3.6284,3.6284,3.6284,3.6284,3.6284,3.6284,3.6444,3.662,3.6829,3.6987,3.7105,3.7259,3.7372,3.7394,3.7522,3.7577,3.7577,3.7577,3.7577,3.7577,3.7577,3.788,3.8252,3.8415,3.8523,3.8894,3.9272,3.9376,1.4384,1.5213,1.669,1.735,1.7819,1.9866,2.073,2.0874,2.285,2.3986,2.4515,2.5382,2.5955,2.6164,2.6589,2.7377,2.8143,2.8338,2.8776,2.9205,2.9156,2.9093,2.9205,2.958,3.0011,3.036,3.0793,3.0852,3.0852,3.1145,3.1102,3.1218,3.1392,3.1349,3.1306,3.1709,3.191,3.191,3.2176,3.2453,3.2453,3.2578,3.2812,3.3043,3.3112,3.3256,3.345,3.3487,3.3658,3.3848,3.4,3.4101,3.405,3.405,3.3949,3.4101,3.4101,3.4101,3.4101,3.4101,3.4101,3.4084,3.4234,3.4382,3.448,3.4723,3.5008,3.5333,3.5677,3.6131,3.6301,3.6284,3.6284,3.6284,3.6284,3.6284,3.6284,3.6284,3.6284,3.6284,3.6284,3.6284,3.6284,3.6284,3.6284,3.6284,3.6284,3.6284,3.6284,3.6343,3.6385,3.6509,3.655,3.669,3.6846,3.7027,3.7164,3.7297,3.741,3.7484,3.7558,3.7577,3.7577,3.7577,3.7577,3.7577,3.7577,3.7613,3.7949,3.8252,3.8382,3.8585,3.9008,3.9324,3.9427,1.5047,1.6101,1.7585,1.839,1.9009,2.1094,2.1952,2.2146,2.4024,2.5087,2.5382,2.6094,2.6521,2.6782,2.7188,2.7842,2.8839,2.8967,2.9393,2.9827,2.9766,2.9827,3.0133,3.0495,3.0852,3.1013,3.1736,3.2048,3.1766,3.1992,3.2231,3.212,3.2272,3.2231,3.2007,3.2231,3.2191,3.2191,3.2342,3.2563,3.2687,3.2866,3.315,3.3346,3.3414,3.3503,3.3745,3.371,3.3797,3.4,3.4151,3.4234,3.425,3.43,3.43,3.425,3.4184,3.4184,3.4234,3.4382,3.4431,3.448,3.4626,3.4771,3.4866,3.5131,3.5453,3.5871,3.6088,3.6259,3.6284,3.6284,3.6284,3.6284,3.6284,3.6284,3.6284,3.6284,3.6284,3.6284,3.6284,3.6284,3.6301,3.6284,3.6284,3.6284,3.6284,3.6385,3.6444,3.6444,3.6544,3.6748,3.6869,3.697,3.7105,3.722,3.7334,3.741,3.7484,3.7558,3.7577,3.7577,3.7577,3.7577,3.7577,3.7577,3.7577,3.7685,3.7984,3.8252,3.8382,3.8676,3.911,3.9376,3.9502,1.5523,1.7001,1.839,1.9562,2.0864,2.2113,2.301,2.3588,2.4779,2.5241,2.5453,2.6164,2.6645,2.704,2.7829,2.8903,2.9842,3.0147,3.0404,3.0911,3.0644,3.051,3.0703,3.0866,3.1188,3.1519,3.213,3.2327,3.2327,3.2437,3.2382,3.2398,3.2398,3.2327,3.2358,3.2594,3.2788,3.2788,3.3027,3.3134,3.3187,3.3398,3.3555,3.3658,3.371,3.3745,3.3949,3.3848,3.3899,3.4151,3.4448,3.4611,3.4707,3.4913,3.4866,3.4739,3.4659,3.4659,3.4643,3.4818,3.4927,3.4944,3.5085,3.5131,3.527,3.5498,3.5854,3.6199,3.6301,3.6301,3.6284,3.6284,3.6284,3.6343,3.636,3.6343,3.6343,3.6385,3.6385,3.6385,3.6385,3.6385,3.636,3.6343,3.6284,3.6284,3.6326,3.6444,3.6568,3.6667,3.6708,3.6908,3.7105,3.722,3.7279,3.7392,3.7447,3.7521,3.7558,3.7577,3.7577,3.7577,3.7577,3.7577,3.7577,3.7613,3.7631,3.7757,3.8052,3.8285,3.8446,3.8796,3.9219,3.9401,3.9575,1.8214,1.9261,2.0352,2.1445,2.2531,2.3526,2.4264,2.4755,2.5639,2.6082,2.6289,2.6947,2.7617,2.813,2.8762,2.9518,3.0389,3.0644,3.1029,3.1597,3.1452,3.1422,3.1595,3.1709,3.1849,3.225,3.2664,3.3108,3.3055,3.2711,3.2398,3.2453,3.2398,3.2523,3.2648,3.2843,3.3005,3.3096,3.3256,3.3361,3.3503,3.3658,3.3797,3.3949,3.3949,3.405,3.405,3.4,3.4101,3.4399,3.4659,3.4787,3.4961,3.5085,3.5102,3.5055,3.5241,3.5102,3.4818,3.5055,3.5178,3.527,3.5407,3.5633,3.581,3.5941,3.6131,3.6284,3.6284,3.6284,3.6284,3.6284,3.6402,3.6461,3.6461,3.6585,3.6568,3.6544,3.6544,3.6544,3.6527,3.6527,3.6527,3.6527,3.655,3.6632,3.6632,3.6731,3.6851,3.697,3.7066,3.7143,3.7297,3.7484,3.7466,3.754,3.7503,3.7558,3.7558,3.7577,3.7577,3.7577,3.7577,3.7577,3.7577,3.7631,3.7631,3.7757,3.7984,3.8267,3.8554,3.8923,3.9298,3.9583,3.9764,2.1339,2.1889,2.2307,2.3007,2.3963,2.4791,2.5288,2.5767,2.6552,2.6973,2.7229,2.7934,2.8776,2.9407,2.9704,3.0133,3.0851,3.097,3.1452,3.1868,3.2053,3.2135,3.2176,3.2327,3.2477,3.3198,3.3093,3.3423,3.3578,3.3371,3.2895,3.2602,3.2508,3.2578,3.2827,3.3005,3.3165,3.3555,3.3694,3.3848,3.3949,3.4084,3.4234,3.4333,3.4382,3.4399,3.4399,3.4382,3.4578,3.4771,3.5038,3.527,3.5362,3.5588,3.5526,3.5526,3.5705,3.5661,3.5345,3.5345,3.5436,3.5571,3.5677,3.5985,3.6174,3.6343,3.6402,3.6444,3.6444,3.6385,3.6385,3.6343,3.6343,3.6485,3.6602,3.6766,3.6886,3.6806,3.6748,3.6708,3.6748,3.6748,3.6748,3.6748,3.6829,3.693,3.7009,3.7009,3.7179,3.7309,3.7385,3.7496,3.7536,3.7647,3.7611,3.763,3.7612,3.7702,3.7719,3.7648,3.7684,3.763,3.7577,3.7577,3.7756,3.7685,3.7757,3.7828,3.7915,3.83,3.8646,3.9036,3.9376,3.975,4.0098,2.448,2.4624,2.3627,2.399,2.5217,2.5241,2.5861,2.6744,2.7338,2.7789,2.8117,2.8839,2.9594,3.0162,3.0464,3.0837,3.167,3.1742,3.2079,3.2287,3.2342,3.2492,3.2695,3.2734,3.268,3.3235,3.3495,3.3716,3.3919,3.4169,3.3649,3.3182,3.2949,3.278,3.3027,3.345,3.371,3.4101,3.4349,3.4497,3.4626,3.4802,3.4991,3.5038,3.5085,3.5131,3.5131,3.5068,3.5115,3.5224,3.5616,3.5793,3.5854,3.6174,3.6139,3.5933,3.6241,3.6139,3.5847,3.5881,3.6114,3.6216,3.6259,3.6259,3.636,3.6561,3.6661,3.6643,3.6626,3.6643,3.6585,3.6485,3.6468,3.6609,3.6788,3.6926,3.7005,3.6987,3.6948,3.6948,3.6948,3.6948,3.7027,3.7066,3.7066,3.7164,3.72,3.7256,3.7527,3.7711,3.7769,3.7843,3.779,3.7809,3.7755,3.7862,3.8219,3.829,3.8272,3.8041,3.7844,3.7791,3.8112,3.8221,3.8455,3.8169,3.8111,3.8642,3.8933,3.8674,3.8907,3.9686,4.0227,4.0656,4.0923,2.5322,2.5063,2.6015,2.6519,2.6731,2.7191,2.7723,2.8117,2.8505,2.9016,2.9504,2.9827,3.0343,3.0896,3.1087,3.1336,3.1784,3.1898,3.2398,3.2749,3.2841,3.3108,3.3355,3.3547,3.3735,3.4153,3.4317,3.4657,3.5191,3.4911,3.4688,3.4284,3.382,3.3887,3.4086,3.4202,3.4513,3.4675,3.4913,3.5008,3.5055,3.5085,3.5178,3.5178,3.5178,3.5299,3.5357,3.5357,3.5554,3.5776,3.6139,3.6241,3.6301,3.6708,3.665,3.6333,3.669,3.6591,3.6367,3.6444,3.6544,3.6544,3.6544,3.6544,3.6544,3.6766,3.6766,3.6766,3.6806,3.6886,3.6869,3.6811,3.6811,3.6891,3.6987,3.7066,3.7143,3.7143,3.7182,3.7143,3.7143,3.7182,3.7259,3.7334,3.7372,3.7392,3.7445,3.7552,3.7909,3.8269,3.8396,3.8558,3.8576,3.8665,3.8665,3.8808,3.8968,3.8897,3.8826,3.8683,3.8503,3.8986,3.9218,3.924,3.9245,3.9247,3.9458,3.9951,3.9976,3.9669,4.0092,4.0913,4.1324,4.1562,4.1779,2.6146,2.6032,2.7959,2.8312,2.7749,2.8468,2.8917,2.9156,2.947,3.0025,3.0777,3.0925,3.1276,3.1766,3.2089,3.2256,3.2492,3.2641,3.3002,3.3303,3.3563,3.3818,3.407,3.4202,3.4301,3.4911,3.5115,3.5345,3.5827,3.5543,3.5453,3.5328,3.5157,3.5018,3.4736,3.5052,3.5178,3.5224,3.5316,3.5362,3.5379,3.5605,3.5633,3.5633,3.5677,3.581,3.5924,3.5968,3.6079,3.6308,3.6533,3.6632,3.6771,3.6869,3.6926,3.6943,3.6983,3.7005,3.6864,3.6742,3.6725,3.6766,3.6702,3.6742,3.6806,3.6948,3.7044,3.6965,3.7027,3.7105,3.7105,3.7027,3.6987,3.7027,3.7143,3.722,3.7297,3.7372,3.7372,3.7372,3.7334,3.7332,3.764,3.7769,3.7838,3.7998,3.8427,3.846,3.8587,3.8928,3.9233,3.9414,3.9557,3.9682,3.9825,3.9664,3.9504,3.9432,3.9414,3.9447,3.9501,3.9932,3.9985,3.972,3.9874,4.0311,4.07,4.0956,4.0868,4.0637,4.1241,4.1875,4.2021,4.2257,4.2635,2.7338,2.7604,2.903,2.8953,2.8051,2.8532,2.9107,2.9642,3.0194,3.0866,3.1595,3.213,3.2461,3.268,3.3024,3.3287,3.3443,3.3547,3.3903,3.4268,3.4119,3.4333,3.4512,3.4657,3.48,3.4975,3.5253,3.5616,3.6002,3.5975,3.6036,3.6062,3.5881,3.5671,3.4925,3.5098,3.5207,3.527,3.565,3.5739,3.5871,3.6191,3.6276,3.6276,3.6343,3.6444,3.6527,3.6568,3.6673,3.6834,3.6952,3.7009,3.6987,3.7066,3.7101,3.7132,3.7217,3.7235,3.7189,3.6881,3.6846,3.6948,3.6886,3.6886,3.6987,3.7143,3.7259,3.7161,3.7276,3.7297,3.722,3.7143,3.7143,3.7182,3.7297,3.7372,3.7447,3.7484,3.7484,3.7591,3.7481,3.7461,3.7875,3.8182,3.8285,3.8623,3.9248,3.9462,3.9462,3.9658,4.0039,4.0431,4.061,4.0592,4.0628,4.0253,4.0057,4.0003,4.0128,4.036,4.0438,4.0623,4.0551,4.0298,4.0817,4.157,4.1769,4.1902,4.2017,4.2202,4.2205,4.2605,4.274,4.3,4.3436,2.9122,2.8933,3.069,3.0822,3.0001,3.0571,3.094,3.1232,3.1901,3.2415,3.2756,3.3093,3.3198,3.3339,3.3479,3.3735,3.3836,3.3836,3.4153,3.4721,3.4625,3.4975,3.5207,3.5328,3.5464,3.5722,3.5871,3.5898,3.6216,3.6208,3.6251,3.6259,3.6301,3.6097,3.5907,3.5881,3.5924,3.5924,3.6071,3.6131,3.6156,3.6502,3.6684,3.6585,3.6806,3.6965,3.7044,3.7044,3.7105,3.722,3.7297,3.7334,3.7297,3.7297,3.7334,3.735,3.7372,3.7502,3.7408,3.7259,3.7143,3.7143,3.7105,3.7066,3.722,3.7372,3.741,3.741,3.7503,3.7503,3.7484,3.7484,3.7447,3.7447,3.7521,3.7503,3.754,3.754,3.7612,3.7772,3.7806,3.848,3.9002,3.9419,3.9542,3.9649,4.0241,4.0431,4.0485,4.0606,4.0895,4.1431,4.1698,4.1591,4.1431,4.1092,4.1078,4.1207,4.1443,4.1729,4.1719,4.1553,4.1813,4.1905,4.2368,4.2857,4.294,4.3152,4.3652,4.3912,4.363,4.3567,4.3829,4.4061,4.4345,3.0587,3.0139,3.1788,3.2155,3.1732,3.2028,3.2281,3.2555,3.3024,3.3339,3.3391,3.3598,3.3853,3.3987,3.4186,3.4301,3.4399,3.4496,3.4592,3.5131,3.5161,3.5453,3.5739,3.5975,3.5915,3.6165,3.6251,3.6276,3.6259,3.6233,3.6335,3.6444,3.6509,3.6615,3.6557,3.6533,3.6426,3.6468,3.655,3.655,3.6632,3.6788,3.6886,3.6869,3.7005,3.7143,3.7259,3.7297,3.7334,3.741,3.7521,3.7613,3.7577,3.7577,3.7595,3.7577,3.754,3.7631,3.7558,3.7484,3.741,3.741,3.7334,3.7334,3.741,3.7631,3.7649,3.7685,3.7739,3.781,3.7863,3.7863,3.7828,3.7828,3.7828,3.7845,3.7863,3.7863,3.8026,3.8205,3.8506,3.931,4.0167,4.0677,4.0984,4.1112,4.1238,4.1339,4.1403,4.1511,4.16,4.1993,4.2257,4.2119,4.2024,4.1984,4.2083,4.2396,4.2494,4.2534,4.2716,4.2541,4.3031,4.3387,4.3398,4.3571,4.4044,4.4401,4.4466,4.4588,4.4581,4.4624,4.4895,4.4895,4.4895,3.1718,3.1258,3.2314,3.2955,3.2971,3.2933,3.3039,3.3303,3.3443,3.3547,3.3547,3.4219,3.4512,3.4736,3.5253,3.5424,3.5424,3.556,3.5622,3.5667,3.565,3.5888,3.6002,3.6131,3.6301,3.6301,3.6426,3.6597,3.6392,3.658,3.6696,3.6771,3.6974,3.7091,3.7129,3.7069,3.6952,3.6995,3.6995,3.6995,3.7031,3.7164,3.7143,3.7143,3.7182,3.7297,3.7372,3.7372,3.7447,3.7558,3.7685,3.781,3.7845,3.781,3.788,3.788,3.7792,3.7757,3.7721,3.7721,3.7685,3.7685,3.754,3.7503,3.7613,3.7828,3.7898,3.7984,3.8119,3.8219,3.8318,3.8285,3.8285,3.8285,3.8285,3.8285,3.8289,3.8386,3.8594,3.8815,3.9119,3.9815,4.0906,4.1597,4.1836,4.2021,4.2039,4.2168,4.2217,4.221,4.2282,4.2181,4.2414,4.245,4.245,4.2512,4.2591,4.2747,4.2768,4.2826,4.3087,4.3373,4.3542,4.3754,4.3893,4.4136,4.4476,4.4681,4.4783,4.4895,4.4895,4.4895,4.4895,4.4895,4.4895,3.4056,3.3925,3.4651,3.4622,3.4088,3.3987,3.4235,3.4658,3.4771,3.4802,3.4897,3.5071,3.5316,3.5453,3.556,3.5711,3.5756,3.5773,3.5773,3.5844,3.5958,3.6182,3.6374,3.6522,3.6724,3.696,3.7114,3.7114,3.721,3.723,3.725,3.7452,3.7451,3.7578,3.765,3.7703,3.7614,3.7542,3.7542,3.7432,3.7394,3.7522,3.7449,3.741,3.7466,3.754,3.754,3.754,3.7613,3.7613,3.781,3.7984,3.7984,3.8101,3.8252,3.8252,3.8219,3.8186,3.8153,3.8135,3.8119,3.8086,3.8052,3.7984,3.7984,3.8018,3.8119,3.8285,3.8415,3.8491,3.8541,3.8541,3.851,3.8523,3.8523,3.851,3.8601,3.8907,3.914,3.973,4.0023,4.0887,4.1911,4.2106,4.2384,4.2621,4.2806,4.2882,4.29,4.2824,4.2747,4.267,4.2691,4.2747,4.2862,4.2957,4.3013,4.305,4.3087,4.3213,4.3458,4.3726,4.3918,4.4132,4.4318,4.453,4.4732,4.487,4.4895,4.4895,4.4895,4.4895,4.4895,4.4895,4.4895,3.5642,3.5433,3.5934,3.5822,3.5436,3.5318,3.5565,3.5864,3.5739,3.5756,3.5941,3.6011,3.6097,3.6249,3.6291,3.6333,3.6374,3.6291,3.6291,3.6504,3.6199,3.658,3.6803,3.6886,3.7002,3.736,3.7596,3.7506,3.7702,3.779,3.7859,3.7843,3.7928,3.8047,3.815,3.8267,3.8328,3.8227,3.8077,3.7946,3.7879,3.7879,3.7827,3.7774,3.7845,3.788,3.788,3.788,3.788,3.7949,3.8186,3.8318,3.8318,3.8478,3.8446,3.8415,3.835,3.835,3.835,3.835,3.8382,3.8415,3.8415,3.8382,3.8401,3.8401,3.8465,3.8559,3.8634,3.8676,3.8695,3.8695,3.8676,3.8676,3.8676,3.8676,3.9013,3.9373,3.9973,4.0625,4.1359,4.2159,4.2647,4.2734,4.2844,4.2995,4.3142,4.3232,4.3178,4.3068,4.3013,4.2938,4.3032,4.3123,4.325,4.3356,4.3408,4.3458,4.3557,4.3689,4.3886,4.4102,4.4308,4.4522,4.4745,4.4846,4.487,4.4895,4.4895,4.4895,4.4895,4.4895,4.4895,4.4895,4.4895,3.6805,3.6191,3.6486,3.6716,3.6751,3.6711,3.679,3.6981,3.6522,3.644,3.6706,3.6808,3.6847,3.6904,3.6943,3.702,3.6981,3.6825,3.6869,3.7343,3.6764,3.6939,3.7268,3.7193,3.7488,3.7649,3.779,3.8029,3.7977,3.8129,3.8296,3.8201,3.8364,3.8491,3.8603,3.8695,3.8737,3.8688,3.8566,3.841,3.8396,3.8415,3.8415,3.835,3.835,3.835,3.835,3.8382,3.8382,3.8496,3.859,3.8732,3.8773,3.8773,3.8664,3.8603,3.8572,3.8554,3.8554,3.8572,3.8541,3.851,3.8446,3.8603,3.8695,3.8652,3.8701,3.8785,3.8855,3.8884,3.8884,3.8902,3.8913,3.8913,3.8913,3.9116,3.9494,4.0173,4.1185,4.1824,4.2368,4.3067,4.3086,4.3124,4.305,4.3286,4.3391,4.3529,4.3563,4.341,4.3304,4.3268,4.3391,4.3495,4.3579,4.3712,4.3772,4.3849,4.3974,4.4053,4.4199,4.443,4.47,4.4796,4.4846,4.487,4.4895,4.4895,4.4895,4.4895,4.4895,4.4895,4.4895,4.4895,4.4895,3.8186,3.8077,3.783,3.768,3.7524,3.7272,3.7306,3.7541,3.7506,3.7342,3.7135,3.7135,3.721,3.7305,3.7379,3.7415,3.7397,3.7361,3.738,3.7506,3.7285,3.7452,3.8011,3.7925,3.8129,3.8455,3.8628,3.864,3.8681,3.8759,3.8836,3.8855,3.8884,3.8873,3.8833,3.8902,3.8989,3.8931,3.8902,3.8785,3.8695,3.8652,3.8652,3.851,3.8446,3.8446,3.8446,3.8446,3.8415,3.8446,3.8652,3.8833,3.9017,3.9017,3.8989,3.896,3.8902,3.8855,3.8855,3.8855,3.8855,3.8884,3.8884,3.8942,3.896,3.8862,3.8881,3.8989,3.9027,3.9055,3.9101,3.9101,3.9101,3.9101,3.9138,3.9528,3.9974,4.116,4.2341,4.2899,4.3376,4.3508,4.3477,4.3461,4.3391,4.3461,4.3529,4.3664,4.3846,4.3814,4.3716,4.3664,4.3763,4.386,4.3955,4.403,4.4132,4.4221,4.4327,4.4421,4.4515,4.4632,4.477,4.4846,4.4895,4.4895,4.4895,4.4895,4.4895,4.4895,4.4895,4.4895,4.4895,4.4895,4.4895,3.9034,3.9026,3.8699,3.8504,3.8401,3.8222,3.8227,3.8413,3.8487,3.842,3.82,3.8011,3.7895,3.7911,3.7946,3.7928,3.7943,3.7857,3.8044,3.8129,3.791,3.8077,3.8323,3.8542,3.877,3.9027,3.9165,3.9219,3.9272,3.911,3.9055,3.911,3.9129,3.9073,3.8931,3.9045,3.9073,3.896,3.9045,3.9017,3.8902,3.8873,3.8892,3.8725,3.8707,3.8676,3.8707,3.8725,3.8707,3.8725,3.8892,3.896,3.9073,3.9073,3.9101,3.9073,3.9073,3.9101,3.9101,3.9101,3.9101,3.9101,3.9101,3.9055,3.9055,3.8979,3.8979,3.9073,3.9073,3.9101,3.9101,3.9101,3.9101,3.9101,3.9268,3.9565,4.0568,4.1802,4.2792,4.3503,4.3791,4.3873,4.386,4.391,4.3814,4.3563,4.3664,4.3679,4.391,4.4207,4.4097,4.4067,4.4158,4.4277,4.4393,4.443,4.4486,4.4587,4.4659,4.4685,4.4693,4.4745,4.4821,4.487,4.4895,4.4895,4.4895,4.4895,4.4895,4.4895,4.4895,4.4895,4.4895,4.4895,4.4919,3.9615,3.9519,3.937,3.9277,3.9302,3.9296,3.9296,3.9321,3.9314,3.9383,3.9339,3.898,3.8833,3.8792,3.8851,3.8851,3.8743,3.8455,3.8658,3.864,3.8227,3.8468,3.8711,3.8896,3.9163,3.9345,3.9489,3.9513,3.9537,3.9389,3.9305,3.92,3.9173,3.9192,3.9156,3.9156,3.9137,3.9073,3.9101,3.9101,3.9101,3.9101,3.9073,3.9073,3.9101,3.9101,3.9101,3.9101,3.9101,3.9073,3.9045,3.9073,3.9073,3.9101,3.9101,3.9101,3.9101,3.9101,3.9101,3.9101,3.9101,3.9101,3.9101,3.9082,3.9082,3.9101,3.9101,3.9101,3.9101,3.9082,3.9082,3.9082,3.9082,3.9287,3.951,3.9974,4.1274,4.2493,4.3274,4.4036,4.4097,4.4177,4.4207,4.4255,4.4116,4.386,4.3795,4.3795,4.3923,4.4248,4.4364,4.4393,4.4449,4.4587,4.4685,4.4685,4.4667,4.4745,4.477,4.4846,4.4895,4.4846,4.4846,4.487,4.4895,4.4895,4.4895,4.4895,4.4895,4.4895,4.4895,4.4895,4.4895,4.4919,4.4948,4.0166,4.0261,4.0243,4.0114,3.9925,3.9872,3.9732,3.9586,3.9592,3.9622,3.9668,3.9595,3.9421,3.921,3.9264,3.9237,3.9073,3.8894,3.8942,3.8942,3.8828,3.8923,3.91,3.9308,3.95,3.9664,3.9797,3.9816,3.9794,3.975,3.9728,3.9687,3.9622,3.9566,3.9433,3.9408,3.9357,3.9279,3.9173,3.9173,3.9165,3.9137,3.9082,3.9101,3.9101,3.9101,3.9101,3.9101,3.9101,3.9101,3.9082,3.9129,3.9101,3.9129,3.9129,3.9101,3.9101,3.911,3.911,3.9137,3.9165,3.9165,3.9165,3.9137,3.9137,3.911,3.911,3.9101,3.9082,3.9082,3.911,3.911,3.9147,3.9686,4.0021,4.1128,4.2318,4.313,4.3855,4.4177,4.4285,4.4325,4.4383,4.443,4.443,4.4248,4.4218,4.4248,4.4218,4.4421,4.4605,4.4659,4.4667,4.4712,4.4738,4.4719,4.4745,4.4821,4.4895,4.4895,4.4895,4.4895,4.4895,4.4895,4.4895,4.4895,4.4895,4.4895,4.4895,4.4895,4.4895,4.4895,4.4895,4.4972,4.5026]},{"header":{"parameterUnit":"m.s-1","parameterCategory":1,"la1":31.0,"la2":29.5877,"lo1":-88.7671,"lo2":-86.6584,"dy":0.0162,"dx":0.0185,"nx":115,"ny":88,"refTime":"2023-04-12T18:00:00:Z","depth":0,"parameterNumber":3,"parameterNumberName":"V-component_of_WINDS"},"data":[0.0,0.0,0.0,0.0,0.0,0.0,0.0,0.0,0.0,0.0,0.0,0.0,0.0,0.0,0.0,0.0,0.0,0.0,0.0,0.0,0.0,0.0,0.0,0.0,0.0,0.0,0.0,0.0,0.0,0.0,0.0,0.0,0.0,0.0,0.0,0.0,0.0,0.0,0.0,0.0,0.0,0.0,0.0,0.0,0.0,0.0,0.0,0.0,0.0,0.0,0.0,0.0,0.0,0.0,0.0,0.0,0.0,0.0,0.0,0.0,0.0,0.0,0.0,0.0,0.0,0.0,0.0,0.0,0.0,0.0,0.0,0.0,0.0,0.0,0.0,0.0,0.0,0.0,0.0,0.0,0.0,0.0,0.0,0.0,0.0,0.0,0.0,0.0,0.0,0.0,0.0,0.0,0.0,0.0,0.0,0.0,0.0,0.0,0.0,0.0,0.0,0.0,0.0,0.0,0.0,0.0,0.0,0.0,0.0,0.0,0.0,0.0,0.0,0.0,0.0,0.0,0.0,0.0,0.0,0.0,0.0,0.0,0.0,0.0,0.0,0.0,0.0,0.0,0.0,0.0,0.0,0.0,0.0,0.0,0.0,0.0,0.0,0.0,0.0,0.0,0.0,0.0,0.0,0.0,0.0,0.0,0.0,0.0,0.0,0.0,0.0,0.0,0.0,0.0,0.0,0.0,0.0,0.0,0.0,0.0,0.0,0.0,0.0,0.0,0.0,0.0,0.0,0.0,0.0,0.0,0.0,0.0,0.0,0.0,0.0,0.0,0.0,0.0,0.0,0.0,0.0,0.0,0.0,0.0,0.0,0.0,0.0,0.0,0.0,0.0,0.0,0.0,0.0,0.0,0.0,0.0,0.0,0.0,0.0,0.0,0.0,0.0,0.0,0.0,0.0,0.0,0.0,0.0,0.0,0.0,0.0,0.0,0.0,0.0,0.0,0.0,0.0,0.0,0.0,0.0,0.0,0.0,0.0,0.0,0.0,0.0,0.0,0.0,0.0,0.0,0.0,0.0,0.0,0.0,0.0,0.0,0.0,0.0,0.0,0.0,0.0,0.0,0.0,0.0,0.0,0.0,0.0,0.0,0.0,0.0,0.0,0.0,0.0,0.0,0.0,0.0,0.0,0.0,0.0,0.0,0.0,0.0,0.0,0.0,0.0,0.0,0.0,0.0,0.0,0.0,0.0,0.0,0.0,0.0,0.0,0.0,0.0,0.0,0.0,0.0,0.0,0.0,0.0,0.0,0.0,0.0,0.0,0.0,0.0,0.0,0.0,0.0,0.0,0.0,0.0,0.0,0.0,0.0,0.0,0.0,0.0,0.0,0.0,0.0,0.0,0.0,0.0,0.0,0.0,0.0,0.0,0.0,0.0,0.0,0.0,0.0,0.0,0.0,0.0,0.0,0.0,0.0,0.0,0.0,0.0,0.0,0.0,0.0,0.0,0.0,0.0,0.0,0.0,0.0,0.0,0.0,0.0,0.0,0.0,0.0,0.0,0.0,0.0,0.0,0.0,0.0,0.0,0.0,0.0,0.0,0.0,0.0,0.0,0.0,0.0,0.0,0.0,0.0,0.0,0.0,0.0,0.0,0.0,0.0,0.0,0.0,0.0,0.0,0.0,0.0,0.0,0.0,0.0,0.0,0.0,0.0,0.0,0.0,0.0,0.0,0.0,0.0,0.0,0.0,0.0,0.0,0.0,0.0,0.0,0.0,0.0,0.0,0.0,0.0,0.0,0.0,0.0,0.0,0.0,0.0,0.0,0.0,0.0,0.0,0.0,0.0,0.0,0.0,0.0,0.0,0.0,0.0,0.0,0.0,0.0,0.0,0.0,0.0,0.0,0.0,0.0,0.0,0.0,0.0,0.0,0.0,0.0,0.0,0.0,0.0,0.0,0.0,0.0,0.0,0.0,0.0,0.0,0.0,0.0,0.0,0.0,0.0,0.0,0.0,0.0,0.0,0.0,0.0,0.0,0.0,0.0,0.0,0.0,0.0,0.0,0.0,0.0,0.0,0.0,0.0,0.0,0.0,0.0,0.0,0.0,0.0,0.0,0.0,0.0,0.0,0.0,0.0,0.0,0.0,0.0,0.0,0.0,0.0,0.0,0.0,0.0,0.0,0.0,0.0,0.0,0.0,0.0,0.0,0.0,0.0,0.0,0.0,0.0,0.0,0.0,0.0,0.0,0.0,0.0,0.0,0.0,0.0,0.0,0.0,0.0,0.0,0.0,0.0,0.0,0.0,0.0,0.0,0.0,0.0,0.0,0.0,0.0,0.0,0.0,0.0,0.0,0.0,0.0,0.0,0.0,0.0,0.0,0.0,0.0,0.0,0.0,0.0,0.0,0.0,0.0,0.0,0.0,0.0,0.0,0.0,0.0,0.0,0.0,0.0,0.0,0.0,0.0,0.0,0.0,0.0,0.0,0.0,0.0,0.0,0.0,0.0,0.0,0.0,0.0,0.0,0.0,0.0,0.0,0.0,0.0,0.0,0.0,0.0,0.0,0.0,0.0,0.0,0.0,0.0,0.0,0.0,0.0,0.0,0.0,0.0,0.0,0.0,0.0,0.0,0.0,0.0,0.0,0.0,0.0,0.0,0.0,0.0,0.0,0.0,0.0,0.0,0.0,0.0,0.0,0.0,0.0,0.0,0.0,0.0,0.0,0.0,0.0,0.0,0.0,0.0,0.0,0.0,0.0,0.0,0.0,0.0,0.0,0.0,0.0,0.0,0.0,0.0,0.0,0.0,0.0,0.0,0.0,0.0,0.0,0.0,0.0,0.0,0.0,0.0,0.0,0.0,0.0,0.0,0.0,0.0,0.0,0.0,0.0,0.0,0.0,0.0,0.0,0.0,0.0,0.0,0.0,0.0,0.0,0.0,0.0,0.0,0.0,0.0,0.0,0.0,0.0,0.0,0.0,0.0,0.0,0.0,0.0,0.0,0.0,0.0,0.0,0.0,0.0,0.0,0.0,0.0,0.0,0.0,0.0,0.0,0.0,0.0,0.0,0.0,0.0,0.0,0.0,0.0,0.0,0.0,0.0,0.0,0.0,0.0,0.0,0.0,0.0,0.0,0.0,0.0,0.0,0.0,0.0,0.0,0.0,0.0,0.0,0.0,0.0,0.0,0.0,0.0,0.0,0.0,0.0,0.0,0.0,0.0,0.0,0.0,0.0,0.0,0.0,0.0,0.0,0.0,0.0,0.0,0.0,0.0,0.0,0.0,0.0,0.0,0.0,0.0,0.0,0.0,0.0,0.0,0.0,0.0,0.0,0.0,0.0,0.0,0.0,0.0,0.0,0.0,0.0,0.0,0.0,0.0,0.0,0.0,0.0,0.0,0.0,0.0,0.0,0.0,0.0,0.0,0.0,0.0,0.0,0.0,0.0,0.0,0.0,0.0,0.0,0.0,0.0,0.0,0.0,0.0,0.0,0.0,0.0,0.0,0.0,0.0,0.0,0.0,0.0,0.0,0.0,0.0,0.0,0.0,0.0,0.0,0.0,0.0,0.0,0.0,0.0,0.0,0.0,0.0,0.0,0.0,0.0,0.0,0.0,0.0,0.0,0.0,0.0,0.0,0.0,0.0,0.0,0.0,0.0,0.0,0.0,0.0,0.0,0.0,0.0,0.0,0.0,0.0,0.0,0.0,0.0,0.0,0.0,0.0,0.0,0.0,0.0,0.0,0.0,0.0,0.0,0.0,0.0,0.0,0.0,0.0,0.0,0.0,0.0,0.0,0.0,0.0,0.0,0.0,0.0,0.0,0.0,0.0,0.0,0.0,0.0,0.0,0.0,0.0,0.0,0.0,0.0,0.0,0.0,0.0,0.0,0.0,0.0,0.0,0.0,0.0,0.0,0.0,0.0,0.0,0.0,0.0,0.0,0.0,0.0,0.0,0.0,0.0,0.0,0.0,0.0,0.0,0.0,0.0,0.0,0.0,0.0,0.0,0.0,0.0,0.0,0.0,0.0,0.0,0.0,0.0,0.0,0.0,0.0,0.0,0.0,0.0,0.0,0.0,0.0,0.0,0.0,0.0,0.0,0.0,0.0,0.0,0.0,0.0,0.0,0.0,0.0,0.0,0.0,0.0,0.0,0.0,0.0,0.0,0.0,0.0,0.0,0.0,0.0,0.0,0.0,0.0,0.0,0.0,0.0,0.0,0.0,0.0,0.0,0.0,0.0,0.0,0.0,0.0,0.0,0.0,0.0,0.0,0.0,0.0,0.0,0.0,0.0,0.0,0.0,0.0,0.0,0.0,-1.5408,0.0,0.0,0.0,0.0,0.0,0.0,0.0,0.0,0.0,0.0,0.0,0.0,0.0,0.0,0.0,0.0,0.0,0.0,0.0,0.0,0.0,0.0,0.0,0.0,0.0,0.0,0.0,0.0,0.0,0.0,0.0,0.0,0.0,0.0,0.0,0.0,0.0,0.0,0.0,0.0,0.0,0.0,0.0,0.0,0.0,0.0,0.0,0.0,0.0,0.0,0.0,0.0,0.0,0.0,0.0,0.0,0.0,0.0,0.0,0.0,0.0,0.0,0.0,0.0,0.0,0.0,0.0,0.0,0.0,0.0,0.0,0.0,0.0,0.0,0.0,0.0,0.0,0.0,0.0,0.0,0.0,0.0,0.0,0.0,0.0,0.0,0.0,0.0,0.0,0.0,0.0,0.0,0.0,0.0,0.0,0.0,0.0,0.0,0.0,0.0,0.0,0.0,0.0,0.0,0.0,0.0,0.0,0.0,0.0,0.0,-1.5421,-1.5405,-1.5407,-1.5407,-1.5405,0.0,0.0,0.0,0.0,0.0,0.0,0.0,0.0,0.0,0.0,0.0,0.0,0.0,0.0,0.0,0.0,0.0,0.0,0.0,0.0,0.0,0.0,0.0,0.0,0.0,0.0,0.0,0.0,0.0,0.0,0.0,0.0,0.0,0.0,0.0,0.0,0.0,0.0,0.0,0.0,0.0,0.0,0.0,0.0,0.0,0.0,0.0,0.0,0.0,0.0,0.0,0.0,0.0,0.0,0.0,0.0,0.0,0.0,0.0,0.0,0.0,0.0,0.0,0.0,0.0,0.0,0.0,0.0,0.0,0.0,0.0,0.0,0.0,0.0,0.0,0.0,0.0,0.0,0.0,0.0,0.0,0.0,0.0,0.0,0.0,0.0,0.0,0.0,0.0,0.0,0.0,0.0,0.0,0.0,0.0,0.0,0.0,0.0,0.0,0.0,0.0,0.0,0.0,0.0,0.0,0.0,0.0,0.0,0.0,0.0,0.0,0.0,-1.5375,-1.5373,-1.5373,0.0,0.0,0.0,0.0,0.0,0.0,0.0,0.0,0.0,0.0,0.0,0.0,0.0,0.0,0.0,0.0,0.0,0.0,0.0,0.0,0.0,0.0,0.0,0.0,0.0,0.0,0.0,0.0,0.0,0.0,0.0,0.0,0.0,0.0,0.0,0.0,0.0,0.0,0.0,0.0,0.0,0.0,0.0,0.0,0.0,0.0,0.0,0.0,0.0,0.0,0.0,0.0,0.0,0.0,0.0,0.0,0.0,0.0,0.0,0.0,0.0,0.0,0.0,0.0,0.0,0.0,0.0,0.0,0.0,0.0,0.0,0.0,0.0,0.0,0.0,0.0,0.0,0.0,0.0,0.0,0.0,0.0,0.0,0.0,0.0,0.0,0.0,0.0,0.0,0.0,0.0,0.0,0.0,0.0,0.0,0.0,0.0,0.0,0.0,0.0,0.0,0.0,0.0,0.0,0.0,0.0,0.0,0.0,0.0,0.0,-1.5311,-1.5295,-1.5319,0.0,-1.5295,0.0,0.0,0.0,0.0,0.0,0.0,0.0,0.0,0.0,0.0,0.0,0.0,0.0,0.0,0.0,0.0,0.0,0.0,0.0,0.0,0.0,0.0,0.0,0.0,0.0,0.0,0.0,0.0,0.0,0.0,0.0,0.0,0.0,0.0,0.0,0.0,0.0,0.0,0.0,0.0,0.0,0.0,0.0,0.0,0.0,0.0,0.0,0.0,0.0,0.0,0.0,0.0,0.0,0.0,0.0,0.0,0.0,0.0,0.0,0.0,0.0,0.0,0.0,0.0,0.0,0.0,0.0,0.0,0.0,0.0,0.0,0.0,0.0,0.0,0.0,0.0,0.0,0.0,0.0,0.0,0.0,0.0,0.0,0.0,0.0,0.0,0.0,0.0,0.0,0.0,0.0,0.0,0.0,0.0,0.0,0.0,0.0,0.0,0.0,0.0,0.0,0.0,0.0,0.0,0.0,0.0,0.0,0.0,0.0,0.0,-1.5236,-1.5236,-1.5231,-1.5231,0.0,0.0,0.0,0.0,0.0,0.0,0.0,0.0,0.0,0.0,0.0,0.0,0.0,0.0,0.0,0.0,0.0,0.0,0.0,0.0,0.0,0.0,0.0,0.0,0.0,0.0,0.0,0.0,0.0,0.0,0.0,0.0,0.0,0.0,0.0,0.0,0.0,0.0,0.0,0.0,0.0,0.0,0.0,0.0,0.0,0.0,0.0,0.0,0.0,0.0,0.0,0.0,0.0,0.0,0.0,0.0,0.0,0.0,0.0,0.0,0.0,0.0,0.0,0.0,0.0,0.0,0.0,0.0,0.0,0.0,0.0,0.0,0.0,0.0,0.0,0.0,0.0,0.0,0.0,0.0,0.0,0.0,0.0,0.0,0.0,0.0,0.0,0.0,0.0,0.0,0.0,0.0,0.0,0.0,0.0,0.0,0.0,0.0,0.0,0.0,0.0,0.0,0.0,0.0,0.0,0.0,0.0,0.0,0.0,0.0,-1.5174,-1.5174,-1.5168,-1.5164,-1.5164,-1.5168,0.0,0.0,0.0,0.0,0.0,0.0,0.0,0.0,0.0,0.0,0.0,0.0,0.0,0.0,0.0,0.0,0.0,0.0,0.0,0.0,0.0,0.0,0.0,0.0,0.0,0.0,0.0,0.0,0.0,0.0,0.0,0.0,0.0,0.0,0.0,0.0,0.0,0.0,0.0,0.0,0.0,0.0,0.0,0.0,0.0,0.0,0.0,0.0,0.0,0.0,0.0,0.0,0.0,0.0,0.0,0.0,0.0,0.0,0.0,0.0,0.0,0.0,0.0,0.0,0.0,0.0,0.0,0.0,0.0,0.0,0.0,0.0,0.0,0.0,0.0,0.0,0.0,0.0,0.0,0.0,0.0,0.0,0.0,0.0,0.0,0.0,0.0,0.0,0.0,0.0,0.0,0.0,0.0,0.0,0.0,0.0,0.0,0.0,0.0,0.0,0.0,0.0,0.0,0.0,0.0,0.0,0.0,0.0,-1.5101,-1.5108,-1.5101,-1.5101,-1.5114,-1.5107,0.0,0.0,0.0,0.0,0.0,0.0,0.0,0.0,0.0,0.0,0.0,0.0,0.0,0.0,0.0,0.0,0.0,0.0,0.0,0.0,0.0,0.0,0.0,0.0,0.0,0.0,0.0,0.0,0.0,0.0,0.0,0.0,0.0,0.0,0.0,0.0,0.0,0.0,0.0,0.0,0.0,0.0,0.0,0.0,0.0,0.0,0.0,0.0,0.0,0.0,0.0,0.0,0.0,0.0,0.0,0.0,0.0,0.0,0.0,0.0,0.0,0.0,0.0,0.0,0.0,0.0,0.0,0.0,0.0,0.0,0.0,0.0,0.0,0.0,0.0,0.0,0.0,0.0,0.0,0.0,0.0,0.0,0.0,0.0,0.0,0.0,0.0,0.0,0.0,0.0,0.0,0.0,0.0,0.0,0.0,0.0,0.0,0.0,0.0,0.0,0.0,0.0,0.0,0.0,0.0,0.0,0.0,0.0,0.0,-1.5105,-1.5119,-1.5099,-1.5099,-1.5052,-1.5052,0.0,0.0,0.0,0.0,0.0,0.0,0.0,0.0,0.0,0.0,0.0,0.0,0.0,0.0,0.0,0.0,0.0,0.0,0.0,0.0,0.0,0.0,0.0,0.0,0.0,0.0,0.0,0.0,0.0,0.0,0.0,0.0,0.0,0.0,0.0,0.0,0.0,0.0,0.0,0.0,0.0,0.0,0.0,0.0,0.0,0.0,0.0,0.0,0.0,0.0,0.0,0.0,0.0,0.0,0.0,0.0,0.0,0.0,0.0,0.0,0.0,0.0,0.0,0.0,0.0,0.0,0.0,0.0,0.0,0.0,0.0,0.0,0.0,0.0,0.0,0.0,0.0,0.0,0.0,0.0,0.0,0.0,0.0,0.0,0.0,0.0,0.0,0.0,0.0,0.0,0.0,0.0,0.0,0.0,0.0,0.0,0.0,0.0,0.0,0.0,0.0,0.0,0.0,0.0,0.0,0.0,0.0,0.0,0.0,-1.5068,0.0,-1.5076,-1.5057,-1.5015,-1.5008,0.0,0.0,0.0,0.0,0.0,0.0,0.0,0.0,0.0,0.0,0.0,0.0,0.0,0.0,0.0,0.0,0.0,0.0,0.0,0.0,0.0,0.0,0.0,0.0,0.0,0.0,0.0,0.0,0.0,0.0,0.0,0.0,0.0,0.0,0.0,0.0,0.0,0.0,0.0,0.0,0.0,0.0,0.0,0.0,0.0,0.0,0.0,0.0,0.0,0.0,0.0,0.0,0.0,0.0,0.0,0.0,0.0,0.0,0.0,0.0,0.0,0.0,0.0,0.0,0.0,0.0,0.0,0.0,0.0,0.0,0.0,0.0,0.0,0.0,0.0,0.0,0.0,0.0,0.0,0.0,0.0,0.0,0.0,0.0,0.0,0.0,0.0,0.0,0.0,0.0,0.0,0.0,0.0,0.0,0.0,0.0,0.0,0.0,0.0,0.0,0.0,0.0,0.0,0.0,0.0,0.0,0.0,0.0,-1.4957,-1.5014,-1.506,-1.5117,-1.5038,-1.5098,-1.506,0.0,0.0,0.0,0.0,0.0,0.0,0.0,0.0,0.0,0.0,0.0,0.0,0.0,0.0,0.0,0.0,0.0,0.0,0.0,0.0,0.0,0.0,0.0,0.0,0.0,0.0,0.0,0.0,0.0,0.0,0.0,0.0,0.0,0.0,0.0,0.0,0.0,0.0,0.0,0.0,0.0,0.0,0.0,0.0,0.0,0.0,0.0,0.0,0.0,0.0,0.0,0.0,0.0,0.0,0.0,0.0,0.0,0.0,0.0,0.0,0.0,0.0,0.0,0.0,0.0,0.0,0.0,0.0,0.0,0.0,0.0,0.0,0.0,0.0,0.0,0.0,0.0,0.0,0.0,0.0,0.0,0.0,0.0,0.0,0.0,0.0,0.0,0.0,0.0,0.0,0.0,0.0,0.0,0.0,0.0,0.0,0.0,0.0,0.0,0.0,0.0,0.0,0.0,0.0,0.0,0.0,0.0,0.0,0.0,-1.5772,-1.6309,-1.6592,-1.6602,-1.6582,-1.6591,0.0,0.0,0.0,0.0,0.0,0.0,0.0,0.0,0.0,0.0,0.0,0.0,0.0,0.0,0.0,0.0,0.0,0.0,0.0,0.0,0.0,0.0,0.0,0.0,0.0,0.0,0.0,0.0,0.0,0.0,0.0,0.0,0.0,0.0,0.0,0.0,0.0,0.0,0.0,0.0,0.0,0.0,0.0,0.0,0.0,0.0,0.0,0.0,0.0,0.0,0.0,0.0,0.0,0.0,0.0,0.0,0.0,0.0,0.0,0.0,0.0,0.0,0.0,0.0,0.0,0.0,0.0,0.0,0.0,0.0,0.0,0.0,0.0,0.0,0.0,0.0,0.0,0.0,0.0,0.0,0.0,0.0,0.0,0.0,0.0,0.0,0.0,0.0,0.0,0.0,0.0,0.0,0.0,0.0,0.0,0.0,0.0,0.0,0.0,0.0,0.0,0.0,0.0,0.0,0.0,0.0,0.0,0.0,0.0,-1.7416,-1.7615,-1.772,-1.7761,-1.7727,-1.7566,-1.7288,0.0,0.0,0.0,0.0,0.0,0.0,0.0,0.0,0.0,0.0,0.0,0.0,0.0,0.0,0.0,0.0,0.0,0.0,0.0,0.0,0.0,0.0,0.0,0.0,0.0,0.0,0.0,0.0,0.0,0.0,0.0,0.0,0.0,0.0,0.0,0.0,0.0,0.0,0.0,0.0,0.0,0.0,0.0,0.0,0.0,0.0,0.0,0.0,0.0,0.0,0.0,0.0,0.0,0.0,0.0,0.0,0.0,0.0,0.0,0.0,0.0,0.0,0.0,0.0,0.0,0.0,0.0,0.0,0.0,0.0,0.0,0.0,0.0,0.0,0.0,0.0,0.0,0.0,0.0,0.0,0.0,0.0,0.0,0.0,0.0,0.0,0.0,0.0,0.0,0.0,0.0,0.0,0.0,0.0,0.0,0.0,0.0,0.0,0.0,0.0,0.0,0.0,0.0,0.0,0.0,0.0,0.0,0.0,-1.9731,-1.9031,-1.8715,-1.8739,-1.8603,-1.8199,0.0,0.0,0.0,0.0,0.0,0.0,0.0,0.0,0.0,0.0,0.0,0.0,0.0,0.0,0.0,0.0,0.0,0.0,0.0,0.0,0.0,0.0,0.0,0.0,0.0,0.0,0.0,0.0,0.0,0.0,0.0,0.0,0.0,0.0,0.0,0.0,0.0,0.0,0.0,0.0,0.0,0.0,0.0,0.0,0.0,0.0,0.0,0.0,0.0,0.0,0.0,0.0,0.0,0.0,0.0,0.0,0.0,0.0,0.0,0.0,0.0,0.0,0.0,0.0,0.0,0.0,0.0,0.0,0.0,0.0,0.0,0.0,0.0,0.0,0.0,0.0,0.0,0.0,0.0,0.0,0.0,0.0,0.0,0.0,0.0,0.0,0.0,0.0,0.0,0.0,0.0,0.0,0.0,0.0,0.0,0.0,0.0,0.0,0.0,0.0,0.0,0.0,0.0,0.0,0.0,0.0,0.0,0.0,0.0,-2.1242,-2.1718,-2.1689,-2.1156,-2.0532,-2.0057,0.0,0.0,0.0,0.0,0.0,0.0,0.0,0.0,0.0,0.0,0.0,0.0,0.0,0.0,0.0,0.0,0.0,0.0,0.0,0.0,0.0,0.0,0.0,0.0,0.0,0.0,0.0,0.0,0.0,0.0,0.0,0.0,0.0,0.0,0.0,0.0,0.0,0.0,0.0,0.0,0.0,0.0,0.0,0.0,0.0,0.0,0.0,0.0,0.0,0.0,0.0,0.0,0.0,0.0,0.0,0.0,0.0,0.0,0.0,0.0,0.0,0.0,0.0,0.0,0.0,0.0,0.0,0.0,0.0,0.0,0.0,0.0,0.0,0.0,0.0,0.0,0.0,0.0,0.0,0.0,0.0,0.0,0.0,0.0,0.0,0.0,0.0,0.0,0.0,0.0,0.0,0.0,0.0,0.0,0.0,0.0,0.0,0.0,0.0,0.0,0.0,0.0,0.0,0.0,0.0,0.0,0.0,0.0,-2.1167,-2.2428,-2.3314,-2.3552,-2.3122,-2.1937,-2.1124,0.0,0.0,0.0,0.0,0.0,0.0,0.0,0.0,0.0,0.0,0.0,0.0,0.0,0.0,0.0,0.0,0.0,0.0,0.0,0.0,0.0,0.0,0.0,0.0,0.0,0.0,0.0,0.0,0.0,0.0,0.0,0.0,0.0,0.0,0.0,0.0,0.0,0.0,0.0,0.0,0.0,0.0,0.0,0.0,0.0,0.0,0.0,0.0,0.0,0.0,0.0,0.0,0.0,0.0,0.0,0.0,0.0,0.0,0.0,0.0,0.0,0.0,0.0,0.0,0.0,0.0,0.0,0.0,0.0,0.0,0.0,0.0,0.0,0.0,0.0,0.0,0.0,0.0,0.0,0.0,0.0,0.0,0.0,0.0,0.0,0.0,0.0,0.0,0.0,0.0,0.0,0.0,0.0,0.0,0.0,0.0,0.0,0.0,0.0,0.0,0.0,0.0,0.0,0.0,0.0,0.0,0.0,0.0,-2.2627,-2.3444,-2.4222,-2.463,-2.4557,-2.2906,-2.1662,0.0,0.0,0.0,0.0,0.0,0.0,0.0,0.0,0.0,0.0,0.0,0.0,0.0,0.0,0.0,0.0,0.0,0.0,0.0,0.0,0.0,0.0,0.0,0.0,0.0,0.0,0.0,0.0,0.0,0.0,0.0,0.0,0.0,0.0,0.0,0.0,0.0,0.0,0.0,0.0,0.0,0.0,0.0,0.0,0.0,0.0,0.0,0.0,0.0,0.0,0.0,0.0,0.0,0.0,0.0,0.0,0.0,0.0,0.0,0.0,0.0,0.0,0.0,0.0,0.0,0.0,0.0,0.0,0.0,0.0,0.0,0.0,0.0,0.0,0.0,0.0,0.0,0.0,0.0,0.0,0.0,0.0,0.0,0.0,0.0,0.0,0.0,0.0,0.0,0.0,0.0,0.0,0.0,0.0,0.0,0.0,0.0,0.0,0.0,0.0,0.0,0.0,0.0,0.0,0.0,0.0,0.0,0.0,-2.4282,-2.506,-2.53,-2.543,-2.5375,-2.3186,-2.1906,0.0,0.0,0.0,0.0,0.0,0.0,0.0,0.0,0.0,0.0,0.0,0.0,0.0,0.0,0.0,0.0,0.0,0.0,0.0,0.0,0.0,0.0,0.0,0.0,0.0,0.0,0.0,0.0,0.0,0.0,0.0,0.0,0.0,0.0,0.0,0.0,0.0,0.0,0.0,0.0,0.0,0.0,0.0,0.0,0.0,0.0,0.0,0.0,-1.3717,0.0,0.0,0.0,0.0,0.0,0.0,0.0,0.0,0.0,0.0,0.0,0.0,0.0,0.0,0.0,0.0,0.0,0.0,0.0,0.0,0.0,0.0,0.0,0.0,0.0,0.0,0.0,0.0,0.0,0.0,0.0,0.0,0.0,0.0,0.0,0.0,0.0,0.0,0.0,0.0,0.0,0.0,0.0,0.0,0.0,0.0,0.0,0.0,0.0,0.0,0.0,0.0,0.0,0.0,0.0,0.0,0.0,0.0,0.0,-2.4875,-2.5981,-2.6134,-2.6209,-2.6135,-2.4595,-2.3167,0.0,0.0,0.0,0.0,0.0,0.0,0.0,0.0,0.0,0.0,0.0,0.0,0.0,0.0,0.0,0.0,0.0,0.0,0.0,0.0,0.0,0.0,0.0,0.0,0.0,0.0,0.0,0.0,0.0,0.0,0.0,0.0,0.0,0.0,0.0,0.0,0.0,0.0,0.0,0.0,0.0,0.0,0.0,0.0,0.0,0.0,0.0,0.0,0.0,0.0,0.0,0.0,0.0,0.0,0.0,0.0,0.0,0.0,0.0,0.0,0.0,0.0,0.0,0.0,0.0,0.0,0.0,0.0,0.0,0.0,0.0,0.0,0.0,0.0,0.0,0.0,0.0,0.0,0.0,0.0,0.0,0.0,0.0,0.0,0.0,0.0,0.0,0.0,0.0,0.0,0.0,0.0,0.0,0.0,0.0,0.0,0.0,0.0,0.0,0.0,0.0,0.0,0.0,0.0,0.0,0.0,0.0,-2.3654,-2.5232,-2.671,-2.6859,-2.6908,-2.7007,-2.6098,-2.4504,-2.2196,0.0,0.0,0.0,0.0,0.0,0.0,0.0,0.0,0.0,0.0,0.0,0.0,0.0,0.0,0.0,0.0,0.0,0.0,0.0,0.0,0.0,0.0,0.0,0.0,0.0,0.0,0.0,0.0,0.0,0.0,0.0,0.0,0.0,0.0,0.0,0.0,0.0,0.0,-1.5802,-1.519,0.0,0.0,0.0,0.0,0.0,0.0,0.0,0.0,-1.3686,0.0,0.0,0.0,0.0,0.0,0.0,0.0,0.0,0.0,0.0,0.0,0.0,0.0,0.0,0.0,0.0,0.0,0.0,0.0,0.0,0.0,0.0,0.0,0.0,0.0,0.0,0.0,0.0,0.0,0.0,0.0,0.0,0.0,0.0,0.0,0.0,0.0,0.0,0.0,0.0,0.0,0.0,0.0,0.0,0.0,0.0,0.0,0.0,0.0,0.0,0.0,0.0,0.0,0.0,0.0,0.0,-2.4306,-2.5272,-2.6524,-2.8026,-2.7465,-2.7287,-2.7518,-2.6096,-2.4538,-2.2976,0.0,0.0,0.0,0.0,0.0,0.0,0.0,0.0,0.0,0.0,0.0,0.0,0.0,0.0,0.0,0.0,0.0,0.0,0.0,0.0,0.0,0.0,0.0,0.0,0.0,0.0,0.0,0.0,0.0,0.0,0.0,0.0,0.0,0.0,0.0,0.0,0.0,0.0,0.0,-1.5095,-1.461,0.0,0.0,0.0,0.0,0.0,0.0,0.0,0.0,-1.3791,0.0,0.0,0.0,0.0,0.0,0.0,0.0,0.0,0.0,0.0,0.0,0.0,0.0,0.0,0.0,0.0,0.0,0.0,0.0,0.0,0.0,0.0,0.0,0.0,0.0,0.0,0.0,0.0,0.0,0.0,0.0,0.0,0.0,0.0,0.0,0.0,0.0,0.0,0.0,0.0,0.0,0.0,0.0,0.0,0.0,0.0,0.0,0.0,0.0,0.0,0.0,0.0,0.0,0.0,0.0,-2.3968,-2.587,-2.7363,-2.8399,-2.8227,-2.8171,-2.8356,-2.7108,-2.533,0.0,0.0,0.0,0.0,0.0,0.0,0.0,0.0,0.0,0.0,0.0,0.0,0.0,0.0,0.0,0.0,0.0,0.0,0.0,0.0,0.0,0.0,0.0,0.0,0.0,0.0,0.0,0.0,0.0,0.0,0.0,0.0,0.0,0.0,0.0,0.0,0.0,0.0,0.0,0.0,-1.5206,-1.4945,-1.506,0.0,0.0,0.0,0.0,0.0,0.0,-1.4224,-1.38,0.0,0.0,0.0,0.0,0.0,0.0,0.0,0.0,0.0,0.0,0.0,0.0,0.0,0.0,0.0,0.0,0.0,0.0,0.0,0.0,0.0,0.0,0.0,0.0,0.0,0.0,0.0,0.0,0.0,0.0,0.0,0.0,0.0,0.0,0.0,0.0,0.0,0.0,0.0,0.0,0.0,0.0,0.0,0.0,0.0,0.0,0.0,0.0,0.0,0.0,0.0,0.0,0.0,0.0,0.0,-2.3629,-2.605,-2.7637,-2.8288,-2.8533,-2.87,-2.8803,-2.7815,-2.58,0.0,0.0,0.0,0.0,0.0,0.0,0.0,0.0,0.0,0.0,0.0,0.0,0.0,0.0,0.0,0.0,0.0,0.0,0.0,0.0,0.0,0.0,0.0,0.0,0.0,0.0,0.0,0.0,0.0,0.0,0.0,0.0,0.0,0.0,0.0,0.0,0.0,0.0,0.0,0.0,0.0,-1.5246,-1.5309,-1.4833,0.0,0.0,0.0,0.0,-1.4853,-1.4398,0.0,0.0,0.0,0.0,0.0,0.0,0.0,0.0,0.0,0.0,0.0,0.0,0.0,0.0,0.0,0.0,0.0,0.0,0.0,0.0,0.0,0.0,0.0,0.0,0.0,0.0,0.0,0.0,0.0,0.0,0.0,0.0,0.0,0.0,0.0,0.0,0.0,0.0,0.0,0.0,0.0,0.0,0.0,0.0,0.0,0.0,0.0,0.0,0.0,0.0,0.0,0.0,0.0,0.0,0.0,0.0,-2.5042,-2.6169,-2.7021,-2.7666,-2.7766,-2.7886,-2.8166,-2.678,-2.4938,0.0,0.0,0.0,0.0,0.0,0.0,0.0,0.0,0.0,0.0,0.0,0.0,0.0,0.0,0.0,0.0,0.0,0.0,0.0,0.0,0.0,0.0,0.0,0.0,0.0,0.0,0.0,0.0,0.0,0.0,0.0,0.0,0.0,0.0,0.0,0.0,0.0,0.0,0.0,0.0,0.0,-1.5061,-1.5346,-1.4833,-1.4351,0.0,0.0,-1.484,-1.4903,-1.5149,0.0,0.0,0.0,0.0,0.0,0.0,0.0,0.0,0.0,0.0,0.0,0.0,0.0,0.0,0.0,0.0,0.0,0.0,0.0,0.0,0.0,0.0,0.0,0.0,0.0,0.0,0.0,0.0,0.0,0.0,0.0,0.0,0.0,0.0,0.0,0.0,0.0,0.0,0.0,0.0,0.0,0.0,0.0,0.0,0.0,0.0,0.0,0.0,0.0,0.0,0.0,0.0,0.0,0.0,0.0,-2.2007,-2.5296,-2.6763,-2.7607,-2.7869,-2.7886,-2.7954,-2.8102,-2.6517,-2.4828,0.0,0.0,0.0,0.0,0.0,0.0,0.0,0.0,0.0,0.0,0.0,0.0,0.0,0.0,0.0,0.0,0.0,0.0,0.0,0.0,0.0,0.0,0.0,0.0,0.0,0.0,0.0,0.0,0.0,0.0,0.0,0.0,0.0,0.0,0.0,0.0,0.0,0.0,0.0,0.0,0.0,0.0,-1.5285,-1.5054,0.0,0.0,0.0,-1.4877,-1.4799,0.0,0.0,0.0,0.0,0.0,0.0,0.0,0.0,0.0,0.0,0.0,0.0,0.0,0.0,0.0,0.0,0.0,0.0,0.0,0.0,0.0,0.0,0.0,0.0,0.0,0.0,0.0,0.0,0.0,0.0,0.0,0.0,0.0,0.0,0.0,0.0,0.0,0.0,0.0,0.0,0.0,0.0,0.0,0.0,0.0,0.0,0.0,0.0,0.0,0.0,0.0,0.0,0.0,0.0,0.0,0.0,0.0,-2.5366,-2.7118,-2.7992,-2.7992,-2.7992,-2.7992,-2.7974,-2.6605,0.0,0.0,0.0,0.0,0.0,0.0,0.0,0.0,0.0,0.0,0.0,0.0,0.0,0.0,0.0,0.0,0.0,0.0,0.0,0.0,0.0,0.0,0.0,0.0,0.0,0.0,0.0,-1.6394,0.0,0.0,0.0,0.0,0.0,0.0,0.0,0.0,0.0,0.0,0.0,0.0,0.0,0.0,-1.5501,-1.5466,-1.5402,-1.5299,0.0,0.0,-1.5078,-1.496,-1.5245,-1.5149,0.0,0.0,0.0,0.0,0.0,0.0,0.0,0.0,0.0,0.0,0.0,0.0,0.0,0.0,0.0,0.0,0.0,0.0,0.0,0.0,0.0,0.0,0.0,0.0,0.0,0.0,0.0,0.0,0.0,0.0,0.0,0.0,0.0,0.0,0.0,0.0,0.0,0.0,0.0,0.0,0.0,0.0,0.0,0.0,0.0,0.0,0.0,0.0,0.0,0.0,0.0,0.0,0.0,0.0,0.0,-2.5314,-2.694,-2.7748,-2.773,-2.7713,-2.7713,-2.7695,-2.7014,-2.557,0.0,0.0,0.0,0.0,0.0,0.0,0.0,0.0,0.0,0.0,0.0,0.0,0.0,0.0,0.0,0.0,0.0,0.0,0.0,0.0,0.0,0.0,0.0,0.0,0.0,0.0,0.0,0.0,0.0,0.0,0.0,0.0,0.0,0.0,0.0,0.0,0.0,0.0,0.0,0.0,0.0,-1.5505,-1.6074,-1.5979,-1.583,0.0,0.0,-1.5643,-1.5643,-1.5703,-1.5404,-1.4337,0.0,0.0,0.0,0.0,0.0,0.0,0.0,0.0,0.0,0.0,0.0,0.0,0.0,0.0,0.0,0.0,0.0,0.0,0.0,0.0,0.0,0.0,0.0,0.0,0.0,0.0,0.0,0.0,0.0,0.0,0.0,0.0,0.0,0.0,0.0,0.0,0.0,0.0,0.0,0.0,0.0,0.0,0.0,0.0,0.0,0.0,0.0,0.0,0.0,0.0,0.0,0.0,0.0,-2.3049,-2.6104,-2.8157,-2.9193,-2.9176,-2.9176,-2.9176,-2.9176,-2.8421,-2.7397,0.0,0.0,0.0,0.0,0.0,0.0,0.0,0.0,0.0,0.0,0.0,0.0,0.0,0.0,0.0,0.0,0.0,0.0,0.0,0.0,0.0,0.0,0.0,0.0,0.0,0.0,0.0,0.0,-1.7654,-1.7608,-1.6955,0.0,0.0,0.0,0.0,0.0,0.0,0.0,0.0,0.0,0.0,-1.6502,-1.6587,-1.6837,0.0,0.0,-1.6779,-1.6566,-1.6058,-1.6223,-1.5888,-1.4413,-1.3293,0.0,0.0,0.0,0.0,0.0,0.0,0.0,0.0,0.0,0.0,0.0,0.0,0.0,0.0,0.0,0.0,0.0,0.0,0.0,0.0,0.0,0.0,0.0,0.0,0.0,0.0,0.0,0.0,0.0,0.0,0.0,0.0,0.0,0.0,0.0,0.0,0.0,0.0,0.0,0.0,0.0,0.0,0.0,0.0,0.0,0.0,0.0,0.0,0.0,0.0,0.0,0.0,-2.3751,-2.6578,-2.8912,-3.0106,-3.0106,-3.0106,-3.0106,-3.0088,-2.9562,-2.8895,0.0,0.0,0.0,0.0,0.0,0.0,0.0,0.0,0.0,0.0,0.0,0.0,0.0,0.0,0.0,0.0,0.0,0.0,0.0,0.0,0.0,0.0,0.0,0.0,0.0,0.0,0.0,0.0,-1.7574,-1.7209,-1.626,0.0,0.0,0.0,0.0,0.0,0.0,0.0,0.0,0.0,0.0,-1.732,-1.7106,-1.7364,-1.7492,-1.7149,-1.6898,-1.6573,-1.6016,-1.5852,-1.5416,-1.4332,0.0,0.0,0.0,0.0,0.0,0.0,0.0,0.0,0.0,0.0,0.0,0.0,0.0,0.0,0.0,0.0,0.0,0.0,0.0,0.0,0.0,0.0,0.0,0.0,0.0,0.0,0.0,0.0,0.0,0.0,-1.7112,0.0,0.0,0.0,0.0,0.0,0.0,0.0,0.0,0.0,0.0,0.0,0.0,0.0,0.0,0.0,0.0,0.0,0.0,0.0,0.0,0.0,0.0,-2.426,-2.6613,-2.8983,-3.0141,-3.0141,-3.0124,-3.0159,-3.0159,-3.0106,-2.972,-2.8895,0.0,0.0,0.0,0.0,0.0,0.0,0.0,0.0,0.0,0.0,0.0,0.0,0.0,0.0,0.0,0.0,0.0,0.0,0.0,0.0,0.0,0.0,0.0,0.0,0.0,0.0,-1.6442,-1.6509,-1.6289,0.0,0.0,0.0,0.0,0.0,0.0,0.0,0.0,0.0,0.0,-1.757,-1.7816,-1.7683,-1.753,-1.7174,-1.6542,-1.5849,-1.5367,-1.5271,-1.4275,-1.361,0.0,0.0,0.0,0.0,0.0,0.0,0.0,0.0,0.0,0.0,0.0,0.0,0.0,0.0,0.0,0.0,0.0,0.0,0.0,0.0,0.0,0.0,0.0,0.0,0.0,0.0,0.0,-2.0269,-2.016,0.0,0.0,0.0,0.0,0.0,0.0,0.0,0.0,0.0,0.0,0.0,-2.4345,-2.3827,0.0,0.0,0.0,0.0,0.0,0.0,0.0,0.0,0.0,0.0,0.0,0.0,-2.5033,-2.7332,-3.0176,-3.1633,-3.1616,-3.1633,-3.1633,-3.1616,-3.1633,-3.1036,-2.9737,0.0,0.0,0.0,0.0,0.0,0.0,0.0,0.0,0.0,0.0,0.0,0.0,0.0,0.0,0.0,0.0,0.0,0.0,0.0,0.0,0.0,0.0,0.0,0.0,0.0,-1.7245,0.0,0.0,0.0,0.0,0.0,0.0,0.0,0.0,0.0,0.0,0.0,-1.7031,-1.7173,-1.7271,-1.7316,-1.7157,-1.6972,-1.6898,0.0,0.0,0.0,0.0,0.0,0.0,0.0,0.0,0.0,0.0,0.0,0.0,0.0,0.0,-1.0289,-1.0155,-0.9938,-0.9787,-0.9759,0.0,0.0,0.0,0.0,0.0,0.0,0.0,0.0,0.0,0.0,0.0,0.0,0.0,0.0,-2.2086,0.0,-2.0634,0.0,0.0,0.0,0.0,0.0,0.0,0.0,0.0,-2.5301,-2.649,-2.7522,-2.6972,-2.6658,0.0,-2.584,-2.4181,0.0,0.0,0.0,0.0,0.0,0.0,0.0,0.0,-2.5823,-2.8122,-3.0949,-3.2406,-3.2406,-3.2406,-3.2406,-3.2406,-3.2406,-3.1932,-3.0931,-2.9386,-2.7461,0.0,0.0,0.0,0.0,0.0,0.0,0.0,0.0,0.0,0.0,0.0,0.0,0.0,0.0,0.0,0.0,0.0,0.0,0.0,0.0,0.0,0.0,0.0,-1.7543,0.0,0.0,0.0,0.0,0.0,0.0,0.0,0.0,0.0,-1.6744,-1.7258,-1.7512,-1.7512,-1.7596,-1.742,-1.6687,0.0,0.0,0.0,0.0,0.0,0.0,0.0,-1.388,-1.368,-1.3979,-1.4195,-1.3998,-1.3425,-1.2895,-1.2512,0.0,0.0,-1.123,-1.0757,-1.042,-1.0334,-0.9635,-0.9027,-0.8934,-0.8662,-0.8408,0.0,0.0,0.0,0.0,0.0,0.0,0.0,0.0,-2.4674,-2.4109,0.0,-2.3248,0.0,0.0,0.0,0.0,0.0,-2.366,0.0,0.0,-2.872,-3.0006,-2.926,-2.907,-2.8983,-2.8965,-2.8228,-2.7824,-2.7613,-2.4813,0.0,0.0,0.0,0.0,0.0,0.0,-2.6613,-2.893,-3.123,-3.2406,-3.2406,-3.2406,-3.2406,-3.2406,-3.2406,-3.2388,-3.2335,-3.0949,-2.9741,-2.8771,-2.501,0.0,0.0,0.0,0.0,0.0,0.0,0.0,0.0,0.0,0.0,0.0,0.0,0.0,0.0,0.0,0.0,0.0,0.0,0.0,0.0,-1.7988,0.0,0.0,0.0,0.0,0.0,0.0,0.0,0.0,0.0,0.0,-1.7289,-1.7824,-1.8074,-1.8022,0.0,0.0,0.0,0.0,-1.6573,-1.4837,-1.3733,-1.3078,-1.2884,-1.294,-1.3195,-1.3814,0.0,0.0,-1.486,-1.445,-1.3912,-1.3176,-1.3541,-1.3571,-1.1977,-1.1201,-1.0645,-1.0454,-1.0231,-1.0,-0.9888,-0.9681,-0.9592,-2.5815,0.0,0.0,0.0,0.0,-2.3942,-2.5133,-2.6465,-2.7222,-2.727,-2.6736,-2.5712,0.0,0.0,0.0,0.0,0.0,0.0,-2.6639,-2.8094,-2.9126,-2.9958,-3.0589,-3.056,-3.0843,-3.137,-3.1159,-3.0937,-3.0646,-3.0062,-2.7719,-2.3839,0.0,0.0,0.0,0.0,-2.7947,-2.9755,-3.1493,-3.2406,-3.2406,-3.2406,-3.2406,-3.2406,-3.2406,-3.2406,-3.2406,-3.1967,-3.0973,-2.9365,-2.7463,0.0,0.0,0.0,0.0,0.0,0.0,0.0,0.0,0.0,0.0,0.0,0.0,0.0,0.0,0.0,0.0,0.0,0.0,0.0,-1.8601,-1.9031,-1.8507,0.0,0.0,0.0,0.0,0.0,0.0,0.0,0.0,0.0,-1.7829,-1.7676,-1.7316,0.0,0.0,-1.5802,-1.5991,-1.5764,-1.5803,-1.6363,-1.5395,0.0,0.0,-1.4318,-1.39,-1.4268,-1.4977,-1.5447,-1.5163,-1.4995,-1.4656,-1.3875,-1.3427,-1.2983,-1.2597,-1.2207,-1.1916,-1.1858,-1.1279,-1.079,-1.071,-1.0477,-1.0309,-2.9206,-2.7152,-2.5526,-2.5129,-2.5591,-2.6305,-2.7521,-2.9045,-2.9399,-2.9525,-2.9472,-2.8742,-2.7768,-2.6662,-2.5965,0.0,0.0,0.0,-2.8951,-3.0558,-3.0624,-3.1089,-3.1848,-3.1735,-3.1932,-3.2371,-3.2284,-3.2091,-3.1894,-3.1795,-3.0279,-2.7404,0.0,0.0,-2.6179,-2.7484,-2.8965,-3.051,-3.1637,-3.2196,-3.2196,-3.2073,-3.2054,-3.2037,-3.2054,-3.2054,-3.2054,-3.2161,-3.1567,-3.0206,-2.8951,-2.6944,0.0,0.0,0.0,0.0,0.0,0.0,0.0,0.0,0.0,0.0,0.0,-1.6559,0.0,0.0,0.0,0.0,-1.8601,-1.9045,-1.9318,-1.9345,0.0,0.0,0.0,0.0,0.0,0.0,0.0,-1.6079,-1.6584,-1.7221,-1.809,-1.7987,-1.7748,-1.7434,-1.6699,-1.6228,-1.6419,0.0,-1.6411,-1.6824,-1.6068,-1.5493,-1.5673,-1.5346,-1.5184,-1.5685,-1.6161,-1.6284,-1.585,-1.5752,-1.5409,-1.4502,-1.3774,-1.332,-1.2949,-1.2758,-1.2515,-1.2212,-1.1706,-1.1343,-1.1328,-1.1114,-1.0975,-3.2101,-3.1887,-2.9439,-2.8373,-2.8367,-2.8955,-3.0051,-3.1356,-3.1197,-3.1073,-3.1072,-3.1785,-3.1316,-2.9964,-2.959,0.0,-3.0806,-3.1086,-3.1683,-3.2574,-3.2823,-3.2884,-3.2852,-3.2558,-3.2406,-3.2388,-3.2073,-3.1894,-3.186,-3.1219,-3.0695,-3.037,-2.9535,-2.8554,-2.7656,-2.8551,-2.9776,-3.118,-3.1655,-3.1858,-3.1875,-3.1617,-3.1504,-3.1504,-3.1466,-3.1466,-3.1466,-3.1674,-3.1582,-3.1016,-2.9711,-2.8377,-2.6951,0.0,0.0,0.0,0.0,0.0,0.0,0.0,0.0,0.0,0.0,0.0,0.0,0.0,0.0,0.0,-1.9576,0.0,-1.9768,-1.9252,0.0,0.0,0.0,-1.7027,-1.6488,-1.6372,-1.6713,-1.7773,0.0,0.0,-1.8324,-1.876,-1.9021,-1.9113,-1.889,-1.8377,-1.7433,-1.7893,-1.7964,-1.6895,-1.6307,-1.5975,-1.5913,-1.6206,-1.6748,-1.7378,-1.7678,-1.7328,-1.6618,-1.6439,-1.5949,-1.4684,-1.4374,-1.4016,-1.3266,-1.2952,-1.2609,-1.1899,-1.1718,-1.1648,-1.1725,-1.1703,-1.1633,-3.2982,-3.2943,-3.2307,-3.1975,-3.1865,-3.1815,-3.1976,-3.2267,-3.2087,-3.1939,-3.1842,-3.2011,-3.2255,-3.2497,-3.2266,-3.2627,-3.339,-3.3154,-3.3095,-3.3174,-3.2978,-3.2802,-3.2672,-3.2491,-3.2406,-3.2354,-3.2055,-3.1894,-3.1894,-3.1519,-3.1172,-3.0847,-3.0851,-3.0432,-2.9658,-3.0076,-3.0716,-3.1416,-3.1531,-3.1579,-3.1579,-3.1542,-3.1504,-3.1504,-3.1295,-3.1201,-3.1201,-3.105,-3.0834,-3.0502,-2.9972,-2.8952,-2.7397,-2.4761,0.0,0.0,0.0,0.0,0.0,0.0,0.0,0.0,0.0,-1.6379,-1.7049,0.0,-1.9459,0.0,-2.047,-2.0813,-2.0392,-2.017,0.0,0.0,-1.9144,-1.9128,-1.9279,-1.9696,-1.9819,-1.9476,-1.9813,-2.0048,-2.0118,-2.0201,-2.0408,-2.0714,-1.9667,-1.8874,-1.892,-1.9095,-1.9169,-1.8861,-1.8374,-1.8052,-1.777,-1.7592,-1.7481,-1.7637,-1.7688,-1.7297,-1.6137,-1.5911,-1.5474,-1.4175,-1.3711,-1.3514,-1.3372,-1.3148,-1.2975,-1.2602,-1.2365,-1.2292,-1.2299,-1.2284,-1.2284,-3.3837,-3.3856,-3.4264,-3.4376,-3.4216,-3.316,-3.2881,-3.3165,-3.2902,-3.2934,-3.3212,-3.3212,-3.3433,-3.3777,-3.3687,-3.3836,-3.4148,-3.3842,-3.3643,-3.3522,-3.3099,-3.2852,-3.2722,-3.2507,-3.2406,-3.2406,-3.1965,-3.1785,-3.1858,-3.1466,-3.1326,-3.1486,-3.1805,-3.1737,-3.1392,-3.1483,-3.184,-3.2439,-3.2298,-3.2178,-3.2056,-3.2015,-3.1712,-3.1015,-3.0526,-2.9811,-2.8782,-2.8753,-2.8412,-2.7718,-2.8217,-2.7996,-2.6885,-2.5227,-2.3321,0.0,0.0,0.0,0.0,0.0,0.0,0.0,0.0,0.0,0.0,0.0,-2.0662,-2.063,-2.1322,-2.1572,-2.0928,-2.0887,-2.0908,-2.0867,-2.0806,-2.0954,-2.1435,-2.1683,-2.1661,-2.1191,-2.1391,-2.155,-2.1472,-2.1419,-2.1457,-2.1744,-2.0911,-2.0216,-1.9951,-1.9849,-1.9805,-1.9815,-1.947,-1.908,-1.889,-1.8575,-1.8191,-1.7924,-1.7795,-1.7397,-1.6038,-1.5758,-1.5394,-1.4301,-1.4011,-1.3939,-1.387,-1.3731,-1.3585,-1.3314,-1.3167,-1.2917,-1.2584,-1.2526,-1.2526,-3.468,-3.473,-3.5488,-3.5791,-3.5666,-3.3795,-3.3403,-3.4044,-3.3715,-3.3944,-3.4602,-3.4602,-3.4495,-3.4358,-3.4293,-3.4197,-3.4023,-3.3807,-3.3698,-3.3671,-3.3147,-3.2916,-3.2884,-3.2541,-3.2388,-3.2319,-3.1832,-3.1754,-3.1977,-3.1472,-3.158,-3.2227,-3.2415,-3.2622,-3.2807,-3.2723,-3.2944,-3.3464,-3.3144,-3.2871,-3.2547,-3.2365,-3.1626,-3.0276,-2.9395,-2.7984,-2.5999,-2.6142,-2.5704,-2.4553,-2.595,-2.6631,-2.6176,-2.5406,-2.4335,0.0,-2.1964,0.0,0.0,0.0,0.0,0.0,0.0,0.0,0.0,-2.1423,-2.1718,-2.1786,-2.2179,-2.221,-2.1645,-2.1654,-2.1857,-2.2359,-2.2312,-2.2466,-2.2991,-2.2884,-2.2762,-2.2705,-2.2583,-2.246,-2.2308,-2.2268,-2.2197,-2.1975,-2.1849,-2.1355,-2.0582,-2.0346,-2.0226,-1.9992,-1.9651,-1.9339,-1.9162,-1.909,-1.8813,-1.821,-1.7978,-1.7465,-1.6048,-1.579,-1.5534,-1.4776,-1.4537,-1.4537,-1.4425,-1.441,-1.4266,-1.3954,-1.3875,-1.3566,-1.291,-1.2709,-1.2643,-3.5606,-3.5585,-3.5721,-3.5791,-3.5735,-3.5027,-3.4817,-3.4921,-3.4547,-3.447,-3.4602,-3.4602,-3.458,-3.4517,-3.4381,-3.4269,-3.4203,-3.3868,-3.3698,-3.3689,-3.3147,-3.2916,-3.2884,-3.2558,-3.2267,-3.2018,-3.22,-3.2337,-3.2376,-3.2396,-3.2567,-3.2959,-3.277,-3.2979,-3.3524,0.0,0.0,0.0,-3.2247,-3.1818,-3.1671,-3.0575,-2.9749,-2.9329,-2.7907,0.0,-2.6396,-2.6213,-2.5735,-2.4989,-2.6284,0.0,0.0,0.0,0.0,0.0,0.0,0.0,0.0,0.0,0.0,0.0,-2.1749,-2.1539,-2.0946,-2.1663,-2.2396,-2.2834,-2.2983,-2.2958,-2.285,-2.285,-2.2877,-2.2986,-2.3013,-2.319,-2.3649,-2.3592,-2.3405,-2.3193,-2.3068,-2.2761,-2.226,-2.2141,-2.1884,-2.1475,-2.1307,-2.1003,-2.0284,-2.0574,-2.0619,-1.9846,-1.9543,-1.9378,-1.9264,-1.925,-1.8957,-1.824,-1.8037,-1.7415,-1.6145,-1.5774,-1.5568,-1.4745,-1.4569,-1.4585,-1.4585,-1.4569,-1.4544,-1.4297,-1.4305,-1.4106,-1.3475,-1.3309,-1.3309,-3.5853,0.0,-3.5791,-3.5791,0.0,-3.5387,-3.5181,-3.5185,-3.4774,-3.4539,-3.445,-3.445,-3.4386,-3.4311,-3.4197,-3.4099,-3.3998,-3.3788,-3.3661,-3.352,-3.3104,-3.2916,-3.2902,-3.2774,-3.2593,-3.2446,-3.2707,-3.2904,-3.3042,-3.2787,-3.304,-3.3715,-3.3406,-3.3607,-3.4303,-3.4336,-3.4154,-3.3773,-3.3425,-3.3197,-3.3135,-3.2335,-3.1478,-3.0642,-2.9351,0.0,0.0,0.0,0.0,0.0,0.0,0.0,0.0,0.0,0.0,-2.4887,-2.4625,-2.3952,-2.2743,-2.3091,-2.3451,-2.3551,-2.3683,-2.3412,-2.246,-2.3185,-2.377,-2.4082,-2.4109,-2.4109,-2.4109,-2.4109,-2.4109,-2.4109,-2.4055,-2.408,-2.4225,-2.3857,-2.3444,-2.3297,-2.2895,-2.247,-2.2163,-2.1803,-2.1607,-2.1433,-2.1178,-2.0952,-2.0818,-2.0687,-2.0379,-2.0124,-2.0122,-2.0102,-1.9944,-1.953,-1.8954,-1.8251,-1.7682,-1.6956,-1.5944,-1.5771,-1.5618,-1.5261,-1.5146,-1.5149,-1.5149,-1.5157,-1.5083,-1.4942,-1.4867,-1.4793,-1.4321,-1.4007,-1.3783,-3.632,-3.627,-3.6254,-3.6187,-3.5996,-3.5618,-3.5304,-3.5076,0.0,0.0,0.0,-3.4293,-3.4197,-3.3998,-3.3947,-3.3842,-3.3698,-3.3597,-3.352,-3.3334,-3.3172,-3.3066,-3.3069,-3.3139,-3.3187,-3.3128,-3.3287,-3.349,-3.3643,-3.3261,-3.3511,-3.4303,-3.4126,-3.4286,-3.4849,-3.4899,-3.4899,-3.4899,-3.4767,-3.4653,-3.4589,-3.4151,-3.3272,-3.1927,-3.0868,-2.9371,-2.746,-2.7354,-2.701,-2.6261,-2.6934,-2.7331,-2.7331,-2.7063,-2.6375,-2.5321,-2.5344,-2.5003,-2.4016,-2.436,-2.4696,-2.4978,-2.5005,-2.4801,-2.4313,-2.472,-2.5005,-2.5005,-2.5005,-2.5005,-2.5005,-2.5005,-2.5005,-2.5005,-2.4892,-2.4821,-2.465,-2.3989,-2.342,-2.3148,-2.2629,-2.2133,-2.1981,-2.1632,-2.1407,-2.1629,-2.1364,-2.1112,-2.1385,-2.0926,-2.0543,-2.0744,-2.0839,-2.0896,-2.0623,-1.993,-1.8956,-1.8082,-1.7301,-1.6556,-1.5951,-1.5679,-1.5668,-1.5631,-1.5646,-1.5666,-1.5658,-1.5626,-1.5605,-1.5466,-1.5466,-1.5381,-1.5181,-1.4787,-1.4433,-3.8073,-3.804,-3.8027,-3.7605,-3.6889,-3.6485,-3.5696,-3.4691,-3.4645,-3.4495,-3.4293,-3.4293,-3.4197,-3.3998,-3.3815,-3.3726,-3.3671,-3.3357,-3.3178,-3.317,-3.3532,-3.3684,-3.3703,-3.3923,-3.3864,-3.3659,-3.3981,-3.4002,-3.3889,-3.43,-3.4698,-3.4764,-3.4797,-3.4783,-3.4883,-3.4899,-3.4899,-3.4883,-3.4286,-3.3799,-3.3451,-3.2229,-3.1329,-3.0747,-2.9486,-2.8535,-2.8084,-2.8084,-2.7708,-2.702,-2.7796,-2.8294,-2.8279,-2.7977,-2.751,-2.7039,-2.6582,-2.5852,-2.4915,-2.4885,-2.4966,-2.4991,-2.5005,-2.4964,-2.4896,-2.4964,-2.5005,-2.5005,-2.5005,-2.5005,-2.5005,-2.5005,-2.5005,-2.5005,-2.5005,-2.4835,-2.4447,-2.4144,-2.3569,-2.2751,-2.2735,-2.2374,-2.1715,-2.1823,-2.1879,-2.1727,-2.1666,-2.1549,-2.1566,-2.1344,-2.1209,-2.1403,-2.1328,-2.102,-2.0667,-1.9971,-1.9087,-1.7683,-1.7162,-1.6648,-1.5974,-1.5825,-1.5755,-1.5717,-1.5794,-1.5753,-1.5721,-1.5674,-1.5737,-1.5692,-1.57,-1.5668,-1.5614,-1.5549,-1.537,-3.8458,-3.8408,-3.8388,-3.8188,-3.7782,-3.7332,-3.6709,-3.5976,-3.5953,-3.525,-3.4185,-3.4148,-3.4023,-3.3815,-3.3615,-3.3587,-3.3689,-3.375,-3.3764,-3.3804,-3.4177,-3.4288,-3.4142,-3.4419,-3.4336,-3.4092,-3.4432,-3.4526,-3.4419,-3.475,-3.4899,-3.4899,-3.4899,-3.4899,-3.4899,-3.4899,-3.4899,-3.4883,-3.4568,-3.4244,-3.3892,-3.3128,-3.2531,-3.2254,-3.1469,-3.102,-3.0956,-3.0956,-3.0813,-3.048,-3.0292,-3.018,-3.0165,-2.9167,-2.8248,-2.7486,-2.6906,-2.6161,-2.5075,-2.5005,-2.5005,-2.5005,-2.5005,-2.5005,-2.5005,-2.5005,-2.5005,-2.5005,-2.5005,-2.5005,-2.5005,-2.5005,-2.5005,-2.5005,-2.4765,-2.4656,-2.4629,-2.4026,-2.3542,-2.3274,-2.2829,-2.2329,-2.1879,-2.1876,-2.2062,-2.2192,-2.2506,-2.2512,-2.2247,-2.1901,-2.1814,-2.1919,-2.176,-2.1471,-2.1166,-2.0177,-1.9259,-1.8502,-1.7657,-1.7079,-1.6613,-1.6445,-1.6293,-1.6285,-1.6221,-1.6261,-1.6238,-1.6254,-1.6254,-1.6254,-1.6254,-1.6254,-1.6254,-1.6254,-1.5856,-3.9014,-3.8999,-3.8974,-3.8801,-3.8498,-3.7945,-3.7471,-3.7122,-3.7103,-3.6142,-3.4652,-3.4349,-3.4144,-3.3889,-3.3753,-3.3844,-3.4102,-3.438,-3.4476,-3.4482,-3.4889,-3.4918,-3.4648,-3.4936,-3.4873,-3.4606,-3.4822,-3.4899,-3.4899,-3.4899,-3.4899,-3.4899,-3.4899,-3.4851,-3.4723,-3.4691,-3.4691,-3.4643,-3.4643,-3.4546,-3.4399,-3.4151,-3.3848,-3.3487,-3.3193,-3.3065,-3.3011,-3.2958,-3.2973,-3.2942,-3.2068,-3.1535,-3.1381,-2.9978,-2.8712,-2.7704,-2.713,-2.6382,-2.532,-2.5073,-2.5005,-2.5005,-2.5005,-2.5005,-2.5018,-2.5127,-2.5141,-2.5032,-2.4878,-2.4835,-2.4791,-2.4869,-2.4851,-2.4865,-2.4563,-2.4468,-2.4648,-2.384,-2.3296,-2.3532,-2.2981,-2.2455,-2.2327,-2.2195,-2.2286,-2.2639,-2.3066,-2.297,-2.2486,-2.2109,-2.1943,-2.1999,-2.1816,-2.1507,-2.1415,-2.0275,-1.9404,-1.9222,-1.8238,-1.7568,-1.735,-1.7041,-1.6804,-1.669,-1.6624,-1.6667,-1.6714,-1.6706,-1.6683,-1.6659,-1.6651,-1.669,-1.6667,-1.6257,-1.5973,-4.073,-4.0766,-4.0613,-4.0002,-3.8904,-3.8098,-3.7528,-3.7182,-3.7141,-3.6771,-3.6112,-3.5401,-3.4908,-3.454,-3.4498,-3.478,-3.5249,-3.5162,-3.5028,-3.4925,-3.5432,-3.5535,-3.5272,-3.5591,-3.5603,-3.5261,-3.5038,-3.4899,-3.4899,-3.4899,-3.4899,-3.4899,-3.4899,-3.4626,-3.425,-3.4201,-3.405,-3.3797,-3.3797,-3.3899,-3.4101,-3.3899,-3.3419,-3.2711,-3.2656,-3.2477,-3.2104,-3.2048,-3.2048,-3.1992,-3.1607,-3.1174,-3.0793,-2.9783,-2.8819,-2.814,-2.7502,-2.6785,-2.5904,-2.5303,-2.5059,-2.5005,-2.5073,-2.5073,-2.5043,-2.552,-2.5575,-2.5094,-2.462,-2.45,-2.439,-2.4437,-2.4481,-2.4519,-2.4481,-2.4414,-2.4075,-2.3616,-2.3176,-2.2763,-2.3121,-2.3163,-2.2831,-2.2956,-2.2952,-2.2243,-2.2317,-2.2197,-2.1553,-2.1359,-2.1231,-2.1247,-2.1231,-2.1001,-2.0547,-2.0001,-1.9381,-1.8843,-1.8362,-1.7878,-1.7554,-1.731,-1.7221,-1.673,-1.673,-1.673,-1.673,-1.673,-1.673,-1.6656,-1.6656,-1.6656,-1.6566,-1.5816,-1.5191,-4.0969,-4.0921,-4.0906,-4.0455,-3.9682,-3.9329,-3.8954,-3.8587,-3.8587,-3.8065,-3.7211,-3.6814,-3.6193,-3.5349,-3.5313,-3.5399,-3.5493,-3.5772,-3.5687,-3.541,-3.5933,-3.5935,-3.5428,-3.5508,-3.5407,-3.5118,-3.493,-3.4899,-3.4835,-3.4611,-3.4448,-3.4431,-3.4399,-3.4134,-3.3646,-3.3783,-3.3732,-3.3298,-3.3018,-3.2949,-3.3055,-3.323,-3.2911,-3.2256,-3.2216,-3.2104,-3.1936,-3.1879,-3.1879,-3.1879,-3.1306,-3.0955,-3.0777,-2.969,-2.8809,-2.8215,-2.744,-2.6808,-2.647,-2.6199,-2.609,-2.6077,-2.609,-2.5959,-2.5648,-2.5815,-2.5694,-2.5219,-2.5214,-2.5214,-2.4848,-2.4682,-2.4558,-2.4443,-2.4156,-2.3875,-2.3998,-2.3626,-2.3329,-2.3511,-2.3527,-2.3435,-2.324,-2.3165,-2.2756,-2.209,-2.1852,-2.1589,-2.1103,-2.08,-2.0479,-2.0157,-2.0079,-2.0157,-2.0089,-1.9766,-1.9381,-1.8993,-1.8434,-1.7878,-1.7797,-1.7221,-1.6902,-1.6738,-1.6738,-1.673,-1.673,-1.673,-1.673,-1.6656,-1.6319,-1.6064,-1.6072,-1.5318,-1.497,-4.0978,-4.0897,-4.0829,-4.0519,-4.0136,-4.0119,-3.9918,-3.9626,-3.962,-3.9018,-3.8071,-3.8034,-3.7477,-3.6522,-3.6254,-3.6121,-3.6193,-3.6453,-3.6374,-3.599,-3.6225,-3.5985,-3.5424,-3.5379,-3.5195,-3.4947,-3.4899,-3.4804,-3.4643,-3.43,-3.405,-3.3882,-3.3866,-3.3543,-3.2971,-3.3219,-3.3061,-3.261,-3.2226,-3.2059,-3.2074,-3.2351,-3.2296,-3.1766,-3.1709,-3.1652,-3.1537,-3.1537,-3.148,-3.1364,-3.0911,-3.0553,-3.0297,-2.9526,-2.8843,-2.8339,-2.7516,-2.7067,-2.7067,-2.6918,-2.6823,-2.6823,-2.6688,-2.6444,-2.6087,-2.6005,-2.5703,-2.519,-2.5588,-2.5601,-2.5065,-2.4648,-2.4448,-2.4394,-2.3744,-2.3548,-2.3886,-2.3544,-2.3417,-2.3756,-2.3526,-2.3372,-2.315,-2.2617,-2.2014,-2.1482,-2.1308,-2.1118,-2.0595,-2.0194,-1.9766,-1.9381,-1.9301,-1.946,-1.9854,-1.9618,-1.9292,-1.9222,-1.8754,-1.8434,-1.8201,-1.7554,-1.6984,-1.7147,-1.6902,-1.6738,-1.673,-1.673,-1.673,-1.6566,-1.6229,-1.5733,-1.5816,-1.5068,-1.4552,-4.0978,-4.0878,-4.0636,-4.029,-3.9922,-3.9918,-3.98,-3.962,-3.962,-3.929,-3.8828,-3.8799,-3.853,-3.792,-3.7199,-3.7241,-3.763,-3.7232,-3.6851,-3.6574,-3.613,-3.5749,-3.5424,-3.5379,-3.5195,-3.4899,-3.4851,-3.4594,-3.4151,-3.405,-3.3832,-3.3251,-3.3251,-3.2879,-3.2296,-3.2226,-3.2033,-3.1652,-3.1537,-3.148,-3.1394,-3.1394,-3.1379,-3.1336,-3.1336,-3.1102,-3.0747,-3.0702,-3.0582,-3.0233,-3.0158,-2.9851,-2.9275,-2.9162,-2.8881,-2.8529,-2.799,-2.7664,-2.761,-2.7216,-2.6857,-2.6769,-2.6467,-2.6051,-2.5994,-2.6039,-2.5602,-2.4798,-2.5188,-2.5227,-2.4649,-2.4321,-2.407,-2.4036,-2.3798,-2.3593,-2.3588,-2.3261,-2.3032,-2.3075,-2.3075,-2.2703,-2.2252,-2.1624,-2.1175,-2.0712,-2.0401,-2.0186,-1.9813,-1.9487,-1.9381,-1.9381,-1.9292,-1.9292,-1.9381,-1.9381,-1.9292,-1.9222,-1.9073,-1.8993,-1.8683,-1.829,-1.7806,-1.7392,-1.6984,-1.673,-1.673,-1.673,-1.673,-1.6484,-1.6064,-1.5733,-1.5484,-1.4489,-1.3971,-4.0879,-4.068,-4.0506,-4.0229,-3.9901,-3.9876,-3.9777,-3.962,-3.962,-3.9328,-3.8968,-3.891,-3.8578,-3.8003,-3.7451,-3.7363,-3.7649,-3.7147,-3.6678,-3.6207,-3.5793,-3.5407,-3.5118,-3.5071,-3.5024,-3.4899,-3.4546,-3.4068,-3.3527,-3.3177,-3.2926,-3.2695,-3.2555,-3.2185,-3.1709,-3.1751,-3.158,-3.1087,-3.0984,-3.0925,-3.0866,-3.0866,-3.0866,-3.0866,-3.0881,-3.0747,-3.0642,-3.0642,-3.0462,-3.0111,-2.9865,-2.9602,-2.9162,-2.8908,-2.8716,-2.8573,-2.8397,-2.8275,-2.8248,-2.8071,-2.7759,-2.7426,-2.7298,-2.6661,-2.5971,-2.5716,-2.5428,-2.4708,-2.453,-2.4507,-2.4366,-2.4166,-2.4128,-2.408,-2.3772,-2.353,-2.3298,-2.3075,-2.3001,-2.2927,-2.2703,-2.2014,-2.1165,-2.0702,-2.0323,-1.9854,-1.9696,-1.9618,-1.9469,-1.9301,-1.9292,-1.9292,-1.9292,-1.9292,-1.9292,-1.9292,-1.9292,-1.9222,-1.9073,-1.8683,-1.8371,-1.8049,-1.7554,-1.7229,-1.6902,-1.673,-1.673,-1.673,-1.673,-1.6574,-1.6154,-1.5741,-1.5159,-1.4405,-1.373,-4.0751,-4.0468,-4.0351,-4.0101,-3.981,-3.9717,-3.9594,-3.9458,-3.9406,-3.9147,-3.8803,-3.8695,-3.8401,-3.7881,-3.7376,-3.7208,-3.7261,-3.6701,-3.619,-3.5803,-3.5407,-3.5118,-3.4899,-3.4756,-3.4643,-3.4546,-3.4068,-3.3527,-3.2949,-3.2586,-3.2287,-3.2048,-3.1936,-3.161,-3.1204,-3.1306,-3.1204,-3.0807,-3.0642,-3.0642,-3.0642,-3.0642,-3.0582,-3.0462,-3.0462,-3.0476,-3.0462,-3.0326,-3.0158,-2.9803,-2.954,-2.9289,-2.8972,-2.8716,-2.8587,-2.8587,-2.8587,-2.8587,-2.8587,-2.8587,-2.8379,-2.7855,-2.7484,-2.6812,-2.5697,-2.5346,-2.4802,-2.425,-2.4116,-2.42,-2.4055,-2.4116,-2.4116,-2.397,-2.3666,-2.3298,-2.3065,-2.3001,-2.2916,-2.2617,-2.1928,-2.1088,-2.0391,-2.0079,-1.9775,-1.9381,-1.9381,-1.9301,-1.9381,-1.9301,-1.9292,-1.9292,-1.9292,-1.9292,-1.9292,-1.9292,-1.9292,-1.9222,-1.9231,-1.8763,-1.8282,-1.7878,-1.7473,-1.7147,-1.6902,-1.673,-1.673,-1.673,-1.6656,-1.6656,-1.6402,-1.5989,-1.5235,-1.4489,-1.3808,-4.0563,-4.0221,-4.012,-3.9916,-3.9607,-3.9388,-3.9237,-3.921,-3.9036,-3.8833,-3.8572,-3.8332,-3.8119,-3.7757,-3.7129,-3.6816,-3.6638,-3.6062,-3.5715,-3.5627,-3.5178,-3.4947,-3.4899,-3.4399,-3.4084,-3.3933,-3.3475,-3.2895,-3.2382,-3.2287,-3.1951,-3.1452,-3.1336,-3.1161,-3.0836,-3.0881,-3.0747,-3.0628,-3.0642,-3.0642,-3.0582,-3.0582,-3.0401,-3.0172,-3.0111,-3.005,-3.0036,-2.9803,-2.954,-2.924,-2.9162,-2.8972,-2.8716,-2.8587,-2.8587,-2.8587,-2.8587,-2.8587,-2.8587,-2.8522,-2.8249,-2.7709,-2.6934,-2.6171,-2.5487,-2.4731,-2.4116,-2.374,-2.3897,-2.397,-2.374,-2.3897,-2.397,-2.3677,-2.3383,-2.315,-2.3001,-2.299,-2.2767,-2.2101,-2.1165,-2.0323,-2.0089,-1.9696,-1.9469,-1.9469,-1.939,-1.9381,-1.9469,-1.939,-1.9292,-1.9292,-1.9292,-1.9292,-1.9292,-1.9292,-1.9292,-1.9292,-1.9301,-1.9073,-1.8754,-1.8353,-1.7797,-1.7473,-1.6902,-1.6738,-1.673,-1.673,-1.673,-1.6648,-1.6402,-1.6072,-1.5235,-1.4398,-1.3808,-4.0523,-4.0189,-4.0,-3.9796,-3.9577,-3.9309,-3.9192,-3.9165,-3.8979,-3.8725,-3.8491,-3.8281,-3.8,-3.7559,-3.6781,-3.6316,-3.6122,-3.5481,-3.527,-3.5345,-3.5071,-3.4899,-3.4804,-3.4349,-3.361,-3.2841,-3.2446,-3.2018,-3.1625,-3.1524,-3.1351,-3.119,-3.0999,-3.0881,-3.0821,-3.0702,-3.0642,-3.0642,-3.0642,-3.0642,-3.0568,-3.0341,-3.0233,-3.005,-2.9665,-2.9415,-2.9415,-2.954,-2.9415,-2.9113,-2.9113,-2.8972,-2.8651,-2.8587,-2.8587,-2.8587,-2.8587,-2.8587,-2.8522,-2.8249,-2.7842,-2.7229,-2.6389,-2.5499,-2.4743,-2.4105,-2.3593,-2.3298,-2.3298,-2.3298,-2.3224,-2.3298,-2.3446,-2.3604,-2.3446,-2.3235,-2.2927,-2.2617,-2.209,-2.1548,-2.0702,-2.0079,-1.9687,-1.9381,-1.9301,-1.9381,-1.9301,-1.9301,-1.9381,-1.9381,-1.9301,-1.9292,-1.9292,-1.9292,-1.9292,-1.9292,-1.9292,-1.9292,-1.9301,-1.9222,-1.8993,-1.8514,-1.8031,-1.7546,-1.7066,-1.682,-1.673,-1.673,-1.673,-1.6484,-1.6237,-1.565,-1.4901,-1.423,-1.3639,-4.0425,-4.0156,-3.9873,-3.9613,-3.9432,-3.9183,-3.9017,-3.8931,-3.8725,-3.8478,-3.8252,-3.8068,-3.7703,-3.7206,-3.6457,-3.5977,-3.5644,-3.5148,-3.4883,-3.4913,-3.4723,-3.4691,-3.4756,-3.4068,-3.3002,-3.1921,-3.1652,-3.1437,-3.1132,-3.1087,-3.1087,-3.0955,-3.0836,-3.0762,-3.0702,-3.0642,-3.0642,-3.0582,-3.0447,-3.0401,-3.0341,-3.0111,-2.9865,-2.9665,-2.9289,-2.9035,-2.8972,-2.9099,-2.9162,-2.8972,-2.8908,-2.878,-2.8587,-2.8457,-2.8327,-2.8262,-2.8118,-2.7987,-2.7987,-2.7643,-2.7162,-2.6552,-2.5779,-2.5004,-2.4177,-2.3593,-2.3224,-2.3075,-2.315,-2.3139,-2.3075,-2.315,-2.3298,-2.3298,-2.3372,-2.315,-2.2703,-2.209,-2.1482,-2.0857,-2.0245,-1.9775,-1.945,-1.9292,-1.9292,-1.9292,-1.9292,-1.9292,-1.9292,-1.9292,-1.9292,-1.9292,-1.9292,-1.9292,-1.9292,-1.9292,-1.9292,-1.9292,-1.9292,-1.9222,-1.9063,-1.8434,-1.787,-1.7302,-1.682,-1.6738,-1.673,-1.673,-1.6648,-1.6402,-1.6064,-1.5484,-1.4824,-1.4153,-1.3561,-4.0264,-4.0042,-3.9807,-3.9521,-3.921,-3.9007,-3.8785,-3.851,-3.834,-3.814,-3.7934,-3.7685,-3.7337,-3.6759,-3.6165,-3.5644,-3.5316,-3.4977,-3.448,-3.4184,-3.3984,-3.4068,-3.4251,-3.3407,-3.2296,-3.1292,-3.1132,-3.1073,-3.1014,-3.1014,-3.094,-3.0821,-3.0762,-3.0762,-3.0628,-3.0642,-3.0582,-3.0522,-3.0233,-3.005,-2.9988,-2.9602,-2.9275,-2.8958,-2.8958,-2.8766,-2.8587,-2.8651,-2.8651,-2.8587,-2.8651,-2.8587,-2.8444,-2.8039,-2.7855,-2.7776,-2.7229,-2.7095,-2.7027,-2.6824,-2.6483,-2.5697,-2.5146,-2.4587,-2.374,-2.3298,-2.3075,-2.3001,-2.3298,-2.3372,-2.315,-2.3224,-2.3298,-2.3001,-2.2927,-2.2703,-2.2176,-2.1558,-2.0934,-2.0313,-1.9687,-1.9292,-1.9301,-1.9292,-1.9292,-1.9292,-1.9292,-1.9292,-1.9292,-1.9292,-1.9292,-1.9292,-1.9292,-1.9292,-1.9292,-1.9292,-1.9292,-1.9292,-1.9292,-1.9143,-1.8904,-1.8273,-1.7708,-1.7147,-1.6738,-1.673,-1.673,-1.673,-1.6566,-1.6312,-1.5899,-1.5409,-1.4741,-1.3984,-1.3392,-4.012,-3.9941,-3.9712,-3.9464,-3.9183,-3.8979,-3.8725,-3.8478,-3.8256,-3.8038,-3.7828,-3.7429,-3.7052,-3.6736,-3.5924,-3.5283,-3.4816,-3.4464,-3.4018,-3.3423,-3.2841,-3.2734,-3.2756,-3.2431,-3.1736,-3.094,-3.0821,-3.0687,-3.0762,-3.0762,-3.0702,-3.0628,-3.0702,-3.0642,-3.0642,-3.0582,-3.0476,-3.0219,-2.9761,-2.9373,-2.9058,-2.8468,-2.8012,-2.796,-2.8105,-2.8105,-2.8039,-2.8392,-2.8587,-2.8587,-2.8587,-2.8392,-2.8052,-2.7842,-2.7577,-2.7175,-2.6812,-2.6526,-2.6377,-2.5906,-2.5429,-2.5134,-2.4443,-2.3886,-2.3677,-2.3235,-2.3075,-2.3001,-2.3075,-2.3086,-2.3001,-2.3075,-2.2852,-2.2488,-2.2327,-2.2176,-2.1863,-2.1165,-2.0391,-2.0157,-1.9608,-1.9371,-1.9292,-1.9292,-1.9292,-1.9292,-1.9292,-1.9292,-1.9292,-1.9292,-1.9292,-1.9292,-1.9292,-1.9292,-1.9292,-1.9292,-1.9292,-1.9292,-1.9222,-1.9073,-1.8674,-1.804,-1.7473,-1.682,-1.6738,-1.673,-1.673,-1.673,-1.6484,-1.6229,-1.5567,-1.4908,-1.4146,-1.3392,-1.3052,-3.9979,-3.981,-3.9679,-3.9406,-3.9073,-3.895,-3.8683,-3.8336,-3.7966,-3.7739,-3.7449,-3.6956,-3.6539,-3.6182,-3.5633,-3.5021,-3.4431,-3.4168,-3.3646,-3.2788,-3.2145,-3.1751,-3.1637,-3.1679,-3.1407,-3.0747,-3.0642,-3.0642,-3.0642,-3.0642,-3.0642,-3.0642,-3.0642,-3.0507,-3.0401,-3.0416,-3.0219,-2.9837,-2.9261,-2.8789,-2.8532,-2.7749,-2.7364,-2.7297,-2.7443,-2.7443,-2.751,-2.7776,-2.8118,-2.8392,-2.8392,-2.8118,-2.7776,-2.7377,-2.704,-2.6633,-2.607,-2.5709,-2.5652,-2.5028,-2.4599,-2.4383,-2.3813,-2.3593,-2.3372,-2.315,-2.3001,-2.3001,-2.2777,-2.2628,-2.2553,-2.2392,-2.209,-2.1797,-2.1482,-2.1328,-2.1328,-2.0624,-2.0157,-1.9844,-1.9539,-1.9292,-1.9292,-1.9292,-1.9292,-1.9292,-1.9292,-1.9292,-1.9292,-1.9292,-1.9292,-1.9292,-1.9292,-1.9292,-1.9292,-1.9292,-1.9222,-1.9222,-1.8825,-1.8754,-1.8353,-1.7797,-1.731,-1.6902,-1.6738,-1.673,-1.673,-1.6648,-1.6402,-1.5982,-1.5151,-1.4482,-1.3815,-1.3137,-1.279,-3.9769,-3.9647,-3.9558,-3.9256,-3.8892,-3.8803,-3.846,-3.8018,-3.7487,-3.7152,-3.69,-3.634,-3.5786,-3.5316,-3.5052,-3.4642,-3.3882,-3.3781,-3.314,-3.2327,-3.1552,-3.1161,-3.0984,-3.1364,-3.119,-3.0687,-3.0642,-3.0642,-3.0642,-3.0642,-3.0642,-3.0582,-3.0582,-3.0401,-3.0158,-2.9988,-2.9789,-2.9261,-2.8468,-2.8012,-2.7749,-2.7082,-2.6688,-2.6688,-2.6837,-2.6973,-2.704,-2.7095,-2.7364,-2.8314,-2.7921,-2.7643,-2.7443,-2.6552,-2.6082,-2.5816,-2.5194,-2.4706,-2.4646,-2.4334,-2.397,-2.3666,-2.3593,-2.3372,-2.315,-2.3001,-2.3001,-2.3001,-2.2478,-2.2176,-2.1939,-2.1471,-2.1165,-2.1011,-2.0557,-2.0167,-2.0089,-2.0089,-1.9932,-1.946,-1.9301,-1.9292,-1.9292,-1.9292,-1.9292,-1.9292,-1.9292,-1.9292,-1.9292,-1.9292,-1.9292,-1.9292,-1.9292,-1.9292,-1.9292,-1.9292,-1.9222,-1.9152,-1.8505,-1.8193,-1.7942,-1.7546,-1.7147,-1.6902,-1.673,-1.673,-1.673,-1.6566,-1.6319,-1.5733,-1.4985,-1.4321,-1.373,-1.313,-1.2705,-3.9427,-3.9272,-3.912,-3.8892,-3.8572,-3.8263,-3.7893,-3.747,-3.7002,-3.6609,-3.6256,-3.5559,-3.5015,-3.4688,-3.4087,-3.3303,-3.2873,-3.2765,-3.2231,-3.1467,-3.1102,-3.0807,-3.0687,-3.0911,-3.0807,-3.0582,-3.0582,-3.0582,-3.0582,-3.0447,-3.0582,-3.0507,-3.0144,-3.0172,-2.9988,-2.9324,-2.8931,-2.8468,-2.7511,-2.7002,-2.6688,-2.6126,-2.5804,-2.5791,-2.6151,-2.6577,-2.6824,-2.6663,-2.665,-2.6867,-2.6947,-2.6756,-2.6252,-2.5918,-2.5441,-2.4814,-2.425,-2.3897,-2.3824,-2.3604,-2.3224,-2.3224,-2.3224,-2.3075,-2.3075,-2.3001,-2.3001,-2.2916,-2.2467,-2.1863,-2.1318,-2.0779,-2.0469,-2.0313,-1.9923,-1.9539,-1.946,-1.9529,-1.945,-1.9371,-1.9292,-1.9292,-1.9292,-1.9292,-1.9292,-1.9292,-1.9292,-1.9292,-1.9292,-1.9292,-1.9292,-1.9292,-1.9292,-1.9292,-1.9301,-1.9222,-1.9073,-1.8834,-1.8273,-1.7853,-1.7602,-1.7294,-1.6976,-1.682,-1.673,-1.673,-1.673,-1.6648,-1.6402,-1.5567,-1.4734,-1.4146,-1.347,-1.296,-1.2443,-3.9264,-3.9156,-3.8759,-3.8548,-3.841,-3.7859,-3.7488,-3.7137,-3.6312,-3.5822,-3.5408,-3.4558,-3.4054,-3.3937,-3.3339,-3.2841,-3.2272,-3.1894,-3.1509,-3.0999,-3.0821,-3.0762,-3.0507,-3.0372,-3.0251,-3.0266,-3.0068,-3.0007,-2.9822,-2.9608,-2.9331,-2.947,-2.9233,-2.9107,-2.9135,-2.8546,-2.8222,-2.7894,-2.7002,-2.6346,-2.6151,-2.5594,-2.5312,-2.5312,-2.5594,-2.5873,-2.5886,-2.5804,-2.5581,-2.5499,-2.5569,-2.5639,-2.5358,-2.5087,-2.4671,-2.425,-2.3813,-2.3593,-2.3519,-2.3224,-2.3001,-2.3001,-2.3001,-2.3001,-2.3001,-2.3001,-2.2852,-2.2553,-2.2014,-2.1318,-2.0459,-2.0079,-1.9854,-1.9775,-1.9529,-1.9292,-1.9292,-1.9292,-1.9292,-1.9292,-1.9292,-1.9292,-1.9292,-1.9292,-1.9292,-1.9292,-1.9292,-1.9292,-1.9292,-1.9292,-1.9292,-1.9292,-1.9292,-1.9292,-1.9222,-1.9152,-1.8922,-1.8603,-1.8121,-1.7764,-1.7479,-1.7107,-1.673,-1.673,-1.673,-1.673,-1.6648,-1.6566,-1.6319,-1.5318,-1.4566,-1.3893,-1.3209,-1.2699,-1.2186,-3.9129,-3.9027,-3.8382,-3.8209,-3.8216,-3.7452,-3.7061,-3.6851,-3.5569,-3.4922,-3.4591,-3.3582,-3.313,-3.3039,-3.2756,-3.2391,-3.1721,-3.119,-3.0687,-3.0312,-3.0433,-3.0387,-3.0251,-2.9931,-2.9685,-2.9837,-2.9373,-2.9121,-2.8803,-2.8403,-2.8376,-2.8247,-2.8065,-2.813,-2.8078,-2.7617,-2.7351,-2.7297,-2.6483,-2.6013,-2.5943,-2.5523,-2.5312,-2.5182,-2.5253,-2.5123,-2.4992,-2.4766,-2.455,-2.4116,-2.4043,-2.4238,-2.4443,-2.4394,-2.4055,-2.4043,-2.3593,-2.3446,-2.3372,-2.3224,-2.3001,-2.3001,-2.3001,-2.3001,-2.3001,-2.2852,-2.2553,-2.2101,-2.1482,-2.0624,-1.946,-1.9371,-1.9371,-1.9292,-1.9292,-1.9292,-1.9292,-1.9292,-1.9292,-1.9292,-1.9292,-1.9292,-1.9292,-1.9292,-1.9292,-1.9292,-1.9292,-1.9292,-1.9292,-1.9292,-1.9292,-1.9292,-1.9292,-1.9152,-1.9082,-1.8745,-1.8523,-1.8201,-1.7806,-1.7529,-1.7317,-1.7025,-1.673,-1.673,-1.673,-1.673,-1.673,-1.6648,-1.6064,-1.5068,-1.4482,-1.4055,-1.3288,-1.2351,-1.1837,-3.8815,-3.8554,-3.7911,-3.7632,-3.7524,-3.6666,-3.6215,-3.5959,-3.4844,-3.4333,-3.4052,-3.3071,-3.2547,-3.2382,-3.1823,-3.1175,-3.0569,-3.0237,-2.9808,-2.9421,-2.9608,-2.9747,-2.967,-2.9282,-2.9107,-2.8917,-2.8519,-2.8195,-2.8195,-2.8051,-2.7723,-2.7855,-2.7591,-2.755,-2.7351,-2.6892,-2.6496,-2.6552,-2.5943,-2.5594,-2.5523,-2.5382,-2.5099,-2.4909,-2.4849,-2.4634,-2.4406,-2.4273,-2.4116,-2.3751,-2.3372,-2.3298,-2.3434,-2.3593,-2.353,-2.3372,-2.3224,-2.315,-2.315,-2.3075,-2.3001,-2.3001,-2.2927,-2.2927,-2.2852,-2.2553,-2.2176,-2.1711,-2.1011,-2.0079,-1.9371,-1.9292,-1.9292,-1.9292,-1.9292,-1.9292,-1.9292,-1.9292,-1.9292,-1.9292,-1.9292,-1.9292,-1.9292,-1.9292,-1.9292,-1.9292,-1.9292,-1.9292,-1.9292,-1.9292,-1.9292,-1.9292,-1.9292,-1.9073,-1.886,-1.8362,-1.804,-1.7797,-1.7473,-1.7229,-1.7041,-1.6804,-1.673,-1.673,-1.673,-1.673,-1.673,-1.673,-1.5982,-1.5068,-1.465,-1.4307,-1.3203,-1.21,-1.1757,-3.8473,-3.8132,-3.7487,-3.7208,-3.6943,-3.5839,-3.5369,-3.5261,-3.4037,-3.3319,-3.298,-3.2342,-3.191,-3.1739,-3.1409,-3.0673,-2.9917,-2.9732,-2.9282,-2.8826,-2.8903,-2.8967,-2.8826,-2.8441,-2.7986,-2.7577,-2.7124,-2.7056,-2.7056,-2.6718,-2.6799,-2.6663,-2.6458,-2.6539,-2.662,-2.6139,-2.5955,-2.5955,-2.5594,-2.5241,-2.5241,-2.5111,-2.4838,-2.4562,-2.4502,-2.4273,-2.397,-2.3886,-2.3677,-2.3372,-2.315,-2.3001,-2.3075,-2.3075,-2.3224,-2.3001,-2.3001,-2.3001,-2.3001,-2.3001,-2.3001,-2.299,-2.2767,-2.2542,-2.2392,-2.2014,-2.1558,-2.1021,-2.0391,-1.9618,-1.9301,-1.9292,-1.9292,-1.9292,-1.9292,-1.9292,-1.9292,-1.9292,-1.9292,-1.9292,-1.9292,-1.9292,-1.9292,-1.9292,-1.9292,-1.9292,-1.9292,-1.9292,-1.9292,-1.9222,-1.9143,-1.8904,-1.8825,-1.8594,-1.8371,-1.7959,-1.7627,-1.7392,-1.7147,-1.6984,-1.682,-1.673,-1.673,-1.673,-1.673,-1.673,-1.673,-1.6648,-1.5816,-1.5068,-1.4734,-1.4139,-1.2863,-1.1929,-1.1585,-3.8198,-3.7702,-3.7076,-3.6684,-3.6323,-3.5107,-3.4624,-3.443,-3.3219,-3.2547,-3.2342,-3.1796,-3.1467,-3.1219,-3.0866,-3.0251,-2.9219,-2.9093,-2.8634,-2.8182,-2.8247,-2.8182,-2.7855,-2.7458,-2.7056,-2.6841,-2.6045,-2.5721,-2.607,-2.5791,-2.5523,-2.5664,-2.5441,-2.5523,-2.5804,-2.5523,-2.5606,-2.5606,-2.5382,-2.5099,-2.4969,-2.4766,-2.4418,-2.4116,-2.4055,-2.3897,-2.3519,-2.3604,-2.3446,-2.315,-2.2927,-2.2767,-2.2777,-2.2703,-2.2703,-2.2777,-2.2841,-2.2841,-2.2767,-2.2542,-2.2467,-2.2392,-2.2166,-2.1939,-2.1787,-2.1318,-2.0779,-2.0089,-1.9696,-1.9381,-1.9292,-1.9292,-1.9292,-1.9292,-1.9292,-1.9292,-1.9292,-1.9292,-1.9292,-1.9292,-1.9292,-1.9292,-1.9301,-1.9292,-1.9292,-1.9292,-1.9292,-1.9143,-1.9073,-1.9073,-1.8922,-1.8523,-1.8282,-1.8031,-1.7797,-1.7554,-1.731,-1.7147,-1.6984,-1.682,-1.673,-1.673,-1.673,-1.673,-1.673,-1.673,-1.673,-1.6484,-1.5733,-1.5068,-1.4734,-1.3886,-1.2613,-1.1757,-1.1327,-3.7943,-3.7305,-3.6684,-3.6028,-3.5244,-3.4544,-3.3953,-3.3531,-3.2734,-3.2453,-3.2287,-3.1739,-3.1336,-3.097,-3.0237,-2.9156,-2.8195,-2.7868,-2.7617,-2.7108,-2.7351,-2.7471,-2.7284,-2.7069,-2.6637,-2.6214,-2.5557,-2.537,-2.537,-2.5229,-2.53,-2.5312,-2.5312,-2.537,-2.5394,-2.5123,-2.4933,-2.4933,-2.455,-2.4406,-2.4334,-2.4043,-2.3824,-2.3677,-2.3604,-2.3519,-2.3224,-2.3372,-2.3298,-2.2927,-2.2478,-2.2262,-2.2111,-2.1711,-2.1787,-2.2025,-2.2187,-2.2187,-2.2176,-2.1863,-2.1614,-2.1624,-2.1395,-2.1318,-2.1088,-2.0702,-2.0079,-1.945,-1.9301,-1.9301,-1.9292,-1.9292,-1.9292,-1.9222,-1.9231,-1.9222,-1.9222,-1.9143,-1.9143,-1.9143,-1.9143,-1.9143,-1.9231,-1.9222,-1.9292,-1.9292,-1.9213,-1.9073,-1.8834,-1.8683,-1.8603,-1.8201,-1.7797,-1.7554,-1.7383,-1.7139,-1.7066,-1.6902,-1.682,-1.673,-1.673,-1.673,-1.673,-1.673,-1.673,-1.6648,-1.6656,-1.6319,-1.5567,-1.4985,-1.4566,-1.3548,-1.2272,-1.1671,-1.1068,-3.6531,-3.6035,-3.543,-3.4825,-3.4203,-3.3598,-3.3093,-3.2703,-3.2089,-3.1781,-3.161,-3.0999,-3.0404,-2.9903,-2.9268,-2.8505,-2.7604,-2.7351,-2.6973,-2.6396,-2.6508,-2.6483,-2.6277,-2.6139,-2.5906,-2.531,-2.4838,-2.4276,-2.4348,-2.4874,-2.5312,-2.5241,-2.5312,-2.5182,-2.5052,-2.4861,-2.4646,-2.449,-2.4273,-2.4127,-2.3897,-2.3677,-2.3446,-2.3224,-2.3224,-2.3075,-2.3075,-2.315,-2.3001,-2.2553,-2.2187,-2.1949,-2.1634,-2.1395,-2.1405,-2.1482,-2.1175,-2.1405,-2.1863,-2.1482,-2.1242,-2.1088,-2.0857,-2.0469,-2.0157,-1.9923,-1.9618,-1.9292,-1.9292,-1.9292,-1.9292,-1.9292,-1.9152,-1.9082,-1.9082,-1.8843,-1.8834,-1.8922,-1.8922,-1.8922,-1.8913,-1.8913,-1.8913,-1.8913,-1.8825,-1.8665,-1.8665,-1.8514,-1.8273,-1.8031,-1.7878,-1.7716,-1.7392,-1.6984,-1.6976,-1.6812,-1.6894,-1.682,-1.682,-1.673,-1.673,-1.673,-1.673,-1.673,-1.673,-1.6656,-1.6656,-1.6319,-1.5733,-1.4977,-1.4223,-1.3118,-1.2015,-1.1257,-1.0748,-3.4822,-3.4525,-3.4186,-3.379,-3.3287,-3.2749,-3.2367,-3.1962,-3.1364,-3.1029,-3.0777,-3.0086,-2.9282,-2.8648,-2.8312,-2.7855,-2.7175,-2.704,-2.6508,-2.6037,-2.584,-2.5676,-2.5594,-2.537,-2.5146,-2.412,-2.4264,-2.3841,-2.3621,-2.3913,-2.4564,-2.5016,-2.517,-2.5111,-2.4849,-2.4646,-2.4429,-2.3824,-2.3593,-2.3372,-2.3224,-2.299,-2.2767,-2.2617,-2.2542,-2.2553,-2.2553,-2.2542,-2.2241,-2.1939,-2.1471,-2.1088,-2.0934,-2.0547,-2.0615,-2.0615,-2.0304,-2.0382,-2.0924,-2.0924,-2.0769,-2.0537,-2.0391,-1.9844,-1.9539,-1.9222,-1.9152,-1.9073,-1.9073,-1.9143,-1.9143,-1.9222,-1.9222,-1.8993,-1.8851,-1.8531,-1.829,-1.8451,-1.8523,-1.8603,-1.8523,-1.8523,-1.8523,-1.8523,-1.8362,-1.8112,-1.7951,-1.7951,-1.7733,-1.7596,-1.7433,-1.7286,-1.7106,-1.686,-1.6844,-1.6754,-1.6746,-1.6786,-1.6794,-1.6762,-1.6778,-1.6754,-1.673,-1.673,-1.6711,-1.6484,-1.6319,-1.6154,-1.5899,-1.4894,-1.3971,-1.2778,-1.1757,-1.1024,-1.0557,-3.2933,-3.2826,-3.3431,-3.3171,-3.2422,-3.2453,-3.1936,-3.1175,-3.0629,-3.0194,-2.9889,-2.9219,-2.8454,-2.7881,-2.755,-2.7162,-2.6339,-2.6283,-2.5746,-2.5453,-2.5382,-2.5158,-2.4862,-2.4779,-2.485,-2.4036,-2.3672,-2.339,-2.3095,-2.2723,-2.3452,-2.4108,-2.4492,-2.4814,-2.455,-2.397,-2.3604,-2.3001,-2.2628,-2.2402,-2.2166,-2.1852,-2.1548,-2.1471,-2.1395,-2.1318,-2.1318,-2.1385,-2.1308,-2.1165,-2.0459,-2.0148,-2.0079,-1.9539,-1.952,-1.9816,-1.9371,-1.952,-1.9972,-1.9991,-1.9608,-1.946,-1.9381,-1.9381,-1.9231,-1.8931,-1.878,-1.8772,-1.8763,-1.8772,-1.8843,-1.8993,-1.8984,-1.8754,-1.8442,-1.821,-1.8049,-1.804,-1.8121,-1.8121,-1.8121,-1.8121,-1.7959,-1.7878,-1.7878,-1.7627,-1.7644,-1.7571,-1.7499,-1.7286,-1.7113,-1.6948,-1.6924,-1.6833,-1.681,-1.6857,-1.7016,-1.7048,-1.704,-1.6937,-1.6849,-1.6826,-1.6969,-1.6818,-1.682,-1.6399,-1.5884,-1.5515,-1.5043,-1.446,-1.3587,-1.2608,-1.163,-1.0894,-1.0488,-3.2266,-3.2516,-3.1558,-3.1187,-3.116,-3.0733,-3.0254,-2.9889,-2.9518,-2.9016,-2.8492,-2.8182,-2.7683,-2.7095,-2.6905,-2.6645,-2.6201,-2.6062,-2.5312,-2.4791,-2.4636,-2.4276,-2.3902,-2.3599,-2.3294,-2.2713,-2.2499,-2.1973,-2.1145,-2.1603,-2.1886,-2.2478,-2.3136,-2.3073,-2.2883,-2.2745,-2.2306,-2.209,-2.1711,-2.1558,-2.1482,-2.1395,-2.1242,-2.1242,-2.1242,-2.1001,-2.0827,-2.0827,-2.0527,-2.0138,-1.952,-1.9371,-1.9301,-1.8603,-1.8674,-1.9116,-1.8594,-1.8745,-1.9134,-1.9073,-1.8922,-1.8922,-1.8922,-1.8922,-1.8922,-1.8531,-1.8531,-1.8531,-1.8451,-1.829,-1.8282,-1.8353,-1.8353,-1.8193,-1.804,-1.7878,-1.7716,-1.7716,-1.7635,-1.7716,-1.7716,-1.7635,-1.7473,-1.731,-1.7229,-1.7139,-1.7163,-1.7212,-1.7276,-1.7239,-1.7195,-1.7167,-1.7175,-1.7215,-1.7215,-1.7278,-1.735,-1.7318,-1.7286,-1.7223,-1.7243,-1.7358,-1.7461,-1.7266,-1.6962,-1.6559,-1.5842,-1.4838,-1.4254,-1.395,-1.3317,-1.2411,-1.1557,-1.0749,-1.0611,-3.1577,-3.1721,-2.9983,-2.9704,-3.0283,-2.9608,-2.917,-2.8903,-2.8583,-2.7999,-2.7229,-2.7002,-2.6595,-2.607,-2.5639,-2.5429,-2.5158,-2.4933,-2.442,-2.3975,-2.361,-2.3243,-2.2872,-2.2638,-2.2489,-2.1603,-2.1308,-2.0924,-2.0167,-2.0624,-2.0779,-2.0914,-2.1125,-2.1354,-2.1811,-2.1375,-2.1242,-2.1165,-2.1011,-2.0934,-2.0944,-2.0557,-2.0469,-2.0469,-2.0391,-2.0157,-1.9913,-1.9835,-1.959,-1.9204,-1.8816,-1.8665,-1.8434,-1.8282,-1.821,-1.8218,-1.8138,-1.8049,-1.8379,-1.862,-1.8612,-1.8531,-1.87,-1.862,-1.8451,-1.8121,-1.7968,-1.8129,-1.7959,-1.7797,-1.7797,-1.7959,-1.804,-1.7959,-1.7716,-1.7554,-1.7392,-1.7229,-1.7229,-1.7229,-1.731,-1.7408,-1.7253,-1.7113,-1.7244,-1.7317,-1.7411,-1.7527,-1.7484,-1.7536,-1.7571,-1.7548,-1.7612,-1.7668,-1.7731,-1.766,-1.7588,-1.7556,-1.7548,-1.7666,-1.769,-1.7779,-1.7803,-1.7581,-1.7131,-1.6698,-1.5725,-1.4705,-1.4072,-1.3597,-1.2806,-1.1909,-1.1456,-1.0634,-1.0729,-3.0629,-3.0389,-2.903,-2.9079,-2.995,-2.9546,-2.898,-2.8376,-2.7789,-2.7069,-2.6277,-2.5557,-2.5134,-2.485,-2.4325,-2.3963,-2.3745,-2.3599,-2.3084,-2.2574,-2.2798,-2.251,-2.2199,-2.1973,-2.1745,-2.1538,-2.1078,-2.0459,-1.9854,-1.9942,-1.9872,-1.9784,-1.9991,-2.0285,-2.1507,-2.1298,-2.1155,-2.1088,-2.0479,-2.0323,-2.0089,-1.9548,-1.939,-1.939,-1.9222,-1.9073,-1.8913,-1.8834,-1.8585,-1.8264,-1.8023,-1.7951,-1.804,-1.7878,-1.7895,-1.801,-1.7652,-1.7661,-1.7938,-1.8388,-1.8371,-1.8121,-1.829,-1.829,-1.804,-1.7716,-1.7473,-1.7725,-1.7481,-1.7392,-1.7554,-1.7716,-1.7716,-1.7635,-1.7392,-1.7229,-1.7066,-1.6984,-1.6984,-1.7032,-1.718,-1.727,-1.7161,-1.71,-1.7347,-1.75,-1.768,-1.7776,-1.7776,-1.7865,-1.7826,-1.8001,-1.8081,-1.8073,-1.8089,-1.7922,-1.7834,-1.7811,-1.7866,-1.7969,-1.7793,-1.7663,-1.7632,-1.7627,-1.6803,-1.5749,-1.5099,-1.4428,-1.3652,-1.2802,-1.2102,-1.1316,-1.0954,-1.0721,-1.083,-2.8743,-2.8933,-2.7152,-2.7031,-2.7854,-2.7285,-2.6896,-2.6557,-2.5718,-2.5098,-2.4684,-2.4264,-2.412,-2.3891,-2.3661,-2.3294,-2.3147,-2.3147,-2.2713,-2.1907,-2.2059,-2.1538,-2.1155,-2.0914,-2.0682,-2.0313,-2.0089,-2.0001,-1.946,-1.9557,-1.9478,-1.9381,-1.9301,-1.9599,-1.9904,-1.9991,-1.9913,-1.9913,-1.9687,-1.9618,-1.9529,-1.9002,-1.8692,-1.8843,-1.8451,-1.8129,-1.7968,-1.7968,-1.7797,-1.7554,-1.7392,-1.731,-1.7392,-1.7392,-1.731,-1.7416,-1.7229,-1.6992,-1.7245,-1.7473,-1.7716,-1.7716,-1.7797,-1.7878,-1.7554,-1.7229,-1.7147,-1.7147,-1.6894,-1.6894,-1.6984,-1.6984,-1.7066,-1.7066,-1.6902,-1.6894,-1.6812,-1.6812,-1.6746,-1.6916,-1.703,-1.7435,-1.7467,-1.7345,-1.7502,-1.7549,-1.7707,-1.8001,-1.8025,-1.8185,-1.8208,-1.8446,-1.8565,-1.8518,-1.8446,-1.8295,-1.8182,-1.8131,-1.8128,-1.8253,-1.8032,-1.7425,-1.7,-1.6718,-1.5735,-1.4652,-1.416,-1.3502,-1.2723,-1.1869,-1.1487,-1.1267,-1.1029,-1.0986,-1.1057,-2.7061,-2.7617,-2.5857,-2.5463,-2.5926,-2.5591,-2.5334,-2.4981,-2.4325,-2.3891,-2.3818,-2.3526,-2.3158,-2.2925,-2.2627,-2.2489,-2.2339,-2.2188,-2.2038,-2.1318,-2.1231,-2.0779,-2.0323,-1.9942,-2.001,-1.9636,-1.9478,-1.939,-1.9381,-1.9469,-1.932,-1.9073,-1.8904,-1.8656,-1.8727,-1.8816,-1.9063,-1.8984,-1.8825,-1.8825,-1.8665,-1.8442,-1.829,-1.8282,-1.8049,-1.7716,-1.7473,-1.7392,-1.731,-1.7147,-1.6902,-1.6648,-1.673,-1.673,-1.664,-1.673,-1.6812,-1.6656,-1.682,-1.6984,-1.7147,-1.7147,-1.731,-1.731,-1.7147,-1.6656,-1.6566,-1.6484,-1.6312,-1.6147,-1.6072,-1.6072,-1.6154,-1.6154,-1.6154,-1.6064,-1.6072,-1.6072,-1.6436,-1.6513,-1.7043,-1.7399,-1.7779,-1.7687,-1.7714,-1.7663,-1.7717,-1.7975,-1.8218,-1.8265,-1.8304,-1.8478,-1.8703,-1.8533,-1.8601,-1.8692,-1.8517,-1.8434,-1.8257,-1.8164,-1.7475,-1.6757,-1.6303,-1.5792,-1.4943,-1.4052,-1.3256,-1.2522,-1.1915,-1.1531,-1.1322,-1.123,-1.1194,-1.1194,-1.1194,-2.5571,-2.6345,-2.5133,-2.4385,-2.4397,-2.448,-2.4337,-2.3975,-2.3745,-2.3599,-2.3599,-2.2649,-2.2199,-2.1811,-2.1078,-2.0867,-2.0867,-2.0634,-2.0566,-2.0489,-2.0479,-2.0098,-1.9854,-1.9618,-1.9301,-1.9301,-1.9063,-1.8647,-1.9045,-1.8638,-1.8496,-1.8434,-1.7934,-1.7691,-1.761,-1.7781,-1.8023,-1.7844,-1.7844,-1.7844,-1.7861,-1.7627,-1.7716,-1.7716,-1.7635,-1.7392,-1.7229,-1.7229,-1.7066,-1.682,-1.6484,-1.6147,-1.6064,-1.6147,-1.5982,-1.5982,-1.6237,-1.6319,-1.6402,-1.6402,-1.6484,-1.6484,-1.6812,-1.6894,-1.6648,-1.6154,-1.5989,-1.5733,-1.5401,-1.5151,-1.4901,-1.4985,-1.4985,-1.4985,-1.4985,-1.4985,-1.5082,-1.5314,-1.5789,-1.6277,-1.6908,-1.7415,-1.7893,-1.7871,-1.7758,-1.7621,-1.7629,-1.7574,-1.7811,-1.8026,-1.8057,-1.8341,-1.8442,-1.8458,-1.8458,-1.8265,-1.8079,-1.7707,-1.7606,-1.7412,-1.6756,-1.6001,-1.5419,-1.4746,-1.4262,-1.3494,-1.2543,-1.1868,-1.1477,-1.1194,-1.1194,-1.1194,-1.1194,-1.1194,-1.1194,-2.2328,-2.2561,-2.1652,-2.1845,-2.2669,-2.2925,-2.266,-2.208,-2.1939,-2.1852,-2.17,-2.1492,-2.1011,-2.0779,-2.0634,-2.0411,-2.0333,-2.0342,-2.0342,-2.0177,-1.9932,-1.9441,-1.9036,-1.8709,-1.831,-1.7827,-1.7504,-1.7504,-1.7253,-1.7163,-1.7074,-1.6675,-1.6772,-1.6535,-1.6468,-1.6394,-1.6453,-1.6519,-1.6519,-1.6862,-1.7041,-1.6804,-1.6968,-1.7147,-1.6976,-1.6812,-1.6812,-1.6812,-1.6648,-1.6648,-1.6147,-1.5733,-1.5733,-1.5394,-1.5068,-1.5068,-1.5151,-1.5235,-1.5318,-1.5311,-1.5401,-1.5484,-1.5567,-1.5733,-1.5733,-1.565,-1.5401,-1.4985,-1.465,-1.4391,-1.4314,-1.4314,-1.4398,-1.4307,-1.4307,-1.4398,-1.4432,-1.4838,-1.5319,-1.5951,-1.6578,-1.7145,-1.7682,-1.7873,-1.7665,-1.7654,-1.7512,-1.7326,-1.7333,-1.752,-1.7707,-1.7893,-1.7792,-1.7707,-1.7426,-1.7138,-1.7052,-1.6958,-1.6756,-1.6372,-1.571,-1.4949,-1.4376,-1.3703,-1.3022,-1.2349,-1.1673,-1.1292,-1.1194,-1.1194,-1.1194,-1.1194,-1.1194,-1.1194,-1.1194,-1.9858,-2.0149,-1.9612,-1.9856,-2.0459,-2.07,-2.043,-1.9982,-2.0323,-2.0333,-1.9923,-1.9756,-1.9599,-1.9274,-1.9195,-1.9116,-1.9036,-1.9195,-1.9195,-1.87,-1.945,-1.8638,-1.8149,-1.7891,-1.7649,-1.6927,-1.6445,-1.6601,-1.6101,-1.5944,-1.5779,-1.5869,-1.5613,-1.5372,-1.522,-1.4977,-1.4713,-1.4866,-1.5191,-1.5621,-1.5884,-1.5884,-1.6057,-1.6229,-1.6064,-1.5982,-1.5982,-1.5982,-1.5982,-1.5816,-1.5235,-1.4901,-1.4901,-1.4482,-1.4566,-1.465,-1.4817,-1.4817,-1.4817,-1.4817,-1.4734,-1.465,-1.465,-1.4734,-1.4741,-1.4741,-1.4573,-1.4321,-1.4062,-1.3886,-1.3893,-1.3893,-1.3886,-1.3886,-1.3886,-1.3886,-1.4103,-1.4428,-1.4945,-1.5595,-1.6188,-1.682,-1.723,-1.7483,-1.7419,-1.7044,-1.6669,-1.6379,-1.6574,-1.6965,-1.7052,-1.7239,-1.6951,-1.677,-1.6386,-1.6103,-1.5906,-1.571,-1.5317,-1.4937,-1.4472,-1.38,-1.3125,-1.2452,-1.178,-1.1389,-1.1292,-1.1194,-1.1194,-1.1194,-1.1194,-1.1194,-1.1194,-1.1194,-1.1194,-1.7654,-1.854,-1.8391,-1.8106,-1.8123,-1.8204,-1.8043,-1.7738,-1.8709,-1.8868,-1.8301,-1.8052,-1.7971,-1.79,-1.7819,-1.7658,-1.7738,-1.806,-1.7883,-1.6822,-1.823,-1.7917,-1.7082,-1.7245,-1.6593,-1.6273,-1.5944,-1.5365,-1.544,-1.5115,-1.4796,-1.5144,-1.4727,-1.4391,-1.4146,-1.3893,-1.3717,-1.3795,-1.4132,-1.4552,-1.4643,-1.465,-1.465,-1.4817,-1.4817,-1.4817,-1.4817,-1.4734,-1.4734,-1.4489,-1.4237,-1.3906,-1.373,-1.373,-1.3977,-1.4146,-1.423,-1.4223,-1.4223,-1.423,-1.4314,-1.4398,-1.4566,-1.4146,-1.3893,-1.4068,-1.399,-1.3639,-1.3379,-1.3294,-1.3294,-1.33,-1.3209,-1.3209,-1.3209,-1.3278,-1.3502,-1.3931,-1.4584,-1.5119,-1.5735,-1.6317,-1.6432,-1.6662,-1.685,-1.6292,-1.6008,-1.5629,-1.5534,-1.6015,-1.6298,-1.6393,-1.6008,-1.5724,-1.5432,-1.5051,-1.4752,-1.4459,-1.4076,-1.389,-1.3619,-1.2845,-1.1873,-1.1585,-1.1389,-1.1292,-1.1194,-1.1194,-1.1194,-1.1194,-1.1194,-1.1194,-1.1194,-1.1194,-1.1194,-1.4754,-1.4712,-1.5284,-1.5801,-1.6316,-1.679,-1.6903,-1.6714,-1.6601,-1.6919,-1.7415,-1.7415,-1.7253,-1.7001,-1.6838,-1.6756,-1.6748,-1.683,-1.674,-1.6503,-1.709,-1.6675,-1.5357,-1.5516,-1.5115,-1.4378,-1.3964,-1.3873,-1.3698,-1.3535,-1.3372,-1.3379,-1.3294,-1.3385,-1.3561,-1.33,-1.3045,-1.3215,-1.33,-1.3639,-1.3893,-1.4068,-1.4068,-1.4398,-1.4566,-1.4566,-1.4566,-1.4566,-1.465,-1.4566,-1.4068,-1.3561,-1.296,-1.296,-1.3045,-1.313,-1.33,-1.3379,-1.3379,-1.3379,-1.3379,-1.3294,-1.3294,-1.3124,-1.313,-1.3476,-1.3483,-1.3045,-1.2869,-1.2784,-1.2705,-1.2705,-1.2705,-1.2705,-1.2717,-1.2843,-1.2988,-1.3572,-1.4167,-1.4771,-1.536,-1.5514,-1.5717,-1.5818,-1.6008,-1.5818,-1.5629,-1.5248,-1.4777,-1.4873,-1.5159,-1.5248,-1.4962,-1.4675,-1.4388,-1.4094,-1.3703,-1.3414,-1.313,-1.2948,-1.2764,-1.2273,-1.1683,-1.1389,-1.1194,-1.1194,-1.1194,-1.1194,-1.1194,-1.1194,-1.1194,-1.1194,-1.1194,-1.1194,-1.1194,-1.2401,-1.2492,-1.3231,-1.373,-1.4072,-1.4386,-1.4483,-1.4266,-1.4008,-1.4079,-1.4664,-1.5357,-1.5794,-1.5703,-1.5621,-1.5613,-1.5523,-1.5681,-1.5274,-1.5115,-1.5606,-1.5191,-1.4615,-1.4028,-1.3444,-1.2869,-1.2443,-1.2272,-1.21,-1.2613,-1.2784,-1.2613,-1.2619,-1.279,-1.3215,-1.2875,-1.279,-1.313,-1.2875,-1.296,-1.33,-1.3385,-1.3392,-1.3808,-1.3802,-1.3886,-1.3802,-1.3808,-1.3802,-1.3808,-1.3392,-1.313,-1.279,-1.279,-1.2705,-1.279,-1.279,-1.2705,-1.2705,-1.2705,-1.2705,-1.2705,-1.2705,-1.2784,-1.2784,-1.3137,-1.3137,-1.279,-1.279,-1.2705,-1.2705,-1.2705,-1.2705,-1.2705,-1.2759,-1.2856,-1.3181,-1.3683,-1.4111,-1.445,-1.4758,-1.4573,-1.4675,-1.4586,-1.4873,-1.5534,-1.5248,-1.5146,-1.4586,-1.3727,-1.401,-1.4106,-1.3817,-1.3431,-1.3044,-1.2845,-1.2651,-1.2365,-1.2175,-1.2078,-1.1975,-1.178,-1.1487,-1.1292,-1.1194,-1.1194,-1.1194,-1.1194,-1.1194,-1.1194,-1.1194,-1.1194,-1.1194,-1.1194,-1.1096,-1.0245,-1.0682,-1.1289,-1.1541,-1.1455,-1.1547,-1.1547,-1.1461,-1.1552,-1.1386,-1.1466,-1.2948,-1.3561,-1.3737,-1.3568,-1.3568,-1.3815,-1.4378,-1.388,-1.3873,-1.4866,-1.4287,-1.3613,-1.3014,-1.2254,-1.1655,-1.123,-1.1144,-1.1058,-1.1574,-1.1923,-1.2266,-1.2351,-1.2357,-1.2534,-1.2534,-1.2528,-1.279,-1.2705,-1.2705,-1.2705,-1.2705,-1.279,-1.279,-1.2705,-1.2705,-1.2705,-1.2705,-1.2705,-1.279,-1.2875,-1.279,-1.279,-1.2705,-1.2705,-1.2705,-1.2705,-1.2705,-1.2705,-1.2705,-1.2705,-1.2705,-1.2705,-1.2699,-1.2699,-1.2705,-1.2705,-1.2705,-1.2705,-1.2699,-1.2699,-1.2699,-1.2699,-1.2765,-1.2837,-1.2988,-1.3411,-1.3704,-1.3956,-1.4202,-1.401,-1.3823,-1.3727,-1.3636,-1.4016,-1.4675,-1.4867,-1.4867,-1.4484,-1.3528,-1.3141,-1.3044,-1.2851,-1.2365,-1.2078,-1.2078,-1.2073,-1.178,-1.1683,-1.1389,-1.1194,-1.1389,-1.1389,-1.1292,-1.1194,-1.1194,-1.1194,-1.1194,-1.1194,-1.1194,-1.1194,-1.1194,-1.1194,-1.1096,-1.0895,-0.7807,-0.719,-0.7822,-0.807,-0.8214,-0.8839,-0.9447,-0.9962,-1.0331,-1.0524,-1.0351,-1.0702,-1.1397,-1.2363,-1.2192,-1.2277,-1.279,-1.3203,-1.3124,-1.3124,-1.3275,-1.3118,-1.2516,-1.1643,-1.1047,-1.0443,-0.9923,-0.9927,-1.0014,-1.0188,-1.0274,-1.0356,-1.0524,-1.088,-1.1494,-1.158,-1.1752,-1.2009,-1.2351,-1.2351,-1.2443,-1.2528,-1.2699,-1.2705,-1.2705,-1.2705,-1.2705,-1.2705,-1.2705,-1.2705,-1.2699,-1.2619,-1.2705,-1.2619,-1.2619,-1.2705,-1.2705,-1.2613,-1.2613,-1.2528,-1.2443,-1.2443,-1.2443,-1.2528,-1.2528,-1.2613,-1.2613,-1.2705,-1.2699,-1.2699,-1.2613,-1.2613,-1.2625,-1.2799,-1.2907,-1.3165,-1.3546,-1.3702,-1.3933,-1.3823,-1.3539,-1.334,-1.3147,-1.3055,-1.3055,-1.3528,-1.3624,-1.3528,-1.3624,-1.2948,-1.237,-1.2175,-1.2073,-1.198,-1.1883,-1.1878,-1.178,-1.1487,-1.1194,-1.1194,-1.1194,-1.1194,-1.1194,-1.1194,-1.1194,-1.1194,-1.1194,-1.1194,-1.1194,-1.1194,-1.1194,-1.1194,-1.1194,-1.0797,-1.0395]}]]